     2              OBSERVATION DATA    GPS                 RINEX VERSION / TYPE
teqc 2000Jul20 Karen Wendt 20030417 19:57:27UTC             PGM / RUN BY / DATE
                                                            COMMENT
L2: 1 -> 1; 150 -> 5; 250 -> 9                              COMMENT
L2: 1 -> 1; 150 -> 5; 250 -> 9                              COMMENT
L2: 1 -> 1; 150 -> 5; 250 -> 9                              COMMENT
L2: 1 -> 1; 150 -> 5; 250 -> 9                              COMMENT
L2: 1 -> 1; 150 -> 5; 250 -> 9                              COMMENT
L2: 1 -> 1; 150 -> 5; 250 -> 9                              COMMENT
L2: 1 -> 1; 150 -> 5; 250 -> 9                              COMMENT
L2: 1 -> 1; 150 -> 5; 250 -> 9                              COMMENT
L2: 1 -> 1; 150 -> 5; 250 -> 9                              COMMENT
L2: 1 -> 1; 150 -> 5; 250 -> 9                              COMMENT
L2: 1 -> 1; 150 -> 5; 250 -> 9                              COMMENT
L2: 1 -> 1; 150 -> 5; 250 -> 9                              COMMENT
L2: 1 -> 1; 150 -> 5; 250 -> 9                              COMMENT
L2: 1 -> 1; 150 -> 5; 250 -> 9                              COMMENT
Original Marker Name: pyra Pyrmid_1932_USC&GS               COMMENT
Campaign Name: USGS 2003                                    COMMENT
4-Character Station Name: PYRA                              COMMENT
6-Character Antenna Code: DMRCHT                            COMMENT
Vertical Measurement Point: BCR                             COMMENT
Vertical Offset to Rinex Ref. Point: 0.0348                 COMMENT
Radial Measurement Point: ECF                               COMMENT
Radial Offset to Rinex Ref. Point: 0.1897                   COMMENT
Antenna Height from Field Measurement: 1.3570 m             COMMENT
Additional Antenna Identification Info.:                    COMMENT
Turborogue and Ashtech Choke Ring                           COMMENT
Original XYZ: -2593955.7970 -4478732.3984 3715348.1712      COMMENT
New XYZ position is based on association with SCEC monument COMMENT
E1F1F8Y4+0011. Position of that monument is believed to be  COMMENT
valid to within 1 m horizontally; vertical accuracy         COMMENT
should be no worse than 3-times this value.                 COMMENT
                                                            COMMENT
Revised Rinex header created by UCSD GPS archive for        COMMENT
GSAC on 17-Jul-2003 (2003:198) 21:00:36 GMT                 COMMENT
For assistance contact dagnew@ucsd.edu                      COMMENT
or anderson@python.ucsd.edu                                 COMMENT
                                                            COMMENT
PYRAMID 1932                                                MARKER NAME
JMS US GEOLOGICAL SURVEY                                    OBSERVER / AGENCY
LP00108.707 ASHTECH Z-XII3 CD00                             REC # / TYPE / VERS
CR519993706 DORNE-MARGOL. TYPE T                            ANT # / TYPE
 -2593974.3962 -4478709.4634  3715343.6679                  APPROX POSITION XYZ
        1.3089        0.0000        0.0000                  ANTENNA: DELTA H/E/N
     1     1     0                                          WAVELENGTH FACT L1/2
     5    C1    L1    L2    P1    P2                        # / TYPES OF OBSERV
    30                                                      INTERVAL
  2003     4    11     0     1    0.000000                  TIME OF FIRST OBS
  2003     4    11    23    59   30.000000                  TIME OF LAST OBS
                                                            END OF HEADER
 03  4 11  0  1  0.0000000  0  8G31G14G 9G15G17G 3G18G23
  22973064.024    -9142365.76449  -7108782.33846  22973063.329    22973069.800
  21261373.986   -21244415.35349 -16544654.41847  21261373.328    21261378.580
  23542636.995    -8174493.92149  -6225762.08945  23542636.523    23542644.360
  20295202.370   -28266603.88949 -22013741.57448  20295201.484    20295207.458
  22156223.070   -18348936.15949 -14276355.51846  22156222.306    22156229.640
  21738985.350   -19426785.81449 -15126482.80447  21738984.854    21738991.000
  21081205.995   -22809095.72649 -17472137.36347  21081205.385    21081210.003
  21631742.868   -18361286.80049 -14285595.18947  21631742.086    21631748.067
 03  4 11  0  1 30.0000000  0  8G31G14G 9G15G17G 3G18G23
  22962221.971    -9199340.83849  -7153178.45446  22962221.355    22962227.746
  21247278.537   -21318487.19349 -16602372.68347  21247277.886    21247283.128
  23537802.319    -8199900.43349  -6245559.33245  23537801.959    23537809.574
  20298490.566   -28249324.23049 -22000276.90848  20298489.688    20298495.668
  22168746.792   -18283123.71549 -14225073.14046  22168746.047    22168753.407
  21737436.505   -19434924.99649 -15132825.01547  21737436.026    21737442.156
  21089536.642   -22765317.76449 -17438024.67247  21089536.038    21089540.658
  21640288.032   -18316381.64349 -14250604.16247  21640287.271    21640293.233
 03  4 11  0  2  0.0000000  0  8G31G14G 9G15G17G 3G18G23
  22951474.433    -9255819.33549  -7197187.63146  22951473.785    22951480.189
  21233266.337   -21392121.52649 -16659750.03747  21233265.676    21233270.908
  23533066.495    -8224786.36849  -6264950.89345  23533066.247    23533073.865
  20301853.860   -28231650.03249 -21986504.80648  20301852.970    20301858.968
  22181329.822   -18216999.47749 -14173547.80146  22181329.086    22181336.483
  21735995.552   -19442497.25749 -15138725.46547  21735995.074    21736001.224
  21097902.764   -22721353.53549 -17403766.83447  21097902.156    21097906.788
  21648853.647   -18271368.99949 -14215529.37947  21648852.861    21648858.849
 03  4 11  0  2 30.0000000  0  8G31G14G 9G15G17G 3G18G23
  22940821.914    -9311798.70149  -7240807.87246  22940821.261    22940827.692
  21219337.874   -21465315.82249 -16716784.50447  21219337.229    21219342.442
  23528430.513    -8249149.43149  -6283935.07345  23528430.177    23528437.585
  20305292.553   -28213579.50849 -21972423.88648  20305291.679    20305297.656
  22193972.216   -18150563.40649 -14121779.47746  22193971.473    22193978.893
  21734662.595   -19449501.90249 -15144183.62047  21734662.117    21734668.260
  21106304.274   -22677203.16849 -17369363.95747  21106303.680    21106308.311
  21657439.642   -18226249.34649 -14180371.21647  21657438.867    21657444.848
 03  4 11  0  3  0.0000000  0  8G31G14G 9G15G17G 3G18G23
  22930264.583    -9367277.50349  -7284038.06946  22930263.939    22930270.380
  21205493.476   -21538068.53849 -16773474.88647  21205492.843    21205498.040
  23523893.963    -8272987.91449  -6302510.43745  23523893.598    23523901.273
  20308806.686   -28195112.57549 -21958034.07448  20308805.826    20308811.791
  22206673.812   -18083816.16249 -14069768.67846  22206673.040    22206680.469
  21733437.583   -19455939.32249 -15149199.78147  21733437.115    21733443.249
  21114740.955   -22632868.20049 -17334817.23747  21114740.359    21114744.977
  21666045.748   -18181023.93249 -14145130.63447  21666044.969    21666050.967
 03  4 11  0  3 30.0000000  0  8G31G14G 9G15G17G 3G18G23
  22919802.995    -9422253.41449  -7326876.39746  22919802.351    22919808.803
  21191733.507   -21610377.33949 -16829819.35847  21191732.879    21191738.062
  23519458.086    -8296299.36249  -6320675.17545  23519457.708    23519465.252
  20312396.529   -28176247.94549 -21943334.37148  20312395.671    20312401.636
  22219434.668   -18016757.47349 -14017515.20246  22219433.906    22219441.341
  21732320.635   -19461808.79549 -15153773.38447  21732320.168    21732326.305
  21123212.646   -22588349.12549 -17300127.05647  21123212.055    21123216.694
  21674671.932   -18135692.89549 -14109807.76347  21674671.158    21674677.155
 03  4 11  0  4  0.0000000  0  8G31G14G 9G15G17G 3G18G23
  22909437.291    -9476725.27249  -7369321.96446  22909436.607    22909443.078
  21178058.313   -21682240.78749 -16885816.80147  21178057.686    21178062.849
  23515122.321    -8319082.79549  -6338428.43145  23515121.960    23515129.471
  20316062.062   -28156985.44749 -21928324.64848  20316061.194    20316067.172
  22232254.682   -17949388.04249 -13965019.59246  22232253.941    22232261.368
  21731311.619   -19467111.12649 -15157905.05947  21731311.166    21731317.288
  21131719.042   -22543647.60549 -17265294.71247  21131718.446    21131723.100
  21683317.957   -18090257.80349 -14074403.80547  21683317.182    21683323.201
 03  4 11  0  4 30.0000000  0  8G31G14G 9G15G17G 3G18G23
  22899168.039    -9530690.36349  -7411372.64746  22899167.396    22899173.773
  21164468.340   -21753656.42949 -16941465.30547  21164467.704    21164472.849
  23510887.895    -8341335.53949  -6355768.19245  23510887.481    23510895.086
  20319803.568   -28137323.63449 -21913003.77048  20319802.703    20319808.678
  22245133.965   -17881707.13449 -13912281.26246  22245133.225    22245140.633
  21730410.739   -19471845.24749 -15161593.97147  21730410.290    21730416.411
  21140260.146   -22498763.91249 -17230320.41647  21140259.553    21140264.197
  21691983.784   -18044718.68149 -14038918.78447  21691983.003    21691989.028
 03  4 11  0  5  0.0000000  0  8G31G14G 9G15G17G 3G18G23
  22888995.350    -9584148.00049  -7453027.90846  22888994.739    22889001.071
  21150963.759   -21824623.36149 -16996764.16947  21150963.123    21150968.244
  23506754.344    -8363056.66249  -6372693.70745  23506753.853    23506761.526
  20323621.056   -28117262.63649 -21897371.82948  20323620.191    20323626.185
  22258072.381   -17813715.56349 -13859300.85446  22258071.587    22258079.071
  21729617.785   -19476012.25649 -15164840.98347  21729617.329    21729623.449
  21148835.601   -22453699.72049 -17195205.47147  21148834.986    21148839.647
  21700669.053   -17999077.30449 -14003354.08647  21700668.280    21700674.294
 03  4 11  0  5 30.0000000  0  8G31G14G 9G15G17G 3G18G23
  22878919.580    -9637096.37949  -7494286.34946  22878918.964    22878925.301
  21137544.882   -21895139.70349 -17051711.91747  21137544.273    21137549.359
  23502722.484    -8384244.06749  -6389203.33345  23502722.114    23502729.657
  20327514.632   -28096801.77949 -21881428.30748  20327513.785    20327519.771
  22271069.806   -17745413.65149 -13806078.62746  22271069.030    22271076.535
  21728932.710   -19479612.18649 -15167646.11247  21728932.233    21728938.375
  21157445.194   -22408455.99149 -17159950.62847  21157444.586    21157449.216
  21709373.633   -17953334.42149 -13967710.29247  21709372.854    21709378.891
 03  4 11  0  6  0.0000000  0  8G31G14G 9G15G17G 3G18G23
  22868941.146    -9689533.50349  -7535146.40346  22868940.482    22868946.891
  21124212.144   -21965203.49149 -17106307.03247  21124211.513    21124216.616
  23498792.430    -8404895.86449  -6405295.59345  23498792.065    23498799.796
  20331484.412   -28075940.48049 -21865172.75248  20331483.557    20331489.550
  22284126.393   -17676801.00049 -13752614.27746  22284125.631    22284133.099
  21728355.566   -19482645.06549 -15170009.38647  21728355.093    21728361.226
  21166088.792   -22363033.56849 -17124556.54447  21166088.192    21166092.839
  21718097.403   -17907490.78449 -13931987.99147  21718096.615    21718102.639
 03  4 11  0  6 30.0000000  0  8G31G14G 9G15G17G 3G18G23
  22859060.164    -9741458.30749  -7575607.26046  22859059.522    22859065.873
  21110965.772   -22034813.43549 -17160548.49747  21110965.133    21110970.212
  23494964.782    -8425011.08849  -6420969.76045  23494964.425    23494971.775
  20335530.451   -28054678.42749 -21848604.91248  20335529.606    20335535.586
  22297241.794   -17607879.37449 -13698909.15946  22297240.981    22297248.541
  21727886.200   -19485111.44249 -15171931.22547  21727885.738    21727891.872
  21174766.071   -22317434.10449 -17089024.50547  21174765.475    21174770.116
  21726840.083   -17861547.76449 -13896188.24447  21726839.292    21726845.318
 03  4 11  0  7  0.0000000  0  8G31G14G 9G15G17G 3G18G23
  22849277.129    -9792868.38649  -7615667.01346  22849276.465    22849282.833
  21097806.251   -22103966.99749 -17214434.34447  21097805.613    21097810.675
  23491239.373    -8444587.12349  -6436223.76745  23491239.004    23491246.579
  20339653.024   -28033014.10149 -21831723.61948  20339652.172    20339658.155
  22310416.049   -17538648.10549 -13644962.77146  22310415.301    22310422.806
  21727524.786   -19487010.63849 -15173411.10847  21727524.328    21727530.466
  21183477.053   -22271657.67849 -17053354.57347  21183476.435    21183481.094
  21735601.641   -17815505.39549 -13860311.08147  21735600.857    21735606.891
 03  4 11  0  7 30.0000000  0  8G31G14G 9G15G17G 3G18G23
  22839592.282    -9843762.21349  -7655324.51646  22839591.669    22839598.013
  21084733.838   -22172662.83349 -17267963.51947  21084733.203    21084738.267
  23487617.062    -8463622.67649  -6451056.61645  23487616.690    23487624.450
  20343852.226   -28010947.24449 -21814528.66948  20343851.355    20343857.336
  22323649.255   -17469107.20549 -13590775.10546  22323648.559    22323656.090
  21727271.214   -19488343.19749 -15174449.46047  21727270.743    21727276.888
  21192221.512   -22225705.27749 -17017547.51447  21192220.901    21192225.559
  21744381.911   -17769364.79249 -13824357.37547  21744381.138    21744387.161
 03  4 11  0  8  0.0000000  0  8G31G14G 9G15G17G 3G18G23
  22830005.888    -9894139.04749  -7694579.16446  22830005.276    22830011.576
  21071748.691   -22240900.02349 -17321135.30647  21071748.052    21071753.110
  23484097.864    -8482116.79549  -6465467.57845  23484097.418    23484104.875
  20348128.005   -27988477.92949 -21797020.11748  20348127.145    20348133.110
  22336941.158   -17399258.01649 -13536347.19946  22336940.438    22336947.951
  21727125.246   -19489110.10749 -15175047.04947  21727124.755    21727130.906
  21200999.052   -22179578.95249 -16981604.93247  21200998.454    21201003.101
  21753180.562   -17723127.67549 -13788328.46347  21753179.777    21753185.809
 03  4 11  0  8 30.0000000  0  8G31G14G 9G15G17G 3G18G23
  22820518.348    -9943996.27249  -7733428.91246  22820517.745    22820524.004
  21058851.353   -22308675.77249 -17373947.53547  21058850.721    21058855.771
  23480681.900    -8500066.99049  -6479454.69945  23480681.522    23480689.101
  20352480.674   -27965604.50749 -21779196.67348  20352479.811    20352485.778
  22350291.896   -17329099.64149 -13481678.38046  22350291.176    22350298.735
  21727087.120   -19489310.48349 -15175203.18447  21727086.641    21727092.791
  21209809.699   -22133278.77649 -16945526.88747  21209809.105    21209813.751
  21761997.599   -17676793.81149 -13752224.15647  21761996.813    21762002.866
 03  4 11  0  9  0.0000000  0  8G31G14G 9G15G17G 3G18G23
  22811129.842    -9993333.05949  -7771873.13046  22811129.194    22811135.486
  21046041.956   -22375989.28649 -17426399.57747  21046041.319    21046046.383
  23477369.889    -8517472.30449  -6493017.23645  23477369.416    23477377.116
  20356910.195   -27942327.16449 -21761058.48348  20356909.335    20356915.320
  22363701.194   -17258633.41049 -13426769.69346  22363700.462    22363708.018
  21727156.572   -19488945.47149 -15174918.75847  21727156.073    21727162.244
  21218653.103   -22086806.38149 -16909314.63747  21218652.502    21218657.163
  21770832.741   -17630364.80249 -13716045.72347  21770831.947    21770838.015
 03  4 11  0  9 30.0000000  0  8G31G14G 9G15G17G 3G18G23
  22801840.843   -10042146.84849  -7809909.82546  22801840.175    22801846.471
  21033321.074   -22442837.88849 -17478489.35347  21033320.435    21033325.494
  23474161.688    -8534330.28449  -6506153.28045  23474161.316    23474169.038
  20361416.880   -27918644.34749 -21742604.34547  20361416.015    20361421.999
  22377169.280   -17187858.63849 -13371620.58146  22377168.518    22377176.049
  21727333.748   -19488014.37949 -15174193.23347  21727333.260    21727339.419
  21227529.287   -22040161.68349 -16872968.12847  21227528.698    21227533.367
  21779686.008   -17583840.48649 -13679793.01947  21779685.238    21779691.300
 03  4 11  0 10  0.0000000  0  8G31G14G 9G15G17G 3G18G23
  22792651.456   -10090437.18949  -7847538.62746  22792650.786    22792657.060
  21020688.730   -22509220.96349 -17530216.37647  21020688.101    21020693.136
  23471058.200    -8550640.22749  -6518862.30145  23471057.715    23471065.410
  20366000.656   -27894556.32849 -21723834.45947  20365999.802    20366005.779
  22390695.776   -17116776.60449 -13316232.01246  22390695.044    22390702.547
  21727618.374   -19486518.54949 -15173027.65547  21727617.893    21727624.038
  21236437.882   -21993346.75049 -16836488.96447  21236437.280    21236441.943
  21788557.077   -17537222.77049 -13643467.53247  21788556.306    21788562.374
 03  4 11  0 10 30.0000000  0  8G31G14G 9G15G17G 3G18G23
  22783562.143   -10138201.99649  -7884757.92446  22783561.458    22783567.770
  21008145.432   -22575136.24549 -17581578.89147  21008144.814    21008149.828
  23468058.826    -8566400.22949  -6531142.75845  23468058.481    23468066.380
  20370661.731   -27870062.27749 -21704748.18747  20370660.865    20370666.850
  22404280.776   -17045387.14949 -13260603.91646  22404280.059    22404287.567
  21728010.499   -19484457.96549 -15171422.00847  21728010.022    21728016.165
  21245378.831   -21946361.87049 -16799877.38147  21245378.241    21245382.900
  21797445.853   -17490511.88149 -13607069.44947  21797445.103    21797451.177
 03  4 11  0 11  0.0000000  0  8G31G14G 9G15G17G 3G18G23
  22774573.040   -10185439.77149  -7921566.56246  22774572.392    22774578.634
  20995691.391   -22640582.41749 -17632575.86547  20995690.776    20995695.797
  23465164.634    -8581608.93449  -6542993.66145  23465164.415    23465172.101
  20375400.162   -27845161.57949 -21685345.05047  20375399.305    20375405.306
  22417924.209   -16973690.64749 -13204736.56946  22417923.464    22417930.983
  21728510.068   -19481832.57449 -15169376.25247  21728509.606    21728515.744
  21254351.902   -21899208.09649 -16763134.19147  21254351.309    21254355.965
  21806352.227   -17443708.60349 -13570599.37247  21806351.447    21806357.533
 03  4 11  0 11 30.0000000  0  8G31G14G 9G15G17G 3G18G23
  22765684.542   -10232149.26749  -7957963.55146  22765683.875    22765690.104
  20983326.948   -22705557.90749 -17683206.07447  20983326.326    20983331.338
  23462375.786    -8596265.08549  -6554414.00845  23462375.455    23462383.075
  20380216.050   -27819853.82949 -21665624.73247  20380215.191    20380221.184
  22431626.030   -16901687.44849 -13148630.22246  22431625.269    22431632.809
  21729117.022   -19478643.06149 -15166890.92447  21729116.546    21729122.679
  21263356.904   -21851886.45049 -16726260.18747  21263356.295    21263360.971
  21815276.031   -17396813.84049 -13534058.00947  21815275.259    21815281.349
 03  4 11  0 12  0.0000000  0  8G31G14G 9G15G17G 3G18G23
  22756896.710   -10278329.44349  -7993948.06646  22756896.059    22756902.269
  20971052.253   -22770061.74749 -17733468.75947  20971051.623    20971056.626
  23459692.057    -8610367.67249  -6565402.99245  23459691.784    23459699.365
  20385109.397   -27794139.14249 -21645587.32047  20385108.523    20385114.526
  22445385.918   -16829378.94349 -13092285.97946  22445385.154    22445392.738
  21729831.180   -19474890.16049 -15163966.59447  21729830.721    21729836.860
  21272393.575   -21804398.43149 -16689256.53847  21272392.979    21272397.639
  21824216.976   -17349828.82149 -13497446.31347  21824216.219    21824222.296
 03  4 11  0 12 30.0000000  0  8G31G14G 9G15G17G 3G18G23
  22748210.141   -10323977.57849  -8029518.02146  22748209.522    22748215.641
  20958867.843   -22834091.03949 -17783361.66947  20958867.218    20958872.213
  23457113.982    -8623913.88149  -6575958.44445  23457113.888    23457121.654
  20390080.535   -27768015.76649 -21625231.44647  20390079.662    20390085.665
  22459204.082   -16756763.99849 -13035702.96846  22459203.357    22459210.937
  21730652.669   -19470573.25549 -15160602.78547  21730652.202    21730658.348
  21281462.017   -21756743.56249 -16652122.88547  21281461.411    21281466.091
  21833175.163   -17302753.13849 -13460763.97247  21833174.418    21833180.492
 03  4 11  0 13  0.0000000  0  8G31G14G 9G15G17G 3G18G23
  22739625.014   -10369092.69949  -8064672.63146  22739624.366    22739630.493
  20946773.958   -22897644.60949 -17832883.88947  20946773.341    20946778.313
  23454642.552    -8636902.70149  -6586079.56745  23454642.239    23454649.933
  20395129.470   -27741483.43249 -21604556.90247  20395128.596    20395134.594
  22473080.465   -16683843.15349 -12978881.59046  22473079.750    22473087.346
  21731581.302   -19465693.30149 -15156800.23447  21731580.840    21731586.960
  21290561.888   -21708923.31249 -16614860.35947  21290561.281    21290565.959
  21842150.376   -17255588.13549 -13424012.03147  21842149.644    21842155.722
 03  4 11  0 13 30.0000000  0  8G31G14G 9G15G17G 3G18G23
  22731141.351   -10413674.61649  -8099411.75946  22731140.669    22731146.807
  20934770.639   -22960722.26949 -17882035.26947  20934770.020    20934774.993
  23452276.933    -8649334.10149  -6595766.33745  23452276.477    23452284.031
  20400256.070   -27714542.95049 -21583564.32147  20400255.177    20400261.181
  22487014.780   -16610618.26449 -12921823.27846  22487013.984    22487021.663
  21732616.712   -19460252.09049 -15152560.33847  21732616.253    21732622.389
  21299692.831   -21660939.79649 -16577470.61747  21299692.250    21299696.928
  21851142.209   -17208335.71549 -13387191.97447  21851141.489    21851147.570
 03  4 11  0 14  0.0000000  0  8G31G14G 9G15G17G 3G18G23
  22722759.554   -10457720.95049  -8133733.54746  22722758.892    22722765.039
  20922858.343   -23023321.61249 -17930813.93047  20922857.727    20922862.688
  23450017.809    -8661205.88049  -6605017.04345  23450017.331    23450024.787
  20405460.621   -27687192.73949 -21562252.46747  20405459.754    20405465.727
  22501007.053   -16537088.59849 -12864527.49046  22501006.248    22501013.929
  21733759.043   -19454249.08349 -15147882.67647  21733758.572    21733764.700
  21308854.894   -21612792.90949 -16539953.56847  21308854.327    21308858.998
  21860150.719   -17160995.61449 -13350303.59447  21860149.963    21860156.076
 03  4 11  0 14 30.0000000  0  8G31G14G 9G15G17G 3G18G23
  22714479.906   -10501230.65249  -8167637.17446  22714479.243    22714485.389
  20911037.356   -23085441.25649 -17979218.80347  20911036.731    20911041.683
  23447865.260    -8672516.90849  -6613830.80145  23447864.831    23447872.356
  20410743.262   -27659432.31649 -21540620.97347  20410742.407    20410748.392
  22515057.153   -16463254.81649 -12806994.74246  22515056.411    22515064.103
  21735008.199   -19447684.72649 -15142767.59747  21735007.737    21735013.892
  21318047.825   -21564483.74249 -16502310.07147  21318047.263    21318051.941
  21869175.744   -17113568.79649 -13313347.64147  21869174.995    21869181.105
 03  4 11  0 15  0.0000000  0  8G31G14G 9G15G17G 3G18G23
  22706302.723   -10544201.93049  -8201121.26246  22706302.054    22706308.153
  20899307.945   -23147079.37249 -18027248.45847  20899307.321    20899312.265
  23445819.913    -8683265.57949  -6622206.34545  23445819.367    23445827.008
  20416104.099   -27631260.88449 -21518669.21547  20416103.226    20416109.209
  22529165.146   -16389117.04349 -12749225.11346  22529164.354    22529172.110
  21736364.087   -19440559.63949 -15137215.58847  21736363.639    21736369.782
  21327271.523   -21516012.97649 -16464540.65247  21327270.947    21327275.628
  21878217.222   -17066055.59249 -13276324.37647  21878216.486    21878222.584
 03  4 11  0 15 30.0000000  0  8G31G14G 9G15G17G 3G18G23
  22698228.225   -10586633.63249  -8234184.89546  22698227.534    22698233.645
  20887670.427   -23208234.76249 -18074901.96647  20887669.797    20887674.734
  23443881.733    -8693450.62049  -6630142.73245  23443881.218    23443888.874
  20421543.157   -27602678.55849 -21496397.27847  20421542.300    20421548.288
  22543330.833   -16314676.09749 -12691219.22746  22543330.047    22543337.822
  21737826.549   -19432874.36649 -15131227.07347  21737826.096    21737832.224
  21336525.705   -21467381.88549 -16426646.30547  21336525.111    21336529.826
  21887274.944   -17018457.01349 -13239234.57847  21887274.205    21887280.306
 03  4 11  0 16  0.0000000  0  8G31G14G 9G15G17G 3G18G23
  22690256.594   -10628524.60449  -8266827.18446  22690255.932    22690262.019
  20876125.010   -23268906.07149 -18122178.26347  20876124.380    20876129.309
  23442051.007    -8703071.12549  -6637639.17945  23442050.457    23442057.929
  20427060.446   -27573685.00549 -21473804.90847  20427059.571    20427065.546
  22557554.093   -16239932.65649 -12632977.64846  22557553.301    22557561.121
  21739395.426   -19424629.72749 -15124802.68147  21739394.970    21739401.111
  21345810.271   -21418591.03149 -16388627.46347  21345809.683    21345814.388
  21896348.756   -16970773.79949 -13202078.84347  21896347.994    21896354.119
 03  4 11  0 16 30.0000000  0  8G31G14G 9G15G17G 3G18G23
  22682388.176   -10669873.36149  -8299046.97046  22682387.520    22682393.602
  20864672.008   -23329091.87049 -18169076.24147  20864671.369    20864676.292
  23440328.191    -8712125.58349  -6644694.59545  23440327.469    23440334.815
  20432656.086   -27544279.70349 -21450891.68947  20432655.217    20432661.185
  22571834.889   -16164886.64749 -12574500.29546  22571834.075    22571841.937
  21741070.725   -19415826.13149 -15117942.73647  21741070.260    21741076.388
  21355125.136   -21369641.23649 -16350484.76947  21355124.545    21355129.263
  21905438.550   -16923006.56049 -13164857.62247  21905437.811    21905443.943
 03  4 11  0 17  0.0000000  0  8G31G14G 9G15G17G 3G18G23
  22674623.032   -10710679.37049  -8330843.83046  22674622.386    22674628.464
  20853311.499   -23388791.40849 -18215595.31847  20853310.893    20853315.786
  23438713.155    -8720613.41649  -6651308.46445  23438712.268    23438719.634
  20438330.097   -27514462.71849 -21427657.67847  20438329.219    20438335.190
  22586173.021   -16089539.38349 -12515788.19246  22586172.238    22586180.085
  21742852.114   -19406464.89949 -15110648.27047  21742851.637    21742857.779
  21364469.911   -21320534.08249 -16312219.46347  21364469.316    21364474.059
  21914544.115   -16875156.60349 -13127571.94947  21914543.347    21914549.481
 03  4 11  0 17 30.0000000  0  8G31G14G 9G15G17G 3G18G23
  22666961.599   -10750940.33849  -8362215.99246  22666960.960    22666966.990
  20842044.060   -23448002.03949 -18261733.42847  20842043.444    20842048.356
  23437205.488    -8728532.32249  -6657479.00445  23437205.211    23437212.615
  20444082.694   -27484232.55649 -21404101.71147  20444081.837    20444087.813
  22600568.573   -16013890.28349 -12456840.90446  22600567.833    22600575.627
  21744739.648   -19396545.71149 -15102919.03647  21744739.170    21744745.326
  21373844.660   -21271269.43749 -16273831.43747  21373844.046    21373848.790
  21923665.420   -16827223.68349 -13090221.63247  21923664.683    21923670.811
 03  4 11  0 18  0.0000000  0  8G31G14G 9G15G17G 3G18G23
  22659403.997   -10790655.79449  -8393163.06846  22659403.352    22659409.389
  20830869.726   -23506723.40349 -18307490.29347  20830869.100    20830873.993
  23435807.341    -8735882.03749  -6663206.04645  23435806.678    23435814.118
  20449913.826   -27453589.60449 -21380224.08947  20449912.980    20449918.959
  22615021.401   -15937940.47249 -12397659.28046  22615020.627    22615028.483
  21746733.151   -19386069.71449 -15094755.92947  21746732.680    21746738.830
  21383249.089   -21221848.83349 -16235321.88447  21383248.505    21383253.229
  21932802.300   -16779209.20749 -13052807.76747  21932801.547    21932807.651
 03  4 11  0 18 30.0000000  0  8G31G14G 9G15G17G 3G18G23
  22651950.316   -10829825.06649  -8423684.54646  22651949.642    22651955.704
  20819788.670   -23564954.67449 -18352865.26647  20819788.041    20819792.922
  23434517.362    -8742661.96949  -6668489.09045  23434516.572    23434523.988
  20455823.549   -27422533.89749 -21356024.84147  20455822.709    20455828.681
  22629531.181   -15861691.34349 -12338244.43646  22629530.393    22629538.236
  21748832.380   -19375038.34049 -15086160.05547  21748831.907    21748838.057
  21392682.918   -21172273.70049 -16196691.92147  21392682.344    21392687.069
  21941954.479   -16731114.23549 -13015331.17247  21941953.721    21941959.857
 03  4 11  0 19  0.0000000  0  8G31G14G 9G15G17G 3G18G23
  22644600.932   -10868446.18549  -8453778.90446  22644600.250    22644606.284
  20808801.248   -23622693.67449 -18397856.65447  20808800.617    20808805.491
  23433335.767    -8748870.40049  -6673326.81745  23433335.209    23433342.608
  20461811.993   -27391064.39849 -21331503.15847  20461811.143    20461817.122
  22644098.009   -15785142.28649 -12278595.87746  22644097.208    22644105.086
  21751037.283   -19363451.46049 -15077131.31647  21751036.830    21751042.966
  21402146.172   -21122544.05249 -16157941.55547  21402145.583    21402150.307
  21951121.973   -16682938.69849 -12977791.80447  21951121.195    21951127.339
 03  4 11  0 19 30.0000000  0  8G31G14G 9G15G17G 3G18G23
  22637356.189   -10906517.51549  -8483444.83846  22637355.495    22637361.576
  20797907.868   -23679938.73749 -18442463.15447  20797907.239    20797912.106
  23432263.034    -8754505.83249  -6677718.03445  23432262.812    23432270.228
  20467879.356   -27359180.19149 -21306658.32947  20467878.512    20467884.503
  22658721.876   -15708293.39549 -12218713.67546  22658721.103    22658728.964
  21753347.757   -19351309.70149 -15067670.21147  21753347.301    21753353.443
  21411638.746   -21072660.36349 -16119071.16247  21411638.151    21411642.878
  21960304.763   -16634682.80049 -12940189.81647  21960304.008    21960310.150
 03  4 11  0 20  0.0000000  0  8G31G14G 9G15G17G 3G18G23
  22630216.187   -10944038.26949  -8512681.76746  22630215.498    22630221.584
  20787108.637   -23736688.84849 -18486683.97947  20787108.015    20787112.873
  23431299.691    -8759567.26549  -6681661.98345  23431299.689    23431307.218
  20474025.622   -27326881.26049 -21281490.33547  20474024.778    20474030.766
  22673402.598   -15631145.82549 -12158598.74346  22673401.870    22673409.736
  21755763.669   -19338613.99249 -15057777.45147  21755763.238    21755769.362
  21421160.430   -21022623.55449 -16080081.44947  21421159.830    21421164.548
  21969502.706   -16586347.51449 -12902525.96747  21969501.940    21969508.072
 03  4 11  0 20 30.0000000  0  8G31G14G 9G15G17G 3G18G23
  22623181.042   -10981007.85049  -8541489.19446  22623180.359    22623186.463
  20776403.716   -23792943.34849 -18530518.61447  20776403.096    20776407.938
  23430446.092    -8764054.34249  -6685158.39745  23430445.890    23430453.249
  20480250.770   -27294167.86449 -21255999.38647  20480249.918    20480255.913
  22688139.956   -15553700.65049 -12098251.89646  22688139.288    22688147.186
  21758284.749   -19325365.63449 -15047454.06147  21758284.303    21758290.425
  21430711.008   -20972434.95149 -16040973.45747  21430710.418    21430715.156
  21978715.480   -16537934.09149 -12864801.23247  21978714.692    21978720.835
 03  4 11  0 21  0.0000000  0  8G31G14G 9G15G17G 3G18G23
  22616251.050   -11017425.04749  -8569866.21246  22616250.366    22616256.457
  20765793.443   -23848700.67749 -18573965.84547  20765792.811    20765797.626
  23429701.570    -8767966.01549  -6688206.45645  23429701.534    23429709.000
  20486554.896   -27261039.56449 -21230185.13547  20486554.044    20486560.028
  22702933.971   -15475957.87049 -12037673.15846  22702933.286    22702941.195
  21760910.890   -19311565.27149 -15036700.53547  21760910.425    21760916.566
  21440290.245   -20922095.57849 -16001747.98447  21440289.686    21440294.411
  21987943.049   -16489442.84749 -12827015.86247  21987942.274    21987948.425
 03  4 11  0 21 30.0000000  0  8G31G14G 9G15G17G 3G18G23
  22609426.339   -11053289.02149  -8597812.13946  22609425.651    22609431.739
  20755277.900   -23903960.14349 -18617025.13147  20755277.261    20755282.068
  23429066.985    -8771301.24849  -6690805.31445  23429066.915    23429074.241
  20492937.988   -27227496.25649 -21204047.50047  20492937.125    20492943.127
  22717784.424   -15397918.48449 -11976863.29146  22717783.666    22717791.564
  21763641.835   -19297213.97049 -15025517.70447  21763641.384    21763647.520
  21449898.070   -20871606.25849 -15962405.67047  21449897.495    21449902.210
  21997185.270   -16440874.65649 -12789170.53147  21997184.486    21997190.638
 03  4 11  0 22  0.0000000  0  8G31G14G 9G15G17G 3G18G23
  22602707.197   -11088598.20349  -8625325.76146  22602706.522    22602712.606
  20744857.479   -23958719.68349 -18659694.86347  20744856.845    20744861.636
  23428541.891    -8774059.00149  -6692954.19545  23428542.057    23428549.340
  20499400.201   -27193537.01549 -21177585.76547  20499399.341    20499405.328
  22732691.279   -15319582.75649 -11915822.52546  22732690.486    22732698.446
  21766477.558   -19282312.25349 -15013905.98347  21766477.101    21766483.221
  21459534.364   -20820967.16449 -15922946.65147  21459533.794    21459538.522
  22006442.099   -16392229.74549 -12751265.42047  22006441.318    22006447.464
 03  4 11  0 22 30.0000000  0  8G31G14G 9G15G17G 3G18G23
  22596093.751   -11123351.99349  -8652406.61346  22596093.050    22596099.086
  20734532.311   -24012978.68549 -18701974.56547  20734531.683    20734536.437
  23428127.683    -8776238.61249  -6694652.55645  23428127.355    23428134.667
  20505941.565   -27159161.94949 -21150800.01147  20505940.713    20505946.702
  22747654.225   -15240952.01749 -11854551.86645  22747653.407    22747661.404
  21769417.749   -19266861.48449 -15001866.42547  21769417.296    21769423.428
  21469198.862   -20770179.79349 -15883372.08847  21469198.303    21469203.043
  22015713.331   -16343509.10949 -12713301.29947  22015712.569    22015718.716
 03  4 11  0 23  0.0000000  0  8G31G14G 9G15G17G 3G18G23
  22589586.172   -11157549.49249  -8679053.98746  22589585.456    22589591.515
  20724302.566   -24066736.16449 -18743863.47747  20724301.924    20724306.681
  23427823.094    -8777839.40749  -6695899.92245  23427822.606    23427829.922
  20512562.066   -27124370.93649 -21123690.14347  20512561.199    20512567.216
  22762673.336   -15162026.22849 -11793051.31045  22762672.550    22762680.556
  21772462.311   -19250862.42549 -14989399.63247  21772461.838    21772467.939
  21478891.461   -20719244.85749 -15843682.53447  21478890.893    21478895.646
  22024998.881   -16294713.39749 -12675278.68047  22024998.101    22025004.225
 03  4 11  0 23 30.0000000  0  8G31G14G 9G15G17G 3G18G23
  22583184.704   -11191189.17849  -8705266.71246  22583184.017    22583190.089
  20714168.609   -24119990.40949 -18785360.25447  20714167.980    20714172.704
  23427628.962    -8778860.07149  -6696695.22745  23427628.341    23427635.653
  20519261.893   -27089163.24449 -21096255.58647  20519261.011    20519267.016
  22777748.550   -15082805.69549 -11731321.08145  22777747.753    22777755.787
  21775611.019   -19234315.70649 -14976506.08447  21775610.539    21775616.663
  21488612.049   -20668162.65349 -15803878.23447  21488611.524    21488616.274
  22034298.578   -16245842.82849 -12637197.73047  22034297.863    22034304.006
 03  4 11  0 24  0.0000000  0  8G31G14G 9G15G17G 3G18G23
  22576889.631   -11224269.95449  -8731043.91346  22576888.955    22576894.989
  20704130.635   -24172740.06049 -18826463.84447  20704129.999    20704134.718
  23427545.105    -8779299.44149  -6697037.57845  23427544.639    23427552.164
  20526041.060   -27053538.40549 -21068495.98147  20526040.188    20526046.198
  22792879.684   -15003291.06049 -11669361.68245  22792878.948    22792886.963
  21778863.810   -19217222.27049 -14963186.53247  21778863.327    21778869.416
  21498360.641   -20616933.81349 -15763959.67547  21498360.065    21498364.827
  22043612.590   -16196897.64549 -12599058.64347  22043611.825    22043617.962
 03  4 11  0 24 30.0000000  0  8G31G14G 9G15G17G 3G18G23
  22570701.045   -11256790.96149  -8756384.93946  22570700.379    22570706.368
  20694188.836   -24224984.41549 -18867173.69747  20694188.192    20694192.911
  23427571.750    -8779156.84849  -6696926.45445  23427571.799    23427579.328
  20532899.706   -27017496.12949 -21040411.09547  20532898.840    20532904.836
  22808066.752   -14923482.91049 -11607173.56445  22808065.974    22808073.975
  21782220.423   -19199583.07149 -14949441.70347  21782219.953    21782226.054
  21508136.976   -20565559.08849 -15723927.43747  21508136.367    21508141.120
  22052940.641   -16147878.62149 -12560862.01247  22052939.847    22052946.004
 03  4 11  0 25  0.0000000  0  8G31G14G 9G15G17G 3G18G23
  22564619.167   -11288751.43849  -8781289.18446  22564618.520    22564624.478
  20684343.443   -24276722.17549 -18907488.79847  20684342.818    20684347.526
  23427709.488    -8778431.37349  -6696361.11545  23427709.874    23427717.236
  20539837.787   -26981036.36249 -21012000.89647  20539836.917    20539842.918
  22823309.471   -14843382.29849 -11544757.57045  22823308.692    22823316.653
  21785680.702   -19181399.19349 -14935272.45347  21785680.227    21785686.325
  21517940.781   -20514039.39949 -15683782.23947  21517940.220    21517944.992
  22062282.556   -16098786.39149 -12522608.34347  22062281.820    22062287.963
 03  4 11  0 25 30.0000000  0  8G31G14G 9G15G17G 3G18G23
  22558644.012   -11320150.92449  -8805756.30146  22558643.376    22558649.340
  20674594.537   -24327952.77549 -18947408.71247  20674593.907    20674598.595
  23427958.835    -8777122.99449  -6695341.57345  23427958.772    23427966.165
  20546855.195   -26944159.64749 -20983265.80247  20546854.329    20546860.324
  22838607.659   -14762990.06249 -11482114.31945  22838606.891    22838614.829
  21789244.361   -19162672.08049 -14920679.90047  21789243.890    21789249.973
  21527772.072   -20462375.95449 -15643525.02347  21527771.474    21527776.219
  22071638.243   -16049622.04549 -12484298.47947  22071637.463    22071643.609
 03  4 11  0 26  0.0000000  0  8G31G14G 9G15G17G 3G18G23
  22552775.688   -11350989.23949  -8829786.13646  22552775.079    22552781.019
  20664942.236   -24378675.90449 -18986933.19547  20664941.609    20664946.292
  23428318.577    -8775231.69249  -6693867.82345  23428318.583    23428326.066
  20553951.904   -26906866.16749 -20954205.95947  20553951.036    20553957.047
  22853961.206   -14682306.95349 -11419244.42045  22853960.422    22853968.325
  21792911.034   -19143403.55249 -14905665.46847  21792910.572    21792916.650
  21537630.386   -20410570.26849 -15603156.97647  21537629.779    21537634.541
  22081007.362   -16000386.81949 -12445933.38747  22081006.627    22081012.778
 03  4 11  0 26 30.0000000  0  8G31G14G 9G15G17G 3G18G23
  22547014.463   -11381264.53749  -8853377.26046  22547013.867    22547019.796
  20655386.871   -24428889.45849 -19026060.60547  20655386.244    20655390.917
  23428789.662    -8772755.68149  -6691938.44345  23428789.607    23428797.203
  20561128.204   -26869154.56749 -20924820.30647  20561127.328    20561133.327
  22869370.011   -14601333.33449 -11356148.14345  22869369.295    22869377.177
  21796680.773   -19123593.60149 -14890229.14447  21796680.302    21796686.389
  21547515.777   -20358621.95149 -15562677.78547  21547515.216    21547519.990
  22090390.069   -15951080.07649 -12407512.56247  22090389.402    22090395.573
 03  4 11  0 27  0.0000000  0  8G31G14G 9G15G17G 3G18G23
  22541360.503   -11410976.29549  -8876529.26846  22541359.862    22541365.804
  20645928.601   -24478592.89049 -19064790.52047  20645927.971    20645932.627
  23429372.636    -8769694.85449  -6689553.34245  23429371.983    23429379.470
  20568383.995   -26831025.09049 -20895109.04047  20568383.115    20568389.117
  22884833.849   -14520070.41249 -11292826.43945  22884833.150    22884841.052
  21800553.229   -19103243.67149 -14874372.06247  21800552.751    21800558.834
  21557428.214   -20306532.02149 -15522088.24247  21557427.623    21557432.365
  22099786.301   -15901702.74849 -12369036.73947  22099785.607    22099791.788
 03  4 11  0 27 30.0000000  0  8G31G14G 9G15G17G 3G18G23
  22535813.933   -11440123.49849  -8899241.35346  22535813.281    22535819.193
  20636567.646   -24527784.93549 -19103121.94847  20636567.002    20636571.654
  23430066.237    -8766048.17449  -6686711.76345  23430065.723    23430073.247
  20575719.399   -26792477.30549 -20865071.81447  20575718.507    20575724.523
  22900352.856   -14438517.82349 -11229279.04145  22900352.127    22900360.048
  21804528.214   -19082354.88949 -14858095.09147  21804527.769    21804533.837
  21567367.477   -20254301.13349 -15481388.86647  21567366.843    21567371.592
  22109196.004   -15852255.09849 -12330506.11147  22109195.203    22109201.379
 03  4 11  0 28  0.0000000  0  8G31G14G 9G15G17G 3G18G23
  22530375.120   -11468704.79649  -8921512.47546  22530374.427    22530380.387
  20627304.316   -24576463.97749 -19141053.63747  20627303.665    20627308.302
  23430871.454    -8761814.61749  -6683412.86245  23430871.415    23430878.779
  20583134.537   -26753510.57649 -20834708.14047  20583133.653    20583139.678
  22915926.782   -14356676.54949 -11165506.68045  22915926.025    22915934.005
  21808605.634   -19060927.91249 -14841398.75347  21808605.177    21808611.259
  21577333.509   -20201929.28349 -15440579.64447  21577332.883    21577337.635
  22118618.913   -15802737.09849 -12291920.67447  22118618.149    22118624.329
 03  4 11  0 28 30.0000000  0  8G31G14G 9G15G17G 3G18G23
  22525043.859   -11496720.70449  -8943343.03946  22525043.127    22525049.081
  20618138.542   -24624630.30649 -19178585.80947  20618137.900    20618142.511
  23431789.080    -8756994.61649  -6679656.97945  23431788.761    23431796.054
  20590629.181   -26714125.97949 -20804018.85447  20590628.295    20590634.332
  22931555.375   -14274547.97849 -11101510.45445  22931554.665    22931562.561
  21812785.081   -19038964.86149 -14824284.69147  21812784.614    21812790.703
  21587325.935   -20149418.58549 -15399662.23247  21587325.365    21587330.112
  22128054.893   -15753150.57249 -12253281.83747  22128054.187    22128060.365
 03  4 11  0 29  0.0000000  0  8G31G14G 9G15G17G 3G18G23
  22519820.361   -11524170.30849  -8964732.31846  22519819.644    22519825.613
  20609070.539   -24672282.94249 -19215717.70047  20609069.888    20609074.491
  23432818.022    -8751587.43649  -6675443.58145  23432817.648    23432825.040
  20598203.393   -26674323.30749 -20773003.80247  20598202.501    20598208.534
  22947238.504   -14192132.92149 -11037290.98745  22947237.769    22947245.796
  21817066.330   -19016466.73249 -14806753.68947  21817065.860    21817071.967
  21597344.772   -20096769.52349 -15358637.00447  21597344.150    21597348.901
  22137503.891   -15703495.78349 -12214589.80747  22137503.215    22137509.372
 03  4 11  0 29 30.0000000  0  8G31G14G 9G15G17G 3G18G23
  22514704.825   -11551052.35149  -8985679.34646  22514704.135    22514710.123
  20600100.542   -24719420.49549 -19252448.22647  20600099.888    20600104.477
  23433958.686    -8745592.13249  -6670771.89345  23433958.438    23433966.040
  20605857.269   -26634101.83549 -20741662.40847  20605856.392    20605862.429
  22962976.094   -14109431.53649 -10972848.41245  22962975.294    22962983.315
  21821449.259   -18993434.25249 -14788806.30947  21821448.775    21821454.873
  21607389.928   -20043982.20249 -15317504.03747  21607389.276    21607394.010
  22146965.928   -15653772.57249 -12175844.46047  22146965.225    22146971.393
 03  4 11  0 30  0.0000000  0  8G31G14G 9G15G17G 3G18G23
  22509697.431   -11577366.29749  -9006183.70246  22509696.781    22509702.741
  20591228.727   -24766041.99549 -19288776.63347  20591228.080    20591232.651
  23435211.405    -8739008.39949  -6665641.70945  23435211.271    23435218.887
  20613590.889   -26593461.42149 -20709994.56547  20613590.019    20613596.060
  22978767.975   -14026444.79349 -10908183.49345  22978767.161    22978775.274
  21825933.618   -18969868.81049 -14770443.63247  21825933.111    21825939.233
  21617461.196   -19991057.31749 -15276263.88447  21617460.553    21617465.282
  22156440.892   -15603981.49749 -12137046.23447  22156440.156    22156446.319
 03  4 11  0 30 30.0000000  0  8G31G14G 9G15G17G 3G18G23
  22504798.297   -11603111.54749  -9026244.91746  22504797.583    22504803.565
  20582455.277   -24812146.61049 -19324702.27547  20582454.623    20582459.201
  23436576.800    -8731835.79049  -6660052.63445  23436576.215    23436583.561
  20621404.223   -26552401.99249 -20678000.21747  20621403.359    20621409.408
  22994614.018   -13943173.64749 -10843296.95045  22994613.181    22994621.342
  21830519.135   -18945771.91549 -14751666.84147  21830518.616    21830524.731
  21627558.484   -19937995.83849 -15234917.28247  21627557.843    21627562.574
  22165928.592   -15554123.38349 -12098195.76547  22165927.828    22165934.002
 03  4 11  0 31  0.0000000  0  8G31G14G 9G15G17G 3G18G23
  22500007.330   -11628287.92749  -9045862.84946  22500006.669    22500012.616
  20573780.204   -24857734.32949 -19360225.13847  20573779.569    20573784.138
  23438054.096    -8724074.17249  -6654004.59245  23438053.384    23438060.488
  20629297.242   -26510923.99849 -20645679.71347  20629296.365    20629302.443
  23010513.942   -13859619.10749 -10778189.56845  23010513.123    23010521.320
  21835205.455   -18921145.17649 -14732477.17947  21835204.932    21835211.056
  21637681.581   -19884798.68649 -15193464.96647  21637680.925    21637685.652
  22175428.912   -15504199.19449 -12059293.80947  22175428.131    22175434.310
 03  4 11  0 31 30.0000000  0  8G31G14G 9G15G17G 3G18G23
  22495324.893   -11652894.40349  -9065036.71146  22495324.211    22495330.132
  20565203.804   -24902803.44049 -19395343.89547  20565203.166    20565207.723
  23439643.036    -8715722.79049  -6647497.01845  23439642.493    23439649.733
  20637269.990   -26469026.99749 -20613032.71447  20637269.096    20637275.169
  23026467.803   -13775781.19949 -10712861.40145  23026466.948    23026475.193
  21839992.409   -18895989.34149 -14712875.24047  21839991.918    21839998.056
  21647830.439   -19831466.05449 -15151907.08647  21647829.809    21647834.514
  22184941.820   -15454208.69449 -12020340.18547  22184940.995    22184947.195
 03  4 11  0 32  0.0000000  0  8G31G14G 9G15G17G 3G18G23
  22490751.160   -11676929.50249  -9083765.34746  22490750.488    22490756.428
  20556726.325   -24947352.65949 -19430057.54047  20556725.695    20556730.252
  23441344.366    -8706780.36849  -6640528.91645  23441344.005    23441351.736
  20645322.586   -26426710.35049 -20580058.72247  20645321.701    20645327.769
  23042475.559   -13691660.11649 -10647312.58045  23042474.727    23042482.923
  21844879.993   -18870304.98149 -14692861.45947  21844879.504    21844885.658
  21658005.057   -19777998.10749 -15110243.75747  21658004.465    21658009.154
  22194467.345   -15404151.66049 -11981334.70747  22194466.550    22194472.733
 03  4 11  0 32 30.0000000  0  8G31G14G 9G15G17G 3G18G23
  22486285.912   -11700394.33649  -9102049.61446  22486285.249    22486291.167
  20548347.700   -24991382.62849 -19464366.57247  20548347.065    20548351.618
  23443158.672    -8697248.13749  -6633101.18945  23443158.059    23443165.743
  20653454.791   -26383975.35249 -20546758.74147  20653453.891    20653459.974
  23058536.774   -13607258.15549 -10581544.87845  23058535.908    23058544.098
  21849867.556   -18844095.25849 -14672438.30747  21849867.032    21849873.215
  21668205.014   -19724396.92249 -15068476.61147  21668204.424    21668209.145
  22204005.202   -15354030.05349 -11942278.92347  22204004.388    22204010.591
 03  4 11  0 33  0.0000000  0  8G31G14G 9G15G17G 3G18G23
  22481929.308   -11723288.49249  -9119889.19546  22481928.645    22481934.546
  20540067.978   -25034892.73449 -19498270.51948  20540067.347    20540071.882
  23445085.389    -8687126.00949  -6625213.77345  23445084.366    23445091.627
  20661666.610   -26340822.09549 -20513132.84147  20661665.726    20661671.806
  23074651.228   -13522576.26149 -10515559.04745  23074650.372    23074658.629
  21854954.804   -18817361.59249 -14651606.89047  21854954.280    21854960.448
  21678430.205   -19670663.25849 -15026606.22947  21678429.606    21678434.332
  22213555.184   -15303844.54549 -11903173.34447  22213554.366    22213560.566
 03  4 11  0 33 30.0000000  0  8G31G14G 9G15G17G 3G18G23
  22477681.568   -11745610.51649  -9137282.96046  22477680.885    22477686.754
  20531887.502   -25077881.17449 -19531767.96948  20531886.881    20531891.402
  23447123.713    -8676412.56249  -6616865.62545  23447122.965    23447130.297
  20669958.137   -26297249.79349 -20479180.40547  20669957.246    20669963.330
  23090818.923   -13437614.48449 -10449355.13945  23090818.149    23090826.382
  21860141.694   -18790104.40049 -14630367.52447  21860141.199    21860147.351
  21688680.598   -19616796.95949 -14984632.50547  21688680.039    21688684.745
  22223117.457   -15253594.56149 -11864017.52447  22223116.656    22223122.830
 03  4 11  0 34  0.0000000  0  8G31G14G 9G15G17G 3G18G23
  22473542.990   -11767358.73049  -9154229.59646  22473542.330    22473548.213
  20523806.661   -25120346.23649 -19564857.59748  20523806.035    20523810.556
  23449274.745    -8665106.49249  -6608055.69745  23449274.345    23449281.959
  20678329.692   -26253257.05849 -20444900.36247  20678328.801    20678334.878
  23107040.001   -13352372.50749 -10382932.88845  23107039.240    23107047.458
  21865428.157   -18762323.80749 -14608720.31547  21865427.659    21865433.837
  21698956.308   -19562797.54349 -14942555.04347  21698955.775    21698960.497
  22232692.169   -15203279.27249 -11824810.81747  22232691.368    22232697.536
 03  4 11  0 34 30.0000000  0  8G31G14G 9G15G17G 3G18G23
  22469513.339   -11788534.79049  -9170730.40546  22469512.660    22469518.535
  20515825.123   -25162289.44749 -19597540.58948  20515824.490    20515829.002
  23451539.091    -8653209.60749  -6598785.36145  23451538.397    23451545.964
  20686780.860   -26208845.98649 -20410294.34247  20686779.960    20686786.028
  23123313.857   -13266853.10949 -10316294.46545  23123313.164    23123321.363
  21870813.517   -18734023.61149 -14586668.21747  21870813.021    21870819.195
  21709256.881   -19508667.66349 -14900375.93047  21709256.355    21709261.094
  22242278.734   -15152901.29449 -11785555.25947  22242277.981    22242284.141
 03  4 11  0 35  0.0000000  0  8G31G14G 9G15G17G 3G18G23
  22465592.647   -11809137.96549  -9186784.80246  22465591.934    22465597.860
  20507943.111   -25203709.52749 -19629815.94348  20507942.477    20507946.995
  23453915.383    -8640721.17449  -6589054.09945  23453914.822    23453922.165
  20695311.654   -26164016.36349 -20375362.18447  20695310.764    20695316.839
  23139640.331   -13181056.99249 -10249440.41845  23139639.621    23139647.865
  21876297.492   -18705205.03349 -14564212.18847  21876297.015    21876303.173
  21719582.322   -19454407.35249 -14858095.18047  21719581.747    21719586.492
  22251877.221   -15102460.70449 -11746250.91347  22251876.497    22251882.661
 03  4 11  0 35 30.0000000  0  8G31G14G 9G15G17G 3G18G23
  22461781.294   -11829166.65649  -9202391.55146  22461780.613    22461786.503
  20500160.988   -25244604.69149 -19661682.27548  20500160.354    20500164.861
  23456404.334    -8627640.10849  -6578861.05645  23456403.969    23456411.275
  20703922.355   -26118766.95949 -20340102.91747  20703921.464    20703927.546
  23156019.577   -13094983.78849 -10182370.45145  23156018.881    23156027.097
  21881880.157   -18675867.94849 -14541352.12247  21881879.650    21881885.836
  21729932.610   -19400016.22049 -14815712.49147  21729932.031    21729936.760
  22261487.820   -15051956.71949 -11706897.17647  22261487.063    22261493.241
 03  4 11  0 36  0.0000000  0  8G31G14G 9G15G17G 3G18G23
  22458079.084   -11848621.69349  -9217551.29946  22458078.406    22458084.323
  20492478.640   -25284975.57649 -19693140.07348  20492478.013    20492482.516
  23459006.258    -8613967.36749  -6568206.94445  23459005.908    23459013.191
  20712612.660   -26073099.00949 -20304517.50947  20712611.777    20712617.876
  23172451.158   -13008635.62349 -10115086.23245  23172450.496    23172458.655
  21887560.977   -18646014.98949 -14518090.08447  21887560.497    21887566.680
  21740307.440   -19345496.26949 -14773229.42747  21740306.829    21740311.590
  22271110.219   -15001390.95549 -11667495.29647  22271109.432    22271115.610
 03  4 11  0 36 30.0000000  0  8G31G14G 9G15G17G 3G18G23
  22454486.289   -11867501.84349  -9232263.08846  22454485.633    22454491.564
  20484896.370   -25324820.61149 -19724188.12548  20484895.732    20484900.213
  23461720.814    -8599701.99549  -6557091.06245  23461720.419    23461727.812
  20721382.794   -26027011.78949 -20268605.40147  20721381.916    20721388.010
  23188935.044   -12922012.29749 -10047587.59845  23188934.375    23188942.580
  21893339.822   -18615647.02849 -14494426.74047  21893339.356    21893345.514
  21750706.874   -19290847.13449 -14730645.70547  21750706.259    21750711.003
  22280744.449   -14950762.91949 -11628044.89647  22280743.622    22280749.787
 03  4 11  0 37  0.0000000  0  8G31G14G 9G15G17G 3G18G23
  22451002.766   -11885807.59149  -9246527.28146  22451002.115    22451008.066
  20477414.084   -25364140.09749 -19754826.65248  20477413.442    20477417.917
  23464547.968    -8584844.57249  -6545513.82745  23464547.671    23464555.048
  20730232.519   -25980506.21449 -20232367.29647  20730231.649    20730237.742
  23205470.961   -12835115.50249  -9979875.87945  23205470.327    23205478.602
  21899216.177   -18584766.46549 -14470363.96747  21899215.718    21899221.883
  21761130.650   -19236070.09149 -14687962.30447  21761129.993    21761134.742
  22290390.331   -14900073.61349 -11588546.74947  22290389.495    22290395.662
 03  4 11  0 37 30.0000000  0  8G31G14G 9G15G17G 3G18G23
  22447628.747   -11903538.18349  -9260343.31846  22447628.100    22447634.043
  20470031.971   -25402933.22049 -19785055.03648  20470031.332    20470035.790
  23467487.986    -8569394.62549  -6533474.89445  23467487.647    23467495.022
  20739161.931   -25933581.85049 -20195802.86747  20739161.057    20739167.151
  23222058.837   -12747945.74449  -9911951.45345  23222058.253    23222066.463
  21905189.923   -18553374.27149 -14445902.52147  21905189.463    21905195.610
  21771578.646   -19181165.27649 -14645179.35147  21771578.010    21771582.755
  22300047.806   -14849323.10849 -11549000.91547  22300047.009    22300053.197
 03  4 11  0 38  0.0000000  0  8G31G14G 9G15G17G 3G18G23
  22444364.101   -11920693.83049  -9273711.33846  22444363.450    22444369.419
  20462750.055   -25441199.86949 -19814873.17348  20462749.423    20462753.871
  23470540.475    -8553352.73649  -6520974.70445  23470540.223    23470547.656
  20748170.895   -25886239.39349 -20158912.64747  20748170.011    20748176.126
  23238698.437   -12660504.51149  -9843815.50645  23238697.774    23238706.100
  21911260.558   -18521472.88249 -14421044.30047  21911260.110    21911266.223
  21782050.715   -19126133.94649 -14602297.80647  21782050.120    21782054.891
  22309716.694   -14798512.49649 -11509408.24747  22309715.925    22309722.119
 03  4 11  0 38 30.0000000  0  8G31G14G 9G15G17G 3G18G23
  22441209.010   -11937273.68249  -9286630.68846  22441208.365    22441214.363
  20455568.561   -25478938.77349 -19844280.08548  20455567.925    20455572.366
  23473705.968    -8536718.12549  -6508012.65345  23473705.772    23473713.075
  20757259.508   -25838478.38849 -20121696.29547  20757258.639    20757264.736
  23255389.672   -12572791.79149  -9775467.99545  23255389.019    23255397.293
  21917427.909   -18489063.29649 -14395790.08147  21917427.461    21917433.564
  21792546.879   -19070976.15949 -14559317.72547  21792546.274    21792551.079
  22319397.193   -14747641.26449 -11469768.34446  22319396.433    22319402.614
 03  4 11  0 39  0.0000000  0  8G31G14G 9G15G17G 3G18G23
  22438163.438   -11953278.15049  -9299101.68646  22438162.803    22438168.786
  20448487.466   -25516150.06649 -19873275.87048  20448486.837    20448491.270
  23476984.119    -8519491.44149  -6494589.25645  23476983.913    23476991.275
  20766427.599   -25790299.68949 -20084154.45947  20766426.732    20766432.864
  23272132.076   -12484809.94949  -9706910.77745  23272131.418    23272139.735
  21923691.525   -18456147.75749 -14370141.61947  21923691.045    21923697.203
  21803066.936   -19015692.97349 -14516239.93347  21803066.341    21803071.142
  22329088.985   -14696710.55849 -11430082.09646  22329088.204    22329094.422
 03  4 11  0 39 30.0000000  0  8G31G14G 9G15G17G 3G18G23
  22435227.578   -11968706.38649  -9311123.68346  22435226.905    22435232.861
  20441506.972   -25552832.60449 -19901859.64248  20441506.350    20441510.784
  23480374.910    -8501671.99049  -6480703.96945  23480374.775    23480382.262
  20775675.321   -25741702.59549 -20046286.60847  20775674.440    20775680.612
  23288925.824   -12396558.59049  -9638143.55245  23288925.102    23288933.475
  21930051.261   -18422727.01649 -14344099.49447  21930050.792    21930056.920
  21813610.846   -18960284.67149 -14473064.66047  21813610.202    21813615.000
  22338792.098   -14645720.04149 -11390349.24146  22338791.406    22338797.621
 03  4 11  0 40  0.0000000  0  8G31G14G 9G15G17G 3G18G23
  22432401.267   -11983558.60549  -9322696.82546  22432400.582    22432406.575
  20434627.132   -25588986.30449 -19930031.32748  20434626.503    20434630.934
  23483878.596    -8483260.32049  -6466357.21045  23483878.439    23483885.809
  20785002.530   -25692687.67949 -20008093.17447  20785001.663    20785007.841
  23305770.536   -12308039.30449  -9569167.54845  23305769.820    23305778.131
  21936506.742   -18388803.28149 -14317665.42247  21936506.253    21936512.385
  21824178.350   -18904752.04049 -14429792.48547  21824177.686    21824182.512
  22348506.561   -14594670.42149 -11350570.33446  22348505.821    22348512.051
 03  4 11  0 40 30.0000000  0  8G31G14G 9G15G17G 3G18G23
  22429684.556   -11997834.95949  -9333821.25146  22429683.873    22429689.873
  20427847.899   -25624611.19749 -19957790.95648  20427847.276    20427851.695
  23487495.005    -8464256.87649  -6451549.32845  23487494.686    23487501.946
  20794409.173   -25643255.44049 -19969574.55647  20794408.311    20794414.505
  23322665.938   -12219253.61449  -9499983.96545  23322665.245    23322673.479
  21943057.575   -18354378.40949 -14290840.85847  21943057.078    21943063.242
  21834769.404   -18849095.62349 -14386423.87047  21834768.764    21834773.578
  22358232.083   -14543562.28549 -11310745.83246  22358231.369    22358237.616
 03  4 11  0 41  0.0000000  0  8G31G14G 9G15G17G 3G18G23
  22427077.608   -12011534.37449  -9344496.10846  22427076.928    22427082.946
  20421169.619   -25659705.73249 -19985137.32548  20421168.999    20421173.417
  23491223.940    -8444660.78149  -6436279.66545  23491223.634    23491230.909
  20803895.340   -25593405.27649 -19930730.28447  20803894.493    20803900.673
  23339612.096   -12130201.09949  -9430592.46645  23339611.433    23339619.854
  21949703.577   -18319453.51949 -14263626.66447  21949703.087    21949709.233
  21845383.998   -18793315.39649 -14342958.78247  21845383.396    21845388.239
  22367968.867   -14492395.10349 -11270875.31646  22367968.178    22367974.442
 03  4 11  0 41 30.0000000  0  8G31G14G 9G15G17G 3G18G23
  22424580.330   -12024657.64249  -9354722.01046  22424579.647    22424585.660
  20414592.100   -25694270.57949 -20012070.94048  20414591.482    20414595.904
  23495065.501    -8424473.07149  -6420548.98745  23495065.195    23495072.559
  20813460.865   -25543138.17249 -19891561.11747  20813460.011    20813466.210
  23356608.727   -12040883.36249  -9360994.28545  23356608.077    23356616.477
  21956444.213   -18284031.10749 -14236024.79347  21956443.740    21956449.896
  21856021.962   -18737412.48149 -14299398.08447  21856021.391    21856026.208
  22377716.740   -14441169.97149 -11230959.64946  22377716.009    22377722.296
 03  4 11  0 42  0.0000000  0  8G31G14G 9G15G17G 3G18G23
  22422192.799   -12037204.13549  -9364498.48946  22422192.159    22422198.155
  20408115.578   -25728304.76049 -20038591.05748  20408114.966    20408119.394
  23499019.885    -8403693.12549  -6404356.84045  23499019.517    23499026.906
  20823105.841   -25492453.57649 -19852066.63747  20823104.994    20823111.188
  23373655.647   -11951301.44249  -9291190.25745  23373654.966    23373663.432
  21963279.383   -18248112.07849 -14208035.94847  21963278.888    21963285.075
  21866683.283   -18681387.02949 -14255741.90747  21866682.671    21866687.511
  22387475.612   -14389886.58249 -11190998.59346  22387474.903    22387481.180
 03  4 11  0 42 30.0000000  0  8G31G14G 9G15G17G 3G18G23
  22419914.881   -12049174.34649  -9373825.91346  22419914.267    22419920.249
  20401739.991   -25761808.52149 -20064697.85948  20401739.380    20401743.797
  23503086.825    -8382321.83749  -6387703.90145  23503086.402    23503093.686
  20832830.028   -25441352.49149 -19812247.61547  20832829.182    20832835.377
  23390752.591   -11861456.54849  -9221181.31645  23390751.949    23390760.354
  21970208.568   -18211699.03249 -14179662.15847  21970208.091    21970214.266
  21877367.666   -18625240.10849 -14211991.07647  21877367.114    21877371.934
  22397245.465   -14338545.92849 -11150992.91446  22397244.730    22397251.022
 03  4 11  0 43  0.0000000  0  8G31G14G 9G15G17G 3G18G23
  22417746.796   -12060567.82549  -9382703.93746  22417746.157    22417752.115
  20395465.543   -25794780.98349 -20090390.66248  20395464.914    20395469.340
  23507266.015    -8360359.25249  -6370590.21645  23507265.689    23507272.946
  20842633.542   -25389834.76549 -19772103.94447  20842632.696    20842638.901
  23407899.385   -11771349.79849  -9150968.32945  23407898.758    23407907.220
  21977231.441   -18174793.52349 -14150904.63047  21977230.980    21977237.136
  21888075.168   -18568971.89349 -14168145.73347  21888074.601    21888079.413
  22407026.203   -14287147.75049 -11110942.40546  22407025.499    22407031.810
 03  4 11  0 43 30.0000000  0  8G31G14G 9G15G17G 3G18G23
  22415688.438   -12071384.61549  -9391132.58946  22415687.763    22415693.726
  20389292.196   -25827221.99949 -20115669.35148  20389291.577    20389296.002
  23511557.962    -8337805.50149  -6353015.88645  23511557.567    23511564.828
  20852516.319   -25337900.49149 -19731635.68947  20852515.474    20852521.670
  23425095.937   -11680981.59149  -9080551.61745  23425095.334    23425103.802
  21984347.737   -18137397.07849 -14121764.55747  21984347.263    21984353.443
  21898805.649   -18512582.78949 -14124206.19347  21898805.083    21898809.909
  22416817.825   -14235692.46949 -11070847.39946  22416817.120    22416823.422
 03  4 11  0 44  0.0000000  0  8G31G14G 9G15G17G 3G18G23
  22413739.743   -12081625.07549  -9399112.16146  22413739.081    22413745.034
  20383219.991   -25859131.57849 -20140533.93548  20383219.371    20383223.767
  23515962.209    -8314661.20249  -6334981.39845  23515961.799    23515969.121
  20862478.213   -25285550.36049 -19690843.39747  20862477.387    20862483.564
  23442341.908   -11590353.78349  -9009932.61345  23442341.205    23442349.780
  21991557.019   -18099511.99949 -14092243.72947  21991556.552    21991562.696
  21909558.965   -18456073.94549 -14080173.34747  21909558.378    21909563.196
  22426620.233   -14184180.59449 -11030708.29446  22426619.514    22426625.813
 03  4 11  0 44 30.0000000  0  8G31G14G 9G15G17G 3G18G23
  22411900.767   -12091288.82749  -9406642.34646  22411900.074    22411906.031
  20377249.040   -25890509.01549 -20164983.85548  20377248.424    20377252.804
  23520478.693    -8290926.23449  -6316486.64245  23520478.361    23520485.574
  20872519.218   -25232784.53449 -19649727.18047  20872518.386    20872524.577
  23459637.167   -11499466.75949  -8939111.61345  23459636.481    23459645.049
  21998859.034   -18061139.65649 -14062343.21347  21998858.577    21998864.743
  21920334.998   -18399445.37849 -14036047.20647  21920334.458    21920339.294
  22436433.446   -14132612.04349 -10990525.02446  22436432.701    22436439.005
 03  4 11  0 45  0.0000000  0  8G31G14G 9G15G17G 3G18G23
  22410171.549   -12100375.91949  -9413723.18446  22410170.891    22410176.815
  20371379.416   -25921354.03349 -20189018.91348  20371378.788    20371383.176
  23525107.743    -8266601.19349  -6297532.07345  23525107.486    23525114.468
  20882639.337   -25179602.93549 -19608286.98147  20882638.510    20882644.696
  23476981.563   -11408321.57949  -8868089.48345  23476980.843    23476989.513
  22006253.461   -18022281.67149 -14032064.27547  22006253.008    22006259.202
  21931133.809   -18342697.49149 -13991828.09447  21931133.222    21931138.079
  22446257.300   -14080987.10749 -10950297.82446  22446256.600    22446262.898
 03  4 11  0 45 30.0000000  0  8G31G14G 9G15G17G 3G18G23
  22408551.939   -12108886.80749  -9420355.04046  22408551.333    22408557.248
  20365611.094   -25951666.71649 -20212639.16148  20365610.471    20365614.835
  23529848.711    -8241686.45749  -6278118.02745  23529848.485    23529855.842
  20892838.430   -25126006.43249 -19566523.48147  20892837.600    20892843.797
  23494374.848   -11316919.63249  -8796867.25545  23494374.123    23494382.720
  22013739.872   -17982940.38649 -14001408.74347  22013739.425    22013745.629
  21941955.097   -18285831.14549 -13947516.67647  21941954.531    21941959.378
  22456091.843   -14029306.42849 -10910027.18646  22456091.112    22456097.411
 03  4 11  0 46  0.0000000  0  8G31G14G 9G15G17G 3G18G23
  22407042.125   -12116821.19249  -9426537.66546  22407041.458    22407047.361
  20359944.165   -25981446.42349 -20235844.10348  20359943.554    20359947.907
  23534701.935    -8216182.02749  -6258244.46245  23534701.774    23534709.009
  20903116.512   -25071994.74949 -19524436.46747  20903115.664    20903121.879
  23511816.805   -11225261.59149  -8725445.46545  23511816.248    23511824.723
  22021317.887   -17943117.57549 -13970377.99647  22021317.449    22021323.648
  21952798.903   -18228846.57949 -13903113.13947  21952798.354    21952803.217
  22465937.020   -13977569.90249 -10869713.02846  22465936.246    22465942.559
 03  4 11  0 46 30.0000000  0  8G31G14G 9G15G17G 3G18G23
  22405641.712   -12124180.05849  -9432271.83346  22405641.127    22405646.994
  20354378.529   -26010693.92749 -20258634.34348  20354377.927    20354382.260
  23539667.412    -8190089.18149  -6237912.36145  23539667.108    23539674.312
  20913473.346   -25017569.23049 -19482026.98447  20913472.504    20913478.721
  23529307.227   -11133349.29849  -8653825.57545  23529306.560    23529315.159
  22028987.036   -17902815.99849 -13938974.18647  22028986.590    22028992.814
  21963665.070   -18171744.83649 -13858618.29847  21963664.472    21963669.342
  22475792.660   -13925778.35849 -10829356.00246  22475791.883    22475798.191
 03  4 11  0 47  0.0000000  0  8G31G14G 9G15G17G 3G18G23
  22404351.051   -12130962.77349  -9437557.05546  22404350.431    22404356.293
  20348914.383   -26039407.95949 -20281008.88848  20348913.800    20348918.120
  23544744.759    -8163407.15349  -6217121.19745  23544744.453    23544751.741
  20923909.014   -24962729.41749 -19439294.67847  20923908.180    20923914.412
  23546845.901   -11041183.46349  -8582008.10945  23546845.179    23546853.782
  22036747.110   -17862036.52149 -13907197.98647  22036746.658    22036752.897
  21974553.504   -18114525.69549 -13814031.98047  21974552.904    21974557.796
  22485658.775   -13873931.28349 -10788955.70946  22485658.063    22485664.391
 03  4 11  0 47 30.0000000  0  8G31G14G 9G15G17G 3G18G23
  22403169.928   -12137169.65649  -9442393.57646  22403169.269    22403175.104
  20343551.722   -26067588.84149 -20302967.99548  20343551.133    20343555.455
  23549934.172    -8136136.90349  -6195871.66645  23549933.899    23549941.132
  20934423.438   -24907475.70149 -19396239.83847  20934422.591    20934428.826
  23564432.659   -10948764.62049  -8509993.49245  23564431.933    23564440.457
  22044597.694   -17820781.55049 -13875051.26747  22044597.253    22044603.480
  21985464.219   -18057189.61149 -13769354.53747  21985463.630    21985468.519
  22495535.411   -13822029.19749 -10748512.54746  22495534.695    22495541.043
 03  4 11  0 48  0.0000000  0  8G31G14G 9G15G17G 3G18G23
  22402098.281   -12142801.25949  -9446781.83046  22402097.621    22402103.428
  20338290.474   -26095236.70049 -20324511.75948  20338289.895    20338294.207
  23555235.374    -8108279.36949  -6174164.49645  23555235.020    23555242.086
  20945016.455   -24851808.98249 -19352863.18047  20945015.627    20945021.850
  23582067.292   -10856094.36149  -8437782.97745  23582066.575    23582075.080
  22052538.370   -17779053.12049 -13842535.62747  22052537.916    22052544.153
  21996396.989   -17999737.78949 -13724586.90647  21996396.362    21996401.243
  22505422.436   -13770072.68649 -10708026.97646  22505421.721    22505428.065
 03  4 11  0 48 30.0000000  0  8G31G14G 9G15G17G 3G18G23
  22401136.041   -12147857.67549  -9450721.88146  22401135.406    22401141.248
  20333130.692   -26122351.36349 -20345640.04548  20333130.097    20333134.416
  23560648.201    -8079834.91849  -6151999.98145  23560647.873    23560654.966
  20955688.077   -24795729.33849 -19309164.76247  20955687.240    20955693.471
  23599749.510   -10763173.88049  -8365377.48145  23599748.774    23599757.376
  22060568.809   -17736852.81849 -13809652.28447  22060568.356    22060574.616
  22007351.742   -17942170.12049 -13679729.00047  22007351.148    22007356.026
  22515319.838   -13718061.64049 -10667498.91146  22515319.089    22515325.435
 03  4 11  0 49  0.0000000  0  8G31G14G 9G15G17G 3G18G23
  22400283.199   -12152339.27449  -9454214.02446  22400282.537    22400288.380
  20328072.392   -26148932.78049 -20366352.82148  20328071.799    20328076.116
  23566172.529    -8050804.32649  -6129378.74445  23566172.139    23566179.463
  20966438.137   -24739237.30049 -19265145.00347  20966437.298    20966443.548
  23617479.023   -10670004.78449  -8292778.25245  23617478.380    23617487.020
  22068688.608   -17694182.95449 -13776403.05547  22068688.145    22068694.415
  22018328.434   -17884487.36449 -13634781.42347  22018327.829    22018332.720
  22525227.482   -13665996.43949 -10626928.64446  22525226.770    22525233.122
 03  4 11  0 49 30.0000000  0  8G31G14G 9G15G17G 3G18G23
  22399539.705   -12156246.05149  -9457258.25846  22399539.092    22399544.941
  20323115.679   -26174980.46949 -20386649.69948  20323115.100    20323119.404
  23571808.414    -8021187.50849  -6106300.69245  23571808.057    23571815.233
  20977266.678   -24682333.00549 -19220804.01247  20977265.841    20977272.097
  23635255.827   -10576587.30249  -8219985.47045  23635255.084    23635263.813
  22076897.404   -17651045.45049 -13742789.43647  22076896.962    22076903.210
  22029327.010   -17826689.46849 -13589744.12947  22029326.435    22029331.317
  22535145.597   -13613876.86149 -10586316.00946  22535144.834    22535151.192
 03  4 11  0 50  0.0000000  0  8G31G14G 9G15G17G 3G18G23
  22398905.435   -12159578.59249  -9459855.04646  22398904.901    22398910.765
  20318260.480   -26200494.52849 -20406530.76448  20318259.911    20318264.206
  23577555.776    -7990985.33449  -6082766.52545  23577555.389    23577562.441
  20988173.562   -24625016.99649 -19176142.20747  20988172.730    20988178.982
  23653079.611   -10482922.80949  -8147000.22845  23653078.894    23653087.690
  22085194.787   -17607442.44849 -13708813.08447  22085194.328    22085200.597
  22040347.411   -17768777.15649 -13544617.67447  22040346.805    22040351.680
  22545073.860   -13561703.40449 -10545661.39046  22545073.111    22545079.482
 03  4 11  0 50 30.0000000  0  8G31G14G 9G15G17G 3G18G23
  22398380.602   -12162337.00949  -9462004.45946  22398379.964    22398385.876
  20313506.848   -26225474.94549 -20425996.00548  20313506.272    20313510.576
  23583414.237    -7960198.15949  -6058776.52845  23583413.952    23583421.061
  20999158.738   -24567289.52549 -19131159.77947  20999157.896    20999164.155
  23670950.236   -10389012.47849  -8073823.41045  23670949.493    23670958.252
  22093580.366   -17563376.03449 -13674475.63147  22093579.933    22093586.175
  22051389.479   -17710750.77049 -13499402.33047  22051388.871    22051393.745
  22555012.421   -13509476.08249 -10504964.80346  22555011.680    22555018.024
 03  4 11  0 51  0.0000000  0  8G31G14G 9G15G17G 3G18G23
  22397964.861   -12164521.78249  -9463706.88446  22397964.192    22397970.109
  20308854.720   -26249921.94149 -20445045.59448  20308854.153    20308858.429
  23589384.072    -7928826.84149  -6034331.33145  23589383.839    23589390.862
  21010222.142   -24509151.21949 -19085857.22047  21010221.287    21010227.532
  23688867.377   -10294857.47649  -8000455.94545  23688866.629    23688875.418
  22102053.735   -17518848.13649 -13639778.58747  22102053.307    22102059.544
  22062453.099   -17652610.88749 -13454098.55347  22062452.532    22062457.416
  22564961.192   -13457195.20949 -10464226.48246  22564960.413    22564966.752
 03  4 11  0 51 30.0000000  0  8G31G14G 9G15G17G 3G18G23
  22397658.159   -12166133.75249  -9464962.97146  22397657.454    22397663.361
  20304304.071   -26273835.76249 -20463679.72048  20304303.493    20304307.769
  23595464.771    -7896872.59249  -6009431.91245  23595464.420    23595471.588
  21021363.506   -24450603.01549 -19040235.25847  21021362.663    21021368.910
  23706830.727   -10200459.57049  -7926899.19545  23706830.043    23706838.796
  22110614.460   -17473861.37749 -13604723.98947  22110614.020    22110620.265
  22073538.171   -17594358.37149 -13408707.00447  22073537.638    22073542.518
  22574919.968   -13404861.33349 -10423446.86446  22574919.239    22574925.571
 03  4 11  0 52  0.0000000  0  8G31G14G 9G15G17G 3G18G23
  22397460.441   -12167172.86449  -9465772.67346  22397459.711    22397465.599
  20299854.939   -26297216.01449 -20481898.08148  20299854.373    20299858.628
  23601656.278    -7864335.44549  -5984078.29445  23601656.024    23601663.250
  21032582.867   -24391644.79349 -18994293.80647  21032582.036    21032588.279
  23724840.208   -10105819.11849  -7853153.46545  23724839.445    23724848.375
  22119262.186   -17428417.32149 -13569313.05947  22119261.734    22119268.003
  22084644.793   -17535993.01949 -13363227.53847  22084644.199    22084649.090
  22584888.976   -13352474.13949 -10382625.70946  22584888.237    22584894.587
 03  4 11  0 52 30.0000000  0  8G31G14G 9G15G17G 3G18G23
  22397371.576   -12167639.69949  -9466136.44546  22397370.893    22397376.773
  20295507.318   -26320062.88149 -20499700.81848  20295506.743    20295510.992
  23607958.761    -7831216.21349  -5958271.08745  23607958.451    23607965.586
  21043880.140   -24332277.26949 -18948033.41047  21043879.295    21043885.563
  23742895.642   -10010937.48649  -7779219.78445  23742895.066    23742904.048
  22127996.521   -17382518.14649 -13533547.48747  22127996.067    22128002.327
  22095772.740   -17477515.39249 -13317660.57747  22095772.155    22095777.038
  22594868.104   -13300033.78349 -10341763.12246  22594867.299    22594873.675
 03  4 11  0 53  0.0000000  0  8G31G14G 9G15G17G 3G18G23
  22397391.464   -12167534.74349  -9466054.66346  22397390.849    22397396.728
  20291261.109   -26342376.71149 -20517088.20148  20291260.523    20291264.773
  23614371.646    -7797515.97349  -5932011.15045  23614371.331    23614378.542
  21055255.180   -24272501.16749 -18901454.64347  21055254.331    21055260.584
  23760996.700    -9915815.96949  -7705099.20145  23760996.065    23761005.059
  22136817.032   -17336166.10749 -13497429.03647  22136816.591    22136822.842
  22106921.889   -17418926.11549 -13272006.61447  22106921.327    22106926.225
  22604857.227   -13247540.53249 -10300859.31146  22604856.463    22604862.835
 03  4 11  0 53 30.0000000  0  8G31G14G 9G15G17G 3G18G23
  22397519.970   -12166858.86949  -9465528.01346  22397519.460    22397525.375
  20287116.269   -26364157.92549 -20534060.56148  20287115.692    20287119.914
  23620894.961    -7763235.67549  -5905299.21945  23620894.605    23620901.857
  21066707.835   -24212317.16249 -18854558.03547  21066706.992    21066713.249
  23779143.142    -9820456.19749  -7630792.94845  23779142.562    23779151.458
  22145723.291   -17289363.50149 -13460959.49747  22145722.855    22145729.100
  22118092.241   -17360225.84049 -13226266.17347  22118091.624    22118096.537
  22614856.281   -13194994.83049 -10259914.63546  22614855.591    22614861.951
 03  4 11  0 54  0.0000000  0  8G31G14G 9G15G17G 3G18G23
  22397757.200   -12165612.08149  -9464556.49746  22397756.725    22397762.643
  20283072.917   -26385405.90449 -20550617.41348  20283072.331    20283076.549
  23627528.592    -7728375.73049  -5878135.59445  23627528.224    23627535.413
  21078238.055   -24151725.33049 -18807343.64447  21078237.210    21078243.486
  23797334.643    -9724859.06149  -7556301.75945  23797334.178    23797342.943
  22154714.936   -17242112.20249 -13424140.32747  22154714.460    22154720.735
  22129283.708   -17301414.50549 -13180439.18046  22129283.066    22129288.006
  22624865.472   -13142396.25549 -10218928.74946  22624864.812    22624871.185
 03  4 11  0 54 30.0000000  0  8G31G14G 9G15G17G 3G18G23
  22398102.936   -12163795.40149  -9463140.91646  22398102.416    22398108.328
  20279130.899   -26406121.26649 -20566759.23748  20279130.310    20279134.529
  23634272.303    -7692937.12049  -5850521.08545  23634271.914    23634279.148
  21089845.738   -24090726.61349 -18759812.19547  21089844.914    21089851.189
  23815571.172    -9629025.97049  -7481626.67145  23815570.474    23815579.406
  22163791.428   -17194414.99749 -13386973.69647  22163790.966    22163797.236
  22140496.163   -17242492.61649 -13134526.05346  22140495.554    22140500.489
  22634884.623   -13089745.43549 -10177902.15746  22634883.906    22634890.309
 03  4 11  0 55  0.0000000  0  8G31G14G 9G15G17G 3G18G23
  22398557.077   -12161409.35349  -9461281.66846  22398556.482    22398562.409
  20275290.201   -26426304.31449 -20582486.26948  20275289.609    20275293.814
  23641125.976    -7656920.84849  -5822456.43745  23641125.580    23641132.921
  21101530.771   -24029321.43049 -18711964.01647  21101529.925    21101536.233
  23833852.348    -9532958.12649  -7406768.71245  23833851.678    23833860.533
  22172952.384   -17146274.03649 -13349461.28647  22172951.925    22172958.212
  22151729.500   -17183460.96149 -13088527.38346  22151728.927    22151733.876
  22644913.713   -13037042.43149 -10136834.90746  22644912.983    22644919.359
 03  4 11  0 55 30.0000000  0  8G31G14G 9G15G17G 3G18G23
  22399119.405   -12158454.37349  -9458979.09646  22399118.813    22399124.747
  20271550.801   -26445954.94549 -20597798.43448  20271550.208    20271554.413
  23648089.360    -7620327.66749  -5793942.25745  23648088.988    23648096.401
  21113293.036   -23967510.40649 -18663799.60347  21113292.172    21113298.489
  23852177.933    -9436656.65549  -7331728.68645  23852177.062    23852186.144
  22182197.430   -17097691.04449 -13311604.43947  22182196.965    22182203.265
  22162983.757   -17124319.53849 -13042443.18346  22162983.176    22162988.148
  22654952.749   -12984287.27049 -10095727.01146  22654951.983    22654958.391
 03  4 11  0 56  0.0000000  0  8G31G14G 9G15G17G 3G18G23
  22399789.877   -12154931.00049  -9456233.62046  22399789.278    22399795.213
  20267912.674   -26465073.27149 -20612695.81348  20267912.077    20267916.276
  23655162.427    -7583158.50149  -5764979.25845  23655162.022    23655169.379
  21125132.430   -23905293.91449 -18615319.24947  21125131.586    21125137.882
  23870547.842    -9340122.65749  -7256507.43745  23870546.993    23870556.029
  22191526.155   -17048668.28449 -13273404.90647  22191525.706    22191532.000
  22174258.763   -17065068.84749 -12996273.84646  22174258.201    22174263.194
  22665001.593   -12931480.09249 -10054578.59246  22665000.847    22665007.267
 03  4 11  0 56 30.0000000  0  8G31G14G 9G15G17G 3G18G23
  22400568.395   -12150839.91949  -9453045.77546  22400567.789    22400573.729
  20264375.788   -26483659.72749 -20627178.74948  20264375.185    20264379.384
  23662344.924    -7545414.25349  -5735568.14745  23662344.530    23662351.931
  21137048.872   -23842672.69149 -18566523.51447  21137048.026    21137054.350
  23888961.747    -9243357.12049  -7181105.80645  23888960.877    23888970.068
  22200938.104   -16999208.25149 -13234864.64347  22200937.671    22200943.982
  22185554.598   -17005709.01449 -12950019.45346  22185554.021    22185559.019
  22675060.364   -12878620.92349 -10013389.65846  22675059.653    22675066.071
 03  4 11  0 57  0.0000000  0  8G31G14G 9G15G17G 3G18G23
  22401454.765   -12146182.02949  -9449416.26446  22401454.176    22401460.116
  20260940.045   -26501714.62449 -20641247.48048  20260939.434    20260943.627
  23669636.573    -7507095.92749  -5705709.69945  23669636.252    23669643.591
  21149042.168   -23779647.57049 -18517413.05547  21149041.323    21149047.625
  23907419.356    -9146362.11249  -7105525.35045  23907418.488    23907427.605
  22210432.763   -16949313.44049 -13195985.58947  22210432.337    22210438.670
  22196871.089   -16946240.63449 -12903680.48446  22196870.496    22196875.507
  22685128.998   -12825709.98049  -9972160.37246  22685128.263    22685134.670
 03  4 11  0 57 30.0000000  0  8G31G14G 9G15G17G 3G18G23
  22402448.947   -12140957.91449  -9445345.53746  22402448.298    22402454.250
  20257605.396   -26519238.36349 -20654902.32348  20257604.792    20257608.966
  23677037.428    -7468204.61749  -5675404.76745  23677037.058    23677044.389
  21161112.206   -23716219.19749 -18467988.37047  21161111.357    21161117.673
  23925920.405    -9049138.74449  -7029766.94045  23925919.621    23925928.606
  22220009.803   -16898985.90349 -13156769.35047  22220009.358    22220015.707
  22208208.208   -16886663.94149 -12857257.11146  22208207.598    22208212.622
  22695207.491   -12772747.27449  -9930890.75946  22695206.745    22695213.198
 03  4 11  0 58  0.0000000  0  8G31G14G 9G15G17G 3G18G23
  22403550.685   -12135168.21649  -9440834.09146  22403550.055    22403555.998
  20254371.752   -26536231.15149 -20668143.43748  20254371.151    20254375.338
  23684547.057    -7428741.22549  -5644654.07645  23684546.689    23684554.115
  21173258.881   -23652388.07749 -18418249.85347  21173258.028    21173264.347
  23944464.739    -8951687.98049  -6953831.34545  23944463.893    23944473.050
  22229668.727   -16848227.99749 -13117217.75647  22229668.281    22229674.659
  22219565.886   -16826979.14849 -12810749.51046  22219565.225    22219570.263
  22705295.756   -12719732.95549  -9889580.92746  22705295.031    22705301.507
 03  4 11  0 58 30.0000000  0  8G31G14G 9G15G17G 3G18G23
  22404759.909   -12128813.75249  -9435882.57546  22404759.248    22404765.184
  20251239.130   -26552692.94949 -20680970.79548  20251238.539    20251242.704
  23692165.373    -7388706.78249  -5613458.40145  23692165.055    23692172.352
  21185482.085   -23588154.75749 -18368197.94447  21185481.236    21185487.558
  23963052.099    -8854010.96149  -6877719.46245  23963051.285    23963060.464
  22239409.116   -16797041.88449 -13077332.49446  22239408.658    22239415.047
  22230944.001   -16767186.62849 -12764157.96246  22230943.378    22230948.376
  22715393.878   -12666666.99449  -9848230.85946  22715393.171    22715399.655
 03  4 11  0 59  0.0000000  0  8G31G14G 9G15G17G 3G18G23
  22406076.449   -12121895.19649  -9430491.50746  22406075.817    22406081.737
  20248207.492   -26568624.37149 -20693384.87348  20248206.898    20248211.054
  23699892.128    -7348102.20849  -5581818.46945  23699891.757    23699899.065
  21197781.685   -23523520.11149 -18317833.30447  21197780.842    21197787.154
  23981682.200    -8756109.29349  -6801432.51045  23981681.427    23981690.493
  22249230.602   -16745429.83749 -13037115.34146  22249230.138    22249236.508
  22242342.529   -16707287.02049 -12717482.97046  22242341.907    22242346.938
  22725501.820   -12613549.44349  -9806840.58846  22725501.123    22725507.611
 03  4 11  0 59 30.0000000  0  8G31G14G 9G15G17G 3G18G23
  22407500.181   -12114413.41049  -9424661.55446  22407499.541    22407505.491
  20245276.702   -26584025.76849 -20705385.94448  20245276.097    20245280.247
  23707727.128    -7306928.83149  -5549735.31945  23707726.802    23707734.097
  21210157.523   -23458484.79249 -18267156.45347  21210156.674    21210162.987
  24000354.915    -8657983.94849  -6724971.28145  24000354.100    24000363.217
  22259132.655   -16693394.24049 -12996568.14446  22259132.174    22259138.577
  22253761.373   -16647280.49849 -12670724.67046  22253760.782    22253765.819
  22735619.627   -12560380.30449  -9765410.11746  22735618.918    22735625.389
 03  4 11  1  0  0.0000000  0  8G31G14G 9G15G17G 3G18G23
  22409030.940   -12106369.47749  -9418393.56746  22409030.271    22409036.214
  20242446.655   -26598897.53949 -20716974.32148  20242446.056    20242450.204
  23715670.297    -7265187.68349  -5517209.74745  23715669.843    23715677.213
  21222609.464   -23393049.52249 -18216167.95247  21222608.604    21222614.945
  24019069.805    -8559636.87049  -6648337.25745  24019069.105    24019078.177
  22269114.852   -16640937.47349 -12955692.76746  22269114.373    22269120.780
  22265200.424   -16587167.82149 -12623883.64946  22265199.843    22265204.856
  22745747.126   -12507159.95449  -9723939.74046  22745746.428    22745752.953
 03  4 11  1  0 30.0000000  0  8G31G14G 9G15G17G 3G18G23
  22410668.490   -12097763.97049  -9411687.99146  22410667.847    22410673.789
  20239717.377   -26613240.04849 -20728150.28248  20239716.786    20239720.911
  23723721.106    -7222879.86849  -5484242.61945  23723720.790    23723727.964
  21235137.394   -23327214.85449 -18164868.22847  21235136.511    21235142.867
  24037826.722    -8461068.98149  -6571531.17245  24037825.979    24037835.142
  22279176.785   -16588061.87549 -12914491.02746  22279176.297    22279182.696
  22276659.758   -16526948.76549 -12576959.73046  22276659.169    22276664.208
  22755884.414   -12453888.11749  -9682429.24246  22755883.719    22755890.246
 03  4 11  1  1  0.0000000  0  8G31G14G 9G15G17G 3G18G23
  22412412.766   -12088597.83649  -9404545.55546  22412412.120    22412418.061
  20237088.713   -26627053.68249 -20738914.13948  20237088.105    20237092.245
  23731879.742    -7180006.44749  -5450834.75945  23731879.362    23731886.564
  21247741.157   -23260981.72649 -18113258.02247  21247740.305    21247746.651
  24056625.316    -8362281.80549  -6494554.23545  24056624.625    24056633.764
  22289317.851   -16534770.18649 -12872965.05946  22289317.357    22289323.785
  22288139.308   -16466623.60149 -12529953.13746  22288138.713    22288143.721
  22766031.475   -12400564.96049  -9640878.75846  22766030.805    22766037.330
 03  4 11  1  1 30.0000000  0  8G31G14G 9G15G17G 3G18G23
  22414263.558   -12078871.96149  -9396966.96546  22414262.859    22414268.828
  20234560.550   -26640339.14949 -20749266.43548  20234559.946    20234564.080
  23740145.634    -7136568.62449  -5416987.11345  23740145.279    23740152.491
  21260420.623   -23194350.77649 -18061337.82247  21260419.758    21260426.116
  24075465.454    -8263276.54549  -6417407.35245  24075464.682    24075473.872
  22299537.655   -16481064.90049 -12831116.81546  22299537.182    22299543.580
  22299638.908   -16406192.99649 -12482864.38446  22299638.301    22299643.292
  22776188.289   -12347190.52349  -9599288.32046  22776187.613    22776194.183
 03  4 11  1  2  0.0000000  0  8G31G14G 9G15G17G 3G18G23
  22416220.670   -12068587.28149  -9388952.94346  22416219.994    22416225.946
  20232132.928   -26653096.46149 -20759207.18648  20232132.326    20232136.459
  23748518.753    -7092567.73349  -5382700.69945  23748518.403    23748525.410
  21273175.625   -23127322.85749 -18009108.29647  21273174.758    21273181.126
  24094346.832    -8164054.86249  -6340091.81945  24094346.092    24094355.247
  22309835.798   -16426947.89249 -12788947.74246  22309835.333    22309841.756
  22311158.552   -16345656.96949 -12435693.47846  22311157.957    22311162.934
  22786354.954   -12293764.68049  -9557657.81746  22786354.245    22786360.828
 03  4 11  1  2 30.0000000  0  8G31G14G 9G15G17G 3G18G23
  22418283.951   -12057744.56349  -9380504.08246  22418283.305    22418289.237
  20229805.594   -26665326.49949 -20768737.07748  20229804.997    20229809.107
  23756998.860    -7048004.84049  -5347976.37245  23756998.443    23757005.639
  21286006.029   -23059898.63849 -17956569.97247  21286005.165    21286011.534
  24113269.119    -8064617.70849  -6262608.39645  24113268.301    24113277.540
  22320211.825   -16372421.48549 -12746459.65746  22320211.369    22320217.784
  22322698.161   -16285015.82449 -12388440.66346  22322697.588    22322702.567
  22796531.314   -12240287.51049  -9515987.31546  22796530.630    22796537.188
 03  4 11  1  3  0.0000000  0  9G31G14G 9G15G25G17G 3G18G23
  22420452.649   -12046348.51149  -9371624.05546  22420451.934    22420457.856
  20227577.899   -26677033.16549 -20777859.14748  20227577.300    20227581.408
  23765584.830    -7002884.83049  -5312817.90645  23765584.508    23765591.672
  21298911.017   -22992082.54349 -17903726.29247  21298910.171    21298916.528
  24531107.579    -4048786.97249  -3138466.77845  24531107.348    24531116.500
  24132231.563    -7964969.74749  -6184960.68945  24132230.785    24132239.811
  22330664.596   -16317491.84749 -12703657.35746  22330664.133    22330670.573
  22334257.131   -16224273.41249 -12341108.93946  22334256.516    22334261.504
  22806716.809   -12186762.55049  -9474279.57946  22806716.089    22806722.668
 03  4 11  1  3 30.0000000  0  9G31G14G 9G15G25G17G 3G18G23
  22422727.026   -12034396.52849  -9362310.82946  22422726.320    22422732.282
  20225450.378   -26688213.28449 -20786570.91948  20225449.772    20225453.883
  23774277.427    -6957205.38149  -5277223.54345  23774277.001    23774284.181
  21311891.127   -22923871.73549 -17850575.04047  21311890.265    21311896.632
  24512427.006    -4146953.79949  -3214960.26845  24512426.810    24512435.988
  24151234.374    -7865109.53649  -6107147.64945  24151233.519    24151242.842
  22341194.293   -16262158.07749 -12660540.16346  22341193.814    22341200.261
  22345835.931   -16163426.65249 -12293695.90046  22345835.300    22345840.300
  22816912.055   -12133186.37849  -9432531.93046  22816911.291    22816917.908
 03  4 11  1  4  0.0000000  0  9G31G14G 9G15G25G17G 3G18G23
  22425107.291   -12021888.13249  -9352564.03746  22425106.602    22425112.564
  20223423.208   -26698866.07049 -20794871.78248  20223422.596    20223426.710
  23783076.292    -6910966.52849  -5241193.26545  23783075.990    23783083.143
  21324946.470   -22855265.38749 -17797115.58147  21324945.617    21324952.004
  24493736.077    -4245174.46949  -3291495.70545  24493735.930    24493745.138
  24170277.597    -7765036.66949  -6029168.83445  24170276.825    24170285.966
  22351800.693   -16206421.16349 -12617108.83046  22351800.191    22351806.666
  22357434.775   -16102474.31149 -12246200.58546  22357434.170    22357439.180
  22827117.334   -12079557.49249  -9390743.20646  22827116.596    22827123.178
 03  4 11  1  4 30.0000000  0  9G31G14G 9G15G25G17G 3G18G23
  22427593.086   -12008824.92049  -9342384.91546  22427592.411    22427598.388
  20221496.210   -26708992.57049 -20802762.55148  20221495.600    20221499.711
  23791981.479    -6864169.96349  -5204728.40845  23791981.145    23791988.092
  21338076.825   -22786265.01549 -17743349.08247  21338075.977    21338082.356
  24475035.374    -4343446.74949  -3368071.33245  24475035.276    24475044.300
  24189361.098    -7664752.38749  -5951025.33945  24189360.355    24189369.603
  22362483.308   -16150283.82449 -12573365.46746  22362482.795    22362489.266
  22369053.601   -16041417.15849 -12198623.60346  22369052.967    22369057.970
  22837332.534   -12025876.29049  -9348913.71746  22837331.814    22837338.394
 03  4 11  1  5  0.0000000  0  9G31G14G 9G15G25G17G 3G18G23
  22430184.140   -11995208.51049  -9331774.73046  22430183.567    22430189.543
  20219669.103   -26718593.99549 -20810244.17648  20219668.485    20219672.612
  23800992.201    -6816817.54949  -5167830.45045  23800991.897    23800998.933
  21351281.912   -22716871.99249 -17689276.63447  21351281.046    21351287.454
  24456325.185    -4441768.98849  -3444685.91145  24456324.929    24456334.069
  24208484.348    -7564259.34149  -5872719.10545  24208483.476    24208492.885
  22373241.517   -16093749.09349 -12529312.46146  22373241.007    22373247.450
  22380692.194   -15980256.01749 -12150965.59446  22380691.569    22380696.576
  22847557.569   -11972143.42149  -9307043.97646  22847556.845    22847563.402
 03  4 11  1  5 30.0000000  0  9G31G14G 9G15G25G17G 3G18G23
  22432880.348   -11981040.71149  -9320734.90046  22432879.661    22432885.609
  20217941.701   -26727671.56249 -20817317.59548  20217941.081    20217945.190
  23810108.503    -6768911.33949  -5130500.94445  23810108.195    23810115.302
  21364561.370   -22647088.03749 -17634899.55247  21364560.522    21364566.914
  24437605.731    -4540139.25349  -3521337.88745  24437605.387    24437614.565
  24227646.875    -7463559.66149  -5794251.92444  24227646.071    24227655.437
  22384074.739   -16036820.30549 -12484952.39046  22384074.208    22384080.692
  22392350.396   -15918991.88049 -12103227.32746  22392349.789    22392354.788
  22857792.311   -11918359.62249  -9265134.53146  22857791.560    22857798.122
 03  4 11  1  6  0.0000000  0  9G31G14G 9G15G25G17G 3G18G23
  22435681.202   -11966321.89549  -9309265.69946  22435680.522    22435686.507
  20216313.998   -26736225.05549 -20823982.64548  20216313.377    20216317.485
  23819329.968    -6720452.00849  -5092740.44945  23819329.581    23819336.828
  21377915.213   -22576913.13149 -17580217.83647  21377914.368    21377920.774
  24418878.006    -4638553.61849  -3598024.25445  24418877.912    24418886.721
  24246848.599    -7362654.13149  -5715624.28144  24246847.487    24246857.251
  22394982.585   -15979499.25449 -12440286.66746  22394982.057    22394988.529
  22404028.281   -15857624.19049 -12055408.36146  22404027.684    22404032.672
  22868036.871   -11864524.09149  -9223184.78446  22868036.158    22868042.725
 03  4 11  1  6 30.0000000  0  9G31G14G 9G15G25G17G 3G18G23
  22438586.582   -11951053.71849  -9297368.43546  22438586.000    22438591.934
  20214785.763   -26744255.93849 -20830240.46548  20214785.165    20214789.265
  23828656.319    -6671441.59249  -5054550.50845  23828656.014    23828663.164
  21391343.231   -22506348.67749 -17525232.57347  21391342.372    21391348.785
  24400142.161    -4737010.58649  -3674743.78245  24400141.954    24400150.887
  24266089.245    -7261544.55549  -5636837.69244  24266088.237    24266097.629
  22405964.465   -15921789.27549 -12395317.88346  22405963.934    22405970.403
  22415725.732   -15796153.78049 -12007509.35946  22415725.127    22415730.152
  22878291.195   -11810637.38349  -9181195.16646  22878290.449    22878297.038
 03  4 11  1  7  0.0000000  0  9G31G14G 9G15G25G17G 3G18G23
  22441596.364   -11935237.64349  -9285044.22646  22441595.687    22441601.611
  20213356.825   -26751764.91349 -20836091.60448  20213356.225    20213360.321
  23838087.353    -6621881.65049  -5015932.38645  23838087.025    23838094.268
  21404845.119   -22435395.87349 -17469944.70347  21404844.265    21404850.664
  24381398.579    -4835507.66149  -3751494.52945  24381398.470    24381407.437
  24285368.331    -7160232.37249  -5557893.21044  24285367.358    24285377.142
  22417019.836   -15863692.85249 -12350047.97946  22417019.330    22417025.801
  22427442.610   -15734581.17849 -11959530.73746  22427442.034    22427447.029
  22888555.230   -11756699.83849  -9139165.92146  22888554.443    22888561.029
 03  4 11  1  7 30.0000000  0  8G31G14G 9G15G25G 3G18G23
  22444709.974   -11918875.74249  -9272294.69646  22444709.281    22444715.203
  20212026.921   -26758753.64849 -20841537.36148  20212026.305    20212030.404
  23847622.357    -6571774.48649  -4976887.85045  23847621.984    23847629.309
  21418420.584   -22364056.47249 -17414355.59047  21418419.707    21418426.132
  24362647.652    -4934043.38449  -3828275.40145  24362647.589    24362656.383
  22428148.178   -15805213.20049 -12304479.44546  22428147.706    22428154.153
  22439178.714   -15672907.56649 -11911473.38946  22439178.120    22439183.153
  22898828.778   -11702712.18149  -9097097.63046  22898828.011    22898834.606
 03  4 11  1  8  0.0000000  0  8G31G14G 9G15G25G 3G18G23
  22447927.928   -11901964.91449  -9259117.43546  22447927.273    22447933.204
  20210796.704   -26765218.47349 -20846574.87648  20210796.087    20210800.182
  23857262.197    -6521117.29049  -4937414.71645  23857261.782    23857269.024
  21432070.263   -22292327.14149 -17358462.63947  21432069.387    21432075.802
  24343890.870    -5032610.76049  -3905080.94145  24343890.706    24343899.481
  22439349.693   -15746348.90849 -12258611.19746  22439349.222    22439355.698
  22450934.835   -15611128.92149 -11863334.20646  22450934.192    22450939.236
  22909112.612   -11648670.06649  -9054986.91846  22909111.862    22909118.434
 03  4 11  1  8 30.0000000  0  8G31G14G 9G15G25G 3G18G23
  22451249.333   -11884510.81049  -9245516.84446  22451248.694    22451254.632
  20209665.195   -26771164.54149 -20851208.16248  20209664.580    20209668.651
  23867005.331    -6469916.17949  -4897517.76145  23867004.966    23867012.183
  21445793.075   -22220213.27949 -17302270.04447  21445792.227    21445798.628
  24325127.537    -5131211.64749  -3981912.60145  24325127.444    24325136.055
  22450623.082   -15687106.87149 -12212448.60146  22450622.627    22450629.090
  22462710.057   -15549249.56249 -11815116.53446  22462709.510    22462714.510
  22919406.123   -11594577.80149  -9012837.11946  22919405.316    22919411.896
 03  4 11  1  9  0.0000000  0  8G31G14G 9G15G25G 3G18G23
  22454674.082   -11866513.45849  -9231492.94246  22454673.483    22454679.440
  20208632.514   -26776591.43849 -20855436.89948  20208631.895    20208635.944
  23876852.056    -6418171.65449  -4857197.35245  23876851.750    23876858.837
  21459589.136   -22147714.63149 -17245777.62947  21459588.266    21459594.704
  24306358.501    -5229842.70649  -4058767.73245  24306358.389    24306366.979
  22461968.076   -15627488.59849 -12165992.84646  22461967.624    22461974.096
  22474504.603   -15487268.84949 -11766819.89746  22474504.044    22474509.083
  22929709.268   -11540434.23149  -8970647.33746  22929708.474    22929715.054
 03  4 11  1  9 30.0000000  0  8G31G14G 9G15G25G 3G18G23
  22458201.998   -11847974.06349  -9217046.67146  22458201.411    22458207.369
  20207698.490   -26781499.61249 -20859261.43748  20207697.862    20207701.918
  23886801.934    -6365884.81749  -4816454.34545  23886801.592    23886808.643
  21473458.246   -22074832.03049 -17188986.01747  21473457.375    21473463.817
  24287584.392    -5328500.55149  -4135643.74545  24287584.395    24287592.882
  22473384.232   -15567496.50449 -12119245.78646  22473383.780    22473390.250
  22486318.407   -15425186.85049 -11718444.33446  22486317.846    22486322.927
  22940022.244   -11486239.12449  -8928417.41346  22940021.503    22940028.069
 03  4 11  1 10  0.0000000  0  8G31G14G 9G15G25G 3G18G23
  22461832.853   -11828894.39149  -9202179.40146  22461832.157    22461838.131
  20206862.897   -26785890.60349 -20862682.97448  20206862.280    20206866.316
  23896854.542    -6313057.66649  -4775290.33445  23896854.211    23896861.345
  21487400.203   -22001566.72149 -17131896.19947  21487399.323    21487405.777
  24268805.616    -5427183.24349  -4212539.14845  24268805.536    24268813.856
  22484870.988   -15507133.41949 -12072209.65446  22484870.548    22484876.983
  22498151.393   -15363004.18849 -11669990.33546  22498150.834    22498155.941
  22950344.970   -11431992.92849  -8886147.66346  22950344.217    22950350.788
 03  4 11  1 10 30.0000000  0  8G31G14G 9G15G25G 3G18G23
  22465566.264   -11809275.23849  -9186891.76546  22465565.552    22465571.540
  20206125.740   -26789764.47149 -20865701.56348  20206125.131    20206129.174
  23907009.880    -6259691.41749  -4733706.24545  23907009.482    23907016.750
  21501414.834   -21927919.32349 -17074508.65447  21501413.991    21501420.441
  24250022.573    -5525887.68349  -4289451.48345  24250022.588    24250030.958
  22496427.862   -15446401.75849 -12024886.31746  22496427.407    22496433.847
  22510003.545   -15300720.74349 -11621457.79846  22510002.979    22510008.083
  22960677.451   -11377695.22849  -8843837.77746  22960676.714    22960683.298
 03  4 11  1 11  0.0000000  0  8G31G14G 9G15G25G 3G18G23
  22469402.075   -11789118.05649  -9171184.87946  22469401.337    22469407.310
  20205486.761   -26793122.20549 -20868317.97048  20205486.153    20205490.176
  23917267.289    -6205787.70249  -4691703.36345  23917267.061    23917274.217
  21515501.974   -21853891.01649 -17016824.28147  21515501.149    21515507.600
  24231236.016    -5624611.18649  -4366378.65745  24231235.886    24231244.201
  22508054.342   -15385304.28949 -11977277.93846  22508053.859    22508060.307
  22521874.880   -15238336.76949 -11572846.93146  22521874.281    22521879.381
  22971019.767   -11323345.78249  -8801487.59346  22971019.104    22971025.702
 03  4 11  1 11 30.0000000  0  8G31G14G 9G15G25G 3G18G23
  22473339.903   -11768424.73449  -9155060.22346  22473339.162    22473345.153
  20204945.752   -26795965.11849 -20870533.21848  20204945.138    20204949.171
  23927626.804    -6151348.85549  -4649283.47645  23927626.390    23927633.714
  21529661.296   -21779483.22649 -16958844.21347  21529660.476    21529666.957
  24212446.085    -5723351.62649  -4443319.06045  24212446.033    24212454.375
  22519749.889   -15323843.86549 -11929386.73546  22519749.412    22519755.868
  22533765.196   -15175852.85049 -11524158.17946  22533764.579    22533769.683
  22981371.942   -11268944.96849  -8759097.36246  22981371.288    22981377.848
 03  4 11  1 12  0.0000000  0  9G31G14G 9G15G25G11G 3G18G23
  22477378.951   -11747199.26049  -9138520.90246  22477378.235    22477384.241
  20204502.049   -26798296.81149 -20872350.11448  20204501.425    20204505.469
  23938087.099    -6096379.11749  -4606449.90645  23938086.807    23938094.060
  21543892.136   -21704699.72149 -16900571.38247  21543891.324    21543897.808
  24193653.023    -5822109.25049  -4520272.84145  24193652.892    24193661.290
  24663748.420    -4076333.80549  -2580725.00645  24663747.792    24663753.559
  22531513.491   -15262025.73049 -11881216.79546  22531513.048    22531519.505
  22545673.939   -15113272.04049 -11475393.92846  22545673.325    22545678.449
  22991733.298   -11214495.65449  -8716669.34846  22991732.655    22991739.237
 03  4 11  1 12 30.0000000  0  9G31G14G 9G15G25G11G 3G18G23
  22481519.732   -11725439.21649  -9121565.04246  22481519.048    22481525.055
  20204156.187   -26800114.16149 -20873766.22648  20204155.584    20204159.610
  23948648.960    -6040876.21849  -4563200.89045  23948648.615    23948655.816
  21558195.074   -21629537.59049 -16842003.51247  21558194.262    21558200.738
  24174857.913    -5920877.46549  -4597234.88245  24174857.705    24174866.143
  24644656.939    -4176660.46349  -2658901.58645  24644656.320    24644662.116
  22543345.360   -15199849.09049 -11832767.50446  22543344.907    22543351.352
  22557601.815   -15050590.54249 -11426551.23546  22557601.218    22557606.344
  23002104.655   -11159993.67449  -8674200.29446  23002103.985    23002110.633
 03  4 11  1 13  0.0000000  0  9G31G14G 9G15G25G11G 3G18G23
  22485762.045   -11703145.51149  -9104193.33646  22485761.401    22485767.411
  20203908.161   -26801417.55449 -20874781.85448  20203907.536    20203911.589
  23959312.141    -5984841.20049  -4519537.24145  23959311.724    23959318.913
  21572569.929   -21553997.32349 -16783140.99047  21572569.111    21572575.599
  24156061.403    -6019653.06949  -4674202.69245  24156061.177    24156069.528
  24625577.099    -4276925.62649  -2737030.25445  24625576.528    24625582.314
  22555245.107   -15137315.73849 -11784040.25346  22555244.649    22555251.126
  22569548.981   -14987807.97849 -11377629.78046  22569548.346    22569553.505
  23012486.249   -11105438.25549  -8631689.59046  23012485.538    23012492.211
 03  4 11  1 13 30.0000000  0  9G31G14G 9G15G25G11G 3G18G23
  22490105.534   -11680320.25849  -9086407.43346  22490104.914    22490110.925
  20203757.590   -26802208.67249 -20875398.30348  20203756.980    20203761.035
  23970075.812    -5928276.61449  -4475460.96145  23970075.532    23970082.740
  21587016.373   -21478080.83749 -16723985.30547  21587015.550    21587022.059
  24137263.760    -6118434.33649  -4751174.93245  24137263.461    24137271.814
  24606509.208    -4377128.05349  -2815110.00945  24606508.738    24606514.455
  22567212.063   -15074429.03249 -11735037.66046  22567211.594    22567218.096
  22581515.184   -14924925.30449 -11328630.30746  22581514.533    22581519.695
  23022877.853   -11050830.27549  -8589137.94046  23022877.154    23022883.823
 03  4 11  1 14  0.0000000  0  9G31G14G 9G15G25G11G 3G18G23
  22494549.919   -11656965.02049  -9068208.56146  22494549.297    22494555.303
  20203704.378   -26802488.39449 -20875616.26748  20203703.757    20203707.813
  23980940.362    -5871184.26449  -4430973.40645  23980939.981    23980947.072
  21601534.220   -21401789.08349 -16664537.20647  21601533.380    21601539.876
  24118465.607    -6217218.55149  -4828149.45845  24118465.254    24118473.606
  24587453.532    -4477266.02049  -2893139.52745  24587453.051    24587458.761
  22579245.725   -15011191.81849 -11685761.94746  22579245.283    22579251.778
  22593500.338   -14861942.98149 -11279553.19846  22593499.695    22593504.839
  23033279.436   -10996169.55649  -8546545.20146  23033278.763    23033285.465
 03  4 11  1 14 30.0000000  0  9G31G14G 9G15G25G11G 3G18G23
  22499094.685   -11633082.29649  -9049598.65946  22499094.031    22499100.059
  20203748.117   -26802258.51049 -20875437.13248  20203747.507    20203751.556
  23991904.435    -5813566.86949  -4386076.74045  23991904.030    23991911.297
  21616123.083   -21325124.26449 -16604798.39947  21616122.230    21616128.754
  24099667.272    -6316003.75249  -4905124.74645  24099666.908    24099675.294
  24568410.383    -4577338.27649  -2971117.82645  24568410.084    24568415.607
  22591345.383   -14947607.80049 -11636215.99846  22591344.977    22591351.469
  22605504.316   -14798861.55749 -11230398.87546  22605503.705    22605508.859
  23043690.866   -10941456.93649  -8503912.00046  23043690.205    23043696.885
 03  4 11  1 15  0.0000000  0  9G31G14G 9G15G25G11G 3G18G23
  22503739.713   -11608672.39049  -9030577.97046  22503739.085    22503745.088
  20203888.829   -26801518.93749 -20874860.83948  20203888.219    20203892.290
  24002968.551    -5755425.11749  -4340771.49645  24002968.171    24002975.563
  21630782.922   -21248086.15749 -16544768.73947  21630782.091    21630788.614
  24080869.396    -6414786.47849  -4982098.13845  24080869.031    24080877.375
  24549380.236    -4677341.66949  -3049042.48545  24549379.897    24549385.532
  22603510.791   -14883678.23949 -11586400.79246  22603510.355    22603516.885
  22617527.269   -14735680.54749 -11181166.93046  22617526.652    22617531.881
  23054112.476   -10886691.11949  -8461237.36846  23054111.830    23054118.501
 03  4 11  1 15 30.0000000  0  9G31G14G 9G15G25G11G 3G18G23
  22508484.666   -11583737.76849  -9011148.40946  22508484.021    22508490.037
  20204126.225   -26800271.43949 -20873888.75748  20204125.615    20204129.684
  24014131.793    -5696761.42349  -4295059.51545  24014131.284    24014138.687
  21645513.467   -21170676.82249 -16484449.79947  21645512.633    21645519.161
  24062072.393    -6513564.65349  -5059067.97245  24062071.994    24062080.276
  24530363.407    -4777275.44349  -3126912.87145  24530363.143    24530368.731
  22615741.253   -14819407.03849 -11536319.37446  22615740.808    22615747.345
  22629568.975   -14672400.87749 -11131858.11846  22629568.386    22629573.578
  23064544.104   -10831872.89849  -8418521.88246  23064543.399    23064550.083
 03  4 11  1 16  0.0000000  0  9G31G14G 9G15G25G11G 3G18G23
  22513329.096   -11558280.10949  -8991311.28646  22513328.437    22513334.467
  20204460.058   -26798517.07149 -20872521.70948  20204459.464    20204463.512
  24025394.067    -5637578.01649  -4248942.57445  24025393.686    24025400.954
  21660314.422   -21092897.39049 -16423842.47247  21660313.577    21660320.108
  24043276.794    -6612335.63149  -5136032.20145  24043276.326    24043284.682
  24511360.291    -4877137.34149  -3204727.28445  24511360.078    24511365.558
  22628036.172   -14754796.94849 -11485973.88946  22628035.717    22628042.253
  22641629.475   -14609022.64549 -11082472.50646  22641628.887    22641634.076
  23074985.614   -10777002.24349  -8375765.54346  23074984.930    23074991.620
 03  4 11  1 16 30.0000000  0  9G31G14G 9G15G25G11G 3G18G23
  22518272.829   -11532300.69949  -8971067.60846  22518272.175    22518278.163
  20204890.175   -26796256.83649 -20870760.48248  20204889.576    20204893.614
  24036754.857    -5577876.40149  -4202421.84945  24036754.461    24036761.861
  21675185.642   -21014748.64749 -16362947.36447  21675184.782    21675191.346
  24024483.019    -6711096.83049  -5212988.83645  24024482.627    24024490.912
  24492371.282    -4976925.26349  -3282484.07645  24492370.965    24492376.583
  22640395.145   -14689850.26149 -11435366.10646  22640394.681    22640401.216
  22653708.736   -14545545.98849 -11033010.18646  22653708.114    22653713.281
  23085437.265   -10722078.73349  -8332968.01946  23085436.544    23085443.266
 03  4 11  1 17  0.0000000  0  9G31G14G 9G15G25G11G 3G18G23
  22523315.550   -11505801.04149  -8950418.53946  22523314.914    22523320.893
  20205416.408   -26793491.42049 -20868605.60548  20205415.802    20205419.844
  24048214.080    -5517658.08549  -4155498.46845  24048213.618    24048220.724
  21690126.934   -20936231.74349 -16301765.39647  21690126.088    21690132.645
  24005691.626    -6809845.55349  -5289935.72045  24005691.266    24005699.423
  24473396.771    -5076636.90449  -3360181.40745  24473396.441    24473401.980
  22652817.615   -14624569.75249 -11384498.21346  22652817.161    22652823.726
  22665806.662   -14481970.93049 -10983471.19246  22665806.069    22665811.210
  23095898.999   -10667102.10449  -8290129.10546  23095898.273    23095904.999
 03  4 11  1 17 30.0000000  0  9G31G14G 9G15G25G11G 3G18G23
  22528456.874   -11478783.07549  -8929365.59546  22528456.284    22528462.235
  20206038.514   -26790222.25749 -20866058.20148  20206037.911    20206041.954
  24059771.139    -5456925.27649  -4108174.22445  24059770.797    24059778.059
  21705138.044   -20857348.10049 -16240297.64647  21705137.176    21705143.723
  23986903.120    -6908579.16349  -5366870.84545  23986902.713    23986910.856
  24454437.043    -5176270.87049  -3437818.23745  24454436.845    24454442.186
  22665303.098   -14558958.23249 -11333372.38646  22665302.628    22665309.228
  22677923.269   -14418297.71949 -10933855.73246  22677922.661    22677927.782
  23106370.779   -10612072.49249  -8247248.91546  23106370.063    23106376.772
 03  4 11  1 18  0.0000000  0  9G31G14G 9G15G25G11G 3G18G23
  22533696.473   -11451248.76249  -8907910.29846  22533695.917    22533701.879
  20206756.158   -26786450.86349 -20863119.44348  20206755.554    20206759.607
  24071425.646    -5395680.14349  -4060450.74545  24071425.349    24071432.473
  21720218.583   -20778099.27249 -16178545.34647  21720217.746    21720224.258
  23968117.986    -7007295.18849  -5443792.31645  23968117.640    23968125.569
  24435492.386    -5275825.39549  -3515393.11845  24435492.192    24435497.658
  22677850.990   -14493018.76049 -11281991.01646  22677850.561    22677857.146
  22690058.434   -14354527.04349 -10884164.31046  22690057.830    22690062.988
  23116852.644   -10556990.03649  -8204327.53346  23116851.896    23116858.625
 03  4 11  1 18 30.0000000  0  9G31G14G 9G15G25G11G 3G18G23
  22539034.194   -11423198.95749  -8886053.32846  22539033.632    22539039.615
  20207569.395   -26782177.24349 -20859789.34448  20207568.791    20207572.834
  24083177.642    -5333923.84249  -4012328.94445  24083177.323    24083184.366
  21735368.558   -20698485.68849 -16116508.80847  21735367.728    21735374.276
  23949336.865    -7105989.91649  -5520697.10945  23949336.509    23949344.546
  24416563.389    -5375297.69449  -3592903.93245  24416563.116    24416568.558
  22690460.853   -14426753.65549 -11230355.89746  22690460.361    22690467.037
  22702212.279   -14290658.32249 -10834396.49446  22702211.686    22702216.829
  23127344.781   -10501853.72749  -8161364.20046  23127344.023    23127350.718
 03  4 11  1 19  0.0000000  0  9G31G14G 9G15G25G11G 3G18G23
  22544469.565   -11394636.12849  -8863796.59746  22544468.969    22544474.964
  20208477.853   -26777403.37449 -20856069.43548  20208477.232    20208481.288
  24095026.105    -5271659.22249  -3963811.07145  24095025.820    24095032.974
  21750587.590   -20618509.32149 -16054189.59547  21750586.752    21750593.306
  23930560.091    -7204661.83949  -5597584.17945  23930559.810    23930567.640
  24397650.294    -5474686.11549  -3670349.37445  24397649.920    24397655.598
  22703131.979   -14360166.42949 -11178469.78146  22703131.489    22703138.182
  22714384.604   -14226692.34849 -10784552.90146  22714384.040    22714389.194
  23137847.014   -10446664.23049  -8118359.41746  23137846.242    23137852.984
 03  4 11  1 19 30.0000000  0  9G31G14G 9G15G25G11G 3G18G23
  22550002.318   -11365561.38449  -8841140.97546  22550001.709    22550007.679
  20209481.366   -26772129.74549 -20851960.10848  20209480.748    20209484.802
  24106971.255    -5208887.49649  -3914898.03145  24106970.922    24106978.068
  21765875.536   -20538170.70849 -15991588.11747  21765874.669    21765881.260
  23911788.288    -7303307.40149  -5674450.69445  23911787.954    23911795.776
  24378753.636    -5573988.44149  -3747727.72145  24378753.289    24378758.833
  22715864.031   -14293259.06149 -11126334.21346  22715863.555    22715870.254
  22726575.606   -14162628.37149 -10734632.94646  22726575.019    22726580.184
  23148359.462   -10391420.84649  -8075312.64346  23148358.725    23148365.474
 03  4 11  1 20  0.0000000  0  9G31G14G 9G15G25G11G 3G18G23
  22555632.088   -11335976.81849  -8818088.09146  22555631.491    22555637.418
  20210579.750   -26766357.70349 -20847462.40548  20210579.147    20210583.180
  24119012.236    -5145611.00749  -3865591.71445  24119011.975    24119019.257
  21781232.106   -20457471.44649 -15928705.60547  21781231.247    21781237.863
  23893022.050    -7401924.33749  -5751294.93045  23893021.666    23893029.482
  24359873.696    -5673202.92749  -3825037.62845  24359873.289    24359878.830
  22728656.437   -14226034.73549 -11073951.65446  22728655.969    22728662.690
  22738785.098   -14098467.06049 -10684637.14546  22738784.517    22738789.656
  23158882.166   -10336123.78449  -8032224.04746  23158881.449    23158888.134
 03  4 11  1 20 30.0000000  0  9G31G14G 9G15G25G11G 3G18G23
  22561358.531   -11305884.29249  -8794639.39746  22561357.917    22561363.899
  20211772.749   -26760088.44649 -20842577.26448  20211772.121    20211776.180
  24131149.111    -5081832.07549  -3815893.83145  24131148.794    24131155.903
  21796657.070   -20376412.72349 -15865542.98947  21796656.219    21796662.840
  23874261.663    -7500509.96049  -5828114.75145  23874261.373    23874269.147
  24341010.873    -5772327.57149  -3902277.53745  24341010.379    24341015.992
  22741508.609   -14158496.22449 -11021324.27746  22741508.172    22741514.891
  22751013.011   -14034208.80349 -10634565.79346  22751012.461    22751017.614
  23169415.105   -10280773.01049  -7989093.58946  23169414.378    23169421.086
 03  4 11  1 21  0.0000000  0  9G31G14G 9G15G25G11G 3G18G23
  22567181.364   -11275285.02949  -8770795.83746  22567180.746    22567186.759
  20213060.174   -26753322.92349 -20837305.42148  20213059.570    20213063.602
  24143381.117    -5017551.91349  -3765805.40945  24143380.825    24143388.112
  21812150.363   -20294995.08949 -15802100.71247  21812149.513    21812156.139
  23855507.875    -7599061.35849  -5904907.88445  23855507.487    23855515.332
  24322165.566    -5871359.92349  -3979445.52845  24322165.126    24322170.653
  22754420.152   -14090645.77449 -10968453.83146  22754419.713    22754426.436
  22763259.530   -13969853.02249 -10584418.46146  22763258.954    22763264.082
  23179958.353   -10225367.83349  -7945920.75146  23179957.619    23179964.355
 03  4 11  1 21 30.0000000  0  9G31G14G 9G15G25G11G 3G18G23
  22573100.227   -11244181.40849  -8746559.27646  22573099.608    22573105.592
  20214441.696   -26746062.87749 -20831648.23648  20214441.094    20214445.127
  24155708.181    -4952773.30649  -3715328.56445  24155707.811    24155714.998
  21827711.532   -20213220.56849 -15738380.34147  21827710.690    21827717.332
  23836760.968    -7697576.14349  -5981672.53245  23836760.654    23836768.315
  24303338.069    -5970298.79649  -4056540.68245  24303337.539    24303343.006
  22767390.362   -14022487.01249 -10915343.14946  22767389.894    22767396.653
  22775524.435   -13905400.59649 -10534195.81946  22775523.833    22775529.012
  23190511.952   -10169908.58249  -7902705.77246  23190511.203    23190517.916
 03  4 11  1 22  0.0000000  0  9G31G14G 9G15G25G11G 3G18G23
  22579114.751   -11212574.86549  -8721930.82846  22579114.164    22579120.136
  20215917.256   -26738308.69149 -20825606.00948  20215916.642    20215920.690
  24168129.665    -4887497.60649  -3664464.42145  24168129.312    24168136.682
  21843340.503   -20131089.97549 -15674382.51147  21843339.660    21843346.291
  23818021.732    -7796051.06449  -6058406.06045  23818021.347    23818029.092
  24284528.908    -6069140.98549  -4133560.49945  24284528.411    24284533.709
  22780418.808   -13954022.18749 -10861993.96846  22780418.345    22780425.145
  22787807.856   -13840850.78349 -10483897.28546  22787807.319    22787812.452
  23201075.899   -10114394.58549  -7859448.13746  23201075.130    23201081.851
 03  4 11  1 22 30.0000000  0  9G31G14G 9G15G25G11G 3G18G23
  22585224.585   -11180467.50849  -8696912.13646  22585224.005    22585229.998
  20217486.537   -26730062.05049 -20819180.05248  20217485.936    20217489.974
  24180645.305    -4821727.35149  -3613214.86345  24180644.978    24180652.195
  21859036.873   -20048605.16549 -15610108.67347  21859036.044    21859042.672
  23799290.490    -7894483.85349  -6135106.80145  23799290.194    23799297.922
  24265738.384    -6167885.25849  -4210504.02745  24265737.959    24265743.292
  22793504.917   -13885254.38749 -10808408.70946  22793504.465    22793511.248
  22800109.667   -13776204.42049 -10433523.53046  22800109.103    22800114.210
  23211650.285   -10058825.92749  -7816147.91246  23211649.559    23211656.245
 03  4 11  1 23  0.0000000  0  9G31G14G 9G15G25G11G 3G18G23
  22591429.384   -11147861.06349  -8671504.54446  22591428.819    22591434.830
  20219149.317   -26721324.13349 -20812371.28148  20219148.715    20219152.760
  24193254.819    -4755464.52449  -3561581.49945  24193254.260    24193261.593
  21874800.447   -19965767.11949 -15545559.58447  21874799.621    21874806.247
  23780567.796    -7992871.59349  -6211772.41045  23780567.396    23780575.182
  24246966.982    -6266529.19349  -4287369.32845  24246966.624    24246971.955
  22806648.165   -13816186.21749 -10754589.38646  22806647.716    22806654.519
  22812429.874   -13711461.46949 -10383074.49046  22812429.304    22812434.437
  23222235.123   -10003202.26349  -7772804.82046  23222234.402    23222241.080
 03  4 11  1 23 30.0000000  0  9G31G14G 9G15G25G11G 3G18G23
  22597728.843   -11114757.26349  -8645709.39846  22597728.288    22597734.296
  20220905.317   -26712096.15849 -20805180.64748  20220904.719    20220908.752
  24205957.439    -4688711.02149  -3509565.82245  24205956.964    24205964.443
  21890631.051   -19882576.92349 -15480736.08947  21890630.222    21890636.850
  23761854.250    -8091211.43049  -6288400.71045  23761853.901    23761861.579
  24228215.155    -6365070.30849  -4364154.55145  24228214.777    24228220.014
  22819848.074   -13746820.41349 -10700538.15446  22819847.628    22819854.429
  22824768.426   -13646621.98249 -10332550.22546  22824767.872    22824772.980
  23232830.490    -9947523.31149  -7729418.64446  23232829.766    23232836.445
 03  4 11  1 24  0.0000000  0  9G31G14G 9G15G25G11G 3G18G23
  22604122.571   -11081158.40349  -8619528.49046  22604121.972    22604127.990
  20222754.340   -26702379.59349 -20797609.29348  20222753.729    20222757.778
  24218753.285    -4621469.43449  -3457169.74245  24218752.846    24218759.985
  21906528.325   -19799036.30949 -15415639.54946  21906527.516    21906534.114
  23743150.260    -8189500.94049  -6364989.79845  23743149.949    23743157.500
  24209483.179    -6463507.36549  -4440858.67845  24209482.714    24209488.029
  22833103.930   -13677160.40849 -10646257.66946  22833103.491    22833110.315
  22837125.298   -13581686.25449 -10281950.98246  22837124.738    22837129.894
  23243436.354    -9891789.22449  -7685989.50646  23243435.654    23243442.327
 03  4 11  1 24 30.0000000  0  9G31G14G 9G15G25G11G 3G18G23
  22610610.144   -11047065.95249  -8592962.97146  22610609.561    22610615.607
  20224696.145   -26692175.34049 -20789657.92548  20224695.535    20224699.571
  24231641.245    -4553741.24849  -3404394.58745  24231640.774    24231648.388
  21922492.115   -19715146.29749 -15350270.74446  21922491.275    21922497.907
  23724456.387    -8287737.28049  -6441537.44345  23724456.071    23724463.716
  24190771.470    -6561837.91149  -4517479.84045  24190770.958    24190776.392
  22846415.359   -13607208.58749 -10591749.79246  22846414.916    22846421.752
  22849500.494   -13516654.20349 -10231276.68546  22849499.920    22849505.103
  23254052.796    -9835999.50449  -7642517.01946  23254052.075    23254058.739
 03  4 11  1 25  0.0000000  0  9G31G14G 9G15G25G11G 3G18G23
  22617191.161   -11012482.33149  -8566014.72746  22617190.585    22617196.669
  20226730.409   -26681485.14449 -20781327.90048  20226729.796    20226733.837
  24244621.807    -4485529.28849  -3351242.39245  24244621.477    24244628.715
  21938521.998   -19630908.71749 -15284631.10946  21938521.178    21938527.841
  23705773.109    -8385918.01349  -6518041.75945  23705772.706    23705780.340
  24172080.460    -6660059.84649  -4594016.34445  24172079.947    24172085.286
  22859781.684   -13536968.14049 -10537017.01746  22859781.243    22859788.085
  22861893.989   -13451526.09049 -10180527.52846  22861893.380    22861898.638
  23264679.810    -9780154.22449  -7599001.23446  23264679.088    23264685.806
 03  4 11  1 25 30.0000000  0  9G31G14G 9G15G25G11G 3G18G23
  22623865.395   -10977409.23149  -8538685.06246  22623864.794    22623870.878
  20228856.963   -26670309.89649 -20772619.91248  20228856.354    20228860.386
  24257693.668    -4416835.24949  -3297714.59145  24257693.328    24257700.602
  21954617.837   -19546324.51349 -15218721.37446  21954617.035    21954623.703
  23687100.943    -8484040.24549  -6594500.53345  23687100.552    23687108.129
  24153410.425    -6758171.26449  -4670466.74745  24153409.943    24153415.379
  22873202.455   -13466441.54449 -10482061.26446  22873202.012    22873208.861
  22874305.801   -13386301.65649 -10129703.32046  22874305.218    22874310.468
  23275317.497    -9724252.92249  -7555441.78946  23275316.783    23275323.527
 03  4 11  1 26  0.0000000  0  9G31G14G 9G15G25G11G 3G18G23
  22630632.403   -10941848.45349  -8510975.39346  22630631.820    22630637.880
  20231075.577   -26658651.06649 -20763535.10848  20231074.978    20231079.003
  24270857.260    -4347661.23449  -3243812.75545  24270856.966    24270864.025
  21970779.483   -19461394.78449 -15152542.39946  21970778.637    21970785.326
  23668440.554    -8582100.83249  -6670911.25945  23668440.210    23668447.623
  24134761.917    -6856169.64949  -4746829.05545  24134761.532    24134766.834
  22886677.129   -13395631.78849 -10426884.87746  22886676.664    22886683.547
  22886735.889   -13320981.28349 -10078804.34746  22886735.293    22886740.531
  23285965.825    -9668295.43049  -7511838.57746  23285965.162    23285971.876
 03  4 11  1 26 30.0000000  0  9G31G14G 9G15G25G11G 3G18G23
  22637491.850   -10905801.95749  -8482887.23946  22637491.231    22637497.314
  20233385.998   -26646509.66649 -20754074.27248  20233385.399    20233389.429
  24284111.405    -4278009.31549  -3189538.57545  24284111.159    24284118.417
  21987006.603   -19376120.87349 -15086095.22246  21987005.743    21987012.438
  23649792.257    -8680097.27749  -6747271.96945  23649792.008    23649799.450
  24116135.350    -6954052.78949  -4823101.58045  24116134.937    24116140.263
  22900205.195   -13324541.38349 -10371489.79646  22900204.758    22900211.599
  22899184.269   -13255564.64549 -10027830.36346  22899183.724    22899188.920
  23296624.970    -9612281.45549  -7468191.34346  23296624.253    23296631.022
 03  4 11  1 27  0.0000000  0  9G31G14G 9G15G25G11G 3G18G23
  22644443.205   -10869272.49349  -8454422.74546  22644442.588    22644448.664
  20235787.843   -26633887.75149 -20744239.01148  20235787.246    20235791.281
  24297456.218    -4207882.49749  -3134894.27845  24297455.891    24297463.149
  22003298.743   -19290505.09049 -15019381.64946  22003297.894    22003304.610
  23631156.750    -8778027.30049  -6823580.96145  23631156.532    23631163.846
  24097530.935    -7051819.25749  -4899283.18745  24097530.567    24097535.890
  22913785.975   -13253174.14649 -10315879.01146  22913785.576    22913792.374
  22911650.821   -13190052.53649  -9976781.98446  22911650.295    22911655.499
  23307294.745    -9556211.40549  -7424500.41346  23307294.057    23307300.800
 03  4 11  1 27 30.0000000  0  9G31G14G 9G15G25G11G 3G18G23
  22651486.259   -10832261.11749  -8425582.74346  22651485.593    22651491.685
  20238281.057   -26620785.87649 -20734029.75848  20238280.460    20238284.508
  24310890.891    -4137282.19749  -3079881.05745  24310890.670    24310897.912
  22019655.863   -19204547.86749 -14952402.02046  22019655.020    22019661.726
  23612534.518    -8875887.17149  -6899835.32045  23612534.323    23612541.528
  24078949.340    -7149466.12149  -4975371.60945  24078948.921    24078954.239
  22927419.036   -13181532.09949 -10260054.08146  22927418.658    22927425.432
  22924135.692   -13124444.33449  -9925658.72546  22924135.182    22924140.334
  23317975.439    -9500084.08649  -7380764.86946  23317974.722    23317981.510
 03  4 11  1 28  0.0000000  0  9G31G14G 9G15G25G11G 3G18G23
  22658620.503   -10794770.54449  -8396369.33046  22658619.834    22658625.935
  20240865.204   -26607206.01249 -20723448.04048  20240864.611    20240868.646
  24324415.347    -4066211.12949  -3024500.99345  24324415.127    24324422.383
  22036077.615   -19118251.06749 -14885157.78346  22036076.801    22036083.487
  23593926.060    -8973674.76949  -6976033.32745  23593925.776    23593933.014
  24060390.801    -7246991.77149  -5051365.57345  24060390.358    24060395.759
  22941103.736   -13109618.58949 -10204017.63146  22941103.344    22941110.161
  22936638.747   -13058740.50049  -9874460.95846  22936638.226    22936643.427
  23328666.918    -9443899.87549  -7336984.97246  23328666.241    23328673.082
 03  4 11  1 28 30.0000000  0  9G31G14G 9G15G25G11G 3G18G23
  22665845.578   -10756802.52249  -8366783.88446  22665844.932    22665851.046
  20243540.165   -26593149.06749 -20712494.57648  20243539.559    20243543.603
  24338028.861    -3994671.23149  -2968755.62045  24338028.604    24338035.791
  22052563.755   -19031616.01449 -14817649.97746  22052562.908    22052569.639
  23575331.886    -9071387.30449  -7052172.87745  23575331.549    23575338.827
  24041855.777    -7344393.82449  -5127263.22145  24041855.360    24041860.755
  22954839.624   -13037436.21949 -10147771.67046  22954839.206    22954846.070
  22949159.999   -12992941.02949  -9823188.67546  22949159.447    22949164.643
  23339369.339    -9387658.34549  -7293160.42846  23339368.691    23339375.490
 03  4 11  1 29  0.0000000  0  9G31G14G 9G15G25G11G 3G18G23
  22673161.153   -10718359.12749  -8336828.02246  22673160.498    22673166.606
  20246305.570   -26578616.70049 -20701170.65048  20246304.955    20246309.002
  24351731.239    -3922665.09449  -2912646.95645  24351730.967    24351738.227
  22069114.012   -18944643.98449 -14749879.59246  22069113.181    22069119.914
  23556752.631    -9169021.68549  -7128251.53845  23556752.370    23556759.526
  24023344.647    -7441670.37549  -5203063.08145  24023344.234    24023349.640
  22968626.113   -12964988.00449 -10091318.55046  22968625.672    22968632.528
  22961699.390   -12927046.05449  -9771841.94746  22961698.797    22961704.067
  23350082.727    -9331359.22949  -7249290.99946  23350082.024    23350088.865
 03  4 11  1 29 30.0000000  0  8G31G14G15G25G11G 3G18G23
  22680566.804   -10679442.30349  -8306503.24246  22680566.170    22680572.280
  20249161.232   -26563610.10149 -20689477.19848  20249160.618    20249164.656
  22085728.153   -18857336.30949 -14681847.67246  22085727.289    22085734.023
  23538188.704    -9266574.96649  -7204266.98745  23538188.390    23538195.539
  24004857.831    -7538818.84949  -5278763.13745  24004857.433    24004862.868
  22982462.735   -12892276.31549 -10034660.15246  22982462.272    22982469.164
  22974257.030   -12861055.34549  -9720420.63446  22974256.443    22974261.710
  23360807.173    -9275002.09449  -7205376.37446  23360806.480    23360813.345
 03  4 11  1 30  0.0000000  0  8G31G14G15G25G11G 3G18G23
  22688062.117   -10640054.10449  -8275811.16846  22688061.502    22688067.611
  20252106.886   -26548130.58449 -20677415.23848  20252106.279    20252110.323
  22102405.887   -18769694.22849 -14613555.17846  22102405.053    22102411.775
  23519640.840    -9364044.51449  -7280217.16745  23519640.492    23519647.719
  23986395.895    -7635836.93249  -5354361.58845  23986395.454    23986400.920
  22996348.878   -12819304.28849  -9977798.87246  22996348.399    22996355.302
  22986832.880   -12794968.74649  -9668924.62346  22986832.357    22986837.593
  23371542.758    -9218586.55849  -7161416.23346  23371542.068    23371548.884
 03  4 11  1 30 30.0000000  0  8G31G14G15G25G11G 3G18G23
  22695646.703   -10600196.99949  -8244753.70046  22695646.091    22695652.202
  20255142.186   -26532180.01449 -20664986.22248  20255141.587    20255145.629
  22119146.933   -18681719.70749 -14545003.64446  22119146.084    22119152.819
  23501109.245    -9461428.18649  -7356100.46845  23501108.941    23501116.038
  23967959.099    -7732722.65749  -5429856.89945  23967958.668    23967964.091
  23010284.004   -12746075.03649  -9920737.15246  23010283.542    23010290.432
  22999426.877   -12728786.95849  -9617354.40446  22999426.339    22999431.583
  23382289.404    -9162112.64449  -7117410.60546  23382288.708    23382295.523
 03  4 11  1 31  0.0000000  0  8G31G14G15G25G11G 3G18G23
  22703320.034   -10559873.44949  -8213332.77846  22703319.409    22703325.502
  20258266.821   -26515759.91549 -20652191.34148  20258266.224    20258270.280
  22135950.923   -18593414.33449 -14476194.29946  22135950.070    22135956.812
  23482594.542    -9558723.09049  -7431914.61145  23482594.228    23482601.306
  23949547.796    -7829474.47149  -5505247.88545  23949547.353    23949552.700
  23024267.426   -12672591.84649  -9863477.57046  23024266.952    23024273.844
  23012038.943   -12662510.23149  -9565710.21946  23012038.387    23012043.641
  23393047.129    -9105580.57549  -7073359.67146  23393046.381    23393053.196
 03  4 11  1 31 30.0000000  0  8G31G14G15G25G11G 3G18G23
  22711081.784   -10519085.32149  -8181549.85246  22711081.125    22711087.278
  20261480.512   -26498871.80049 -20639031.77248  20261479.919    20261483.969
  22152817.547   -18504779.63749 -14407128.33746  22152816.694    22152823.470
  23464097.293    -9655926.39249  -7507657.32945  23464097.024    23464104.118
  23931162.460    -7926089.89249  -5580532.57745  23931161.991    23931167.291
  23038298.693   -12598857.18249  -9806022.03046  23038298.248    23038305.062
  23024669.089   -12596138.29049  -9513991.86446  23024668.553    23024673.788
  23403815.991    -9048989.82449  -7029263.00046  23403815.266    23403822.073
 03  4 11  1 32  0.0000000  0  8G31G14G15G25G11G 3G18G23
  22718931.604   -10477834.32849  -8149406.23946  22718930.931    22718937.092
  20264783.116   -26481516.58549 -20625508.22448  20264782.513    20264786.558
  22169746.697   -18415816.51249 -14337806.45046  22169745.864    22169752.615
  23445618.150    -9753034.62449  -7583326.00445  23445617.896    23445624.883
  23912803.621    -8022566.29349  -5655708.95045  23912803.211    23912808.399
  23052377.304   -12524873.68249  -9748372.59446  23052376.851    23052383.681
  23037317.447   -12529670.82449  -9462199.05946  23037316.917    23037322.132
  23414596.151    -8992339.60149  -6985119.99346  23414595.442    23414602.219
 03  4 11  1 32 30.0000000  0  8G31G14G15G25G11G 3G18G23
  22726868.842   -10436123.85849  -8116904.59746  22726868.177    22726874.348
  20268174.090   -26463696.69249 -20611622.59148  20268173.515    20268177.551
  22186737.882   -18326527.40549 -14268230.56346  22186737.052    22186743.808
  23427157.321    -9850046.48549  -7658919.55645  23427157.047    23427164.075
  23894471.429    -8118902.30449  -5730775.91345  23894470.942    23894476.201
  23066502.522   -12450645.38849  -9690532.41046  23066502.063    23066508.883
  23049983.797   -12463108.73449  -9410332.49746  23049983.268    23049988.542
  23425387.519    -8935630.59549  -6940931.17846  23425386.842    23425393.625
 03  4 11  1 33  0.0000000  0  8G31G14G15G25G11G 3G18G23
  22734893.373   -10393954.84749  -8084045.65546  22734892.681    22734898.880
  20271653.428   -26445412.67449 -20597375.30348  20271652.827    20271656.876
  22203791.008   -18236912.68649 -14198400.94646  22203790.196    22203796.959
  23408715.742    -9946957.40949  -7734434.48445  23408715.434    23408722.458
  23876166.517    -8215094.82849  -5805731.07845  23876165.995    23876171.307
  23080673.964   -12376174.04449  -9632502.83046  23080673.512    23080680.378
  23062668.324   -12396451.06849  -9358391.48446  23062667.817    23062673.118
  23436190.375    -8878861.44049  -6896695.49346  23436189.634    23436196.505
 03  4 11  1 33 30.0000000  0  8G31G14G15G25G11G 3G18G23
  22743004.504   -10351330.50849  -8050831.90846  22743003.836    22743010.053
  20275220.635   -26426666.88349 -20582768.19048  20275220.027    20275224.089
  22220905.598   -18146974.84349 -14128319.54946  22220904.798    22220911.600
  23390293.615   -10043766.05049  -7809869.70345  23390293.267    23390300.235
  23857889.176    -8311142.50349  -5880573.36645  23857888.628    23857894.048
  23094891.018   -12301463.34549  -9574286.75546  23094890.530    23094897.371
  23075370.862   -12329698.86049  -9306376.79746  23075370.383    23075375.659
  23447004.543    -8822032.72449  -6852413.39046  23447003.797    23447010.669
 03  4 11  1 34  0.0000000  0  8G31G14G15G25G11G 3G18G23
  22751202.029   -10308252.28249  -8017264.48346  22751201.361    22751207.565
  20278875.593   -26407459.96349 -20567801.75748  20278874.997    20278879.051
  22238081.577   -18056714.55549 -14057986.90146  22238080.767    22238087.605
  23371891.660   -10140468.60749  -7885222.27245  23371891.336    23371898.270
  23839639.986    -8407042.26549  -5955300.41945  23839639.521    23839644.821
  23109153.140   -12226515.41249  -9515885.81346  23109152.676    23109159.523
  23088091.545   -12262851.23349  -9254287.76046  23088091.027    23088096.318
  23457830.197    -8765143.51049  -6808084.16046  23457829.482    23457836.351
 03  4 11  1 34 30.0000000  0  8G31G14G15G25G11G 3G18G23
  22759485.405   -10264722.96649  -7983345.56146  22759484.766    22759490.941
  20282617.870   -26387794.23849 -20552477.81148  20282617.266    20282621.337
  22255318.530   -17966133.91249 -13987404.62546  22255317.724    22255324.583
  23353510.302   -10237063.05149  -7960490.59046  23353509.961    23353516.898
  23821419.297    -8502792.51849  -6029910.95945  23821418.795    23821424.072
  23123459.777   -12151333.75049  -9457302.74146  23123459.361    23123466.224
  23100830.255   -12195908.88949  -9202124.90746  23100829.758    23100835.029
  23468667.322    -8708194.06749  -6763707.97046  23468666.611    23468673.531
 03  4 11  1 35  0.0000000  0  8G31G14G15G25G11G 3G18G23
  22767854.228   -10220744.56049  -7949076.70146  22767853.563    22767859.763
  20286447.223   -26367670.76249 -20536797.17948  20286446.615    20286450.684
  22272616.218   -17875234.09849 -13916573.64246  22272615.409    22272622.241
  23335150.027   -10333546.50549  -8035672.43146  23335149.742    23335156.556
  23803227.514    -8598390.76249  -6104403.06045  23803226.979    23803232.204
  23137810.335   -12075921.13649  -9398539.71946  23137809.917    23137816.826
  23113587.105   -12128871.38049  -9149887.91446  23113586.607    23113591.872
  23479515.994    -8651183.70449  -6719284.34046  23479515.301    23479522.168
 03  4 11  1 35 30.0000000  0  8G31G14G15G25G11G 3G18G23
  22776308.044   -10176319.52549  -7914459.81346  22776307.391    22776313.594
  20290363.365   -26347091.31549 -20520761.24048  20290362.764    20290366.824
  22289974.266   -17784017.04349 -13845495.46246  22289973.442    22289980.298
  23316811.502   -10429915.85549  -8110765.37446  23316811.178    23316818.056
  23785065.054    -8693834.88549  -6178775.07045  23785064.492    23785069.725
  23152204.269   -12000280.60049  -9339599.08746  23152203.853    23152210.771
  23126361.960   -12061739.10649  -9097577.08746  23126361.523    23126366.725
  23490376.308    -8594112.45549  -6674813.24646  23490375.591    23490382.488
 03  4 11  1 36  0.0000000  0  8G31G14G15G25G11G 3G18G23
  22784846.362   -10131450.47549  -7879496.93346  22784845.690    22784851.920
  20294365.953   -26326057.55249 -20504371.29148  20294365.343    20294369.410
  22307392.372   -17692484.47049 -13774171.41746  22307391.574    22307398.397
  23298495.169   -10526168.51049  -8185767.40146  23298494.878    23298501.680
  23766932.328    -8789122.84349  -6253025.37645  23766931.765    23766937.011
  23166640.947   -11924415.43749  -9280483.41546  23166640.529    23166647.466
  23139154.874   -11994511.95149  -9045192.30646  23139154.416    23139159.654
  23501248.229    -8536980.18449  -6630294.62046  23501247.545    23501254.449
 03  4 11  1 36 30.0000000  0  8G31G14G15G25G11G 3G18G23
  22793468.833   -10086139.06049  -7844189.37046  22793468.211    22793474.372
  20298454.744   -26304570.67849 -20487628.27048  20298454.133    20298458.201
  22324870.304   -17600637.45549 -13702602.34946  22324869.485    22324876.347
  23280201.593   -10622301.43349  -8260676.10246  23280201.312    23280208.135
  23748829.781    -8884251.98749  -6327151.92645  23748829.268    23748834.556
  23181119.944   -11848327.87849  -9221194.44946  23181119.535    23181126.486
  23151965.845   -11927189.96549  -8992733.64246  23151965.348    23151970.596
  23512131.916    -8479785.99449  -6585727.73646  23512131.240    23512138.180
 03  4 11  1 37  0.0000000  0  8G31G14G15G25G11G 3G18G23
  22802175.021   -10040387.77549  -7808539.03046  22802174.383    22802180.568
  20302629.484   -26282632.29149 -20470533.41948  20302628.883    20302632.946
  22342407.797   -17508477.54549 -13630789.47746  22342406.953    22342413.853
  23261931.367   -10718311.88149  -8335489.38646  23261931.050    23261937.891
  23730757.949    -8979220.06649  -6401152.97845  23730757.428    23730762.734
  23195640.710   -11772020.85149  -9161734.47646  23195640.361    23195647.349
  23164794.881   -11859773.01349  -8940200.96646  23164794.426    23164799.678
  23523027.446    -8422529.70149  -6541112.46046  23523026.758    23523033.699
 03  4 11  1 37 30.0000000  0  8G31G14G15G25G11G 3G18G23
  22810964.401    -9994199.43849  -7772548.13746  22810963.778    22810969.921
  20306889.706   -26260244.57449 -20453088.44248  20306889.113    20306893.189
  22360004.404   -17416006.85949 -13558734.43246  22360003.562    22360010.479
  23243684.941   -10814197.43649  -8410205.34846  23243684.592    23243691.415
  23712717.148    -9074025.07549  -6475026.97145  23712716.618    23712721.866
  23210202.557   -11695497.85149  -9102106.19346  23210202.192    23210209.191
  23177641.905   -11792261.45149  -8887594.58946  23177641.402    23177646.698
  23533934.744    -8365211.46249  -6496448.92646  23533934.076    23533941.003
 03  4 11  1 38  0.0000000  0  8G31G14G15G25G11G 3G18G23
  22819836.592    -9947575.92749  -7736218.16246  22819835.936    22819842.127
  20311235.204   -26237408.72049 -20435294.26848  20311234.625    20311238.690
  22377659.956   -17323226.38949 -13486438.00946  22377659.119    22377666.031
  23225462.815   -10909954.98249  -8484821.58346  23225462.497    23225469.294
  23694707.782    -9168664.71549  -6548772.08945  23694707.315    23694712.465
  23224805.060   -11618761.43349  -9042311.62646  23224804.622    23224811.704
  23190507.068   -11724654.79949  -8834914.10046  23190506.547    23190511.796
  23544854.031    -8307830.40749  -6451736.42946  23544853.347    23544860.272
 03  4 11  1 38 30.0000000  0  8G31G14G15G25G11G 3G18G23
  22828791.062    -9900520.03449  -7699551.24646  22828790.408    22828796.628
  20315665.635   -26214126.61849 -20417152.36848  20315665.048    20315669.134
  22395374.077   -17230138.18249 -13413901.78846  22395373.236    22395380.161
  23207265.579   -11005581.94749  -8559336.05246  23207265.254    23207272.066
  23676730.308    -9263136.87749  -6622386.70345  23676729.852    23676734.948
  23239447.510   -11541815.01749  -8982353.41246  23239447.065    23239454.176
  23203390.197   -11656953.43349  -8782159.81246  23203389.678    23203394.984
  23555785.237    -8250386.70249  -6406975.13546  23555784.509    23555791.424
 03  4 11  1 39  0.0000000  0  8G31G14G15G25G11G 3G18G23
  22837827.394    -9853033.85449  -7662549.05146  22837826.741    22837832.931
  20320180.743   -26190399.54949 -20398663.74348  20320180.152    20320184.230
  22413146.528   -17136743.48149 -13341126.73746  22413145.692    22413152.604
  23189093.786   -11101075.24049  -8633746.37446  23189093.434    23189100.202
  23658785.206    -9357439.00449  -6695868.83445  23658784.724    23658789.820
  23254129.482   -11464661.07749  -8922233.49946  23254129.061    23254136.148
  23216291.441   -11589157.09949  -8729331.52646  23216290.887    23216296.257
  23566728.438    -8192879.64249  -6362164.44446  23566727.774    23566734.683
 03  4 11  1 39 30.0000000  0  8G31G14G15G25G11G 3G18G23
  22846945.068    -9805120.25949  -7625213.81046  22846944.389    22846950.622
  20324780.071   -26166229.82349 -20379830.19148  20324779.468    20324783.564
  22430976.899   -17043044.43149 -13268114.53646  22430976.078    22430982.988
  23170947.798   -11196432.78949  -8708050.91446  23170947.438    23170954.244
  23640872.774    -9451569.21849  -6769216.99645  23640872.285    23640877.442
  23268850.271   -11387302.94249  -8861954.47746  23268849.840    23268856.930
  23229210.619   -11521266.29449  -8676429.62446  23229210.102    23229215.479
  23577683.760    -8135309.38749  -6317304.54245  23577683.059    23577689.953
 03  4 11  1 40  0.0000000  0  8G31G14G15G25G11G 3G18G23
  22856143.710    -9756781.25649  -7587547.07346  22856143.042    22856149.256
  20329463.447   -26141618.49049 -20360652.52848  20329462.856    20329466.951
  22448864.980   -16949042.21549 -13194866.09646  22448864.145    22448871.057
  23152828.319   -11291651.21749  -8782247.04846  23152828.020    23152834.722
  23622993.535    -9545525.00149  -6842429.23445  23622993.112    23622998.212
  23283609.463   -11309743.05149  -8801518.24846  23283609.042    23283616.107
  23242147.894   -11453280.65349  -8623453.81646  23242147.377    23242152.795
  23588651.175    -8077675.22449  -6272394.82545  23588650.527    23588657.368
 03  4 11  1 40 30.0000000  0  8G31G14G15G25G11G 3G18G23
  22865422.793    -9708019.31549  -7549550.77246  22865422.138    22865428.353
  20334230.500   -26116567.39649 -20341132.19348  20334229.916    20334234.013
  22466810.396   -16854738.59749 -13121382.80646  22466809.571    22466816.454
  23134735.843   -11386727.65349  -8856332.54446  23134735.546    23134742.230
  23605147.934    -9639304.02149  -6915503.75346  23605147.517    23605152.580
  23298406.416   -11231984.61549  -8740927.30746  23298405.999    23298413.088
  23255103.169   -11385200.26649  -8570404.20946  23255102.697    23255108.029
  23599630.818    -8019976.91449  -6227435.12345  23599630.136    23599637.026
 03  4 11  1 41  0.0000000  0  8G31G14G15G25G11G 3G18G23
  22874781.926    -9658836.78349  -7511226.75846  22874781.318    22874787.480
  20339080.944   -26091078.15449 -20321270.44448  20339080.348    20339084.449
  22484812.842   -16760135.25849 -13047665.96046  22484811.989    22484818.872
  23116670.927   -11481659.11849  -8930305.06646  23116670.602    23116677.343
  23587336.454    -9732903.89549  -6988438.65246  23587336.017    23587341.084
  23313240.625   -11154030.47949  -8680183.85846  23313240.190    23313247.300
  23268076.498   -11317025.08849  -8517280.72346  23268075.996    23268081.396
  23610622.724    -7962214.13449  -6182425.17845  23610621.977    23610628.934
 03  4 11  1 41 30.0000000  0  8G31G14G15G25G11G 3G18G23
  22884220.526    -9609236.66049  -7472577.32346  22884219.924    22884226.058
  20344014.369   -26065152.89949 -20301068.94348  20344013.782    20344017.899
  22502871.970   -16665234.06849 -12973717.02446  22502871.137    22502878.043
  23098634.053   -11576443.55549  -9004163.02346  23098633.678    23098640.445
  23569559.394    -9826322.70349  -7061232.47546  23569558.984    23569564.035
  23328111.454   -11075883.88449  -8619290.45446  23328111.055    23328118.134
  23281067.811   -11248755.35049  -8464083.54446  23281067.342    23281072.786
  23621626.883    -7904386.95549  -6137365.07445  23621626.198    23621633.078
 03  4 11  1 42  0.0000000  0  8G31G14G15G25G11G 3G18G23
  22893738.281    -9559220.68449  -7433603.86446  22893737.664    22893743.820
  20349030.546   -26038792.69249 -20280528.51848  20349029.960    20349034.076
  22520987.583   -16570035.99749 -12899536.75446  22520986.725    22520993.704
  23080625.790   -11671077.46149  -9077903.67646  23080625.406    23080632.166
  23551817.309    -9919557.58949  -7133882.98746  23551816.906    23551821.957
  23343018.445   -10997547.36549  -8558249.05346  23343018.035    23343025.145
  23294077.230   -11180390.58849  -8410812.32645  23294076.756    23294082.179
  23632643.508    -7846494.34249  -6092253.97945  23632642.802    23632649.651
 03  4 11  1 42 30.0000000  0  8G31G14G15G25G11G 3G18G23
  22903334.573    -9508791.79249  -7394308.64246  22903334.012    22903340.120
  20354129.064   -26011999.61449 -20259650.79148  20354128.480    20354132.611
  22539159.260   -16474543.45449 -12825127.03046  22539158.415    22539165.401
  23062646.641   -11765558.29149  -9151525.04646  23062646.272    23062652.981
  23534110.648   -10012606.70949  -7206388.74746  23534110.204    23534115.194
  23357960.905   -10919024.20449  -8497062.21846  23357960.480    23357967.654
  23307104.667   -11111931.04949  -8357467.25345  23307104.188    23307109.615
  23643672.559    -7788536.37749  -6047091.93345  23643671.847    23643678.701
 03  4 11  1 43  0.0000000  0  8G31G14G15G25G11G 3G18G23
  22913008.916    -9457952.89849  -7354693.94046  22913008.314    22913014.477
  20359309.611   -25984775.66949 -20238437.32348  20359309.024    20359313.146
  22557386.570   -16378758.45749 -12750489.40646  22557385.746    22557392.707
  23044697.082   -11859883.65049  -9225025.26346  23044696.718    23044703.416
  23516439.671   -10105468.05149  -7278748.18546  23516439.238    23516444.220
  23372938.300   -10840317.76949  -8435732.56446  23372937.852    23372945.029
  23320150.019   -11043377.19149  -8304048.68745  23320149.516    23320154.928
  23654714.043    -7730513.08849  -6001879.02445  23654713.313    23654720.235
 03  4 11  1 43 30.0000000  0  8G31G14G15G25G11G 3G18G23
  22922760.947    -9406705.64049  -7314761.03446  22922760.353    22922766.539
  20364571.968   -25957121.86249 -20216888.89848  20364571.371    20364575.501
  22575669.378   -16282681.74449 -12675624.48246  22575668.549    22575675.526
  23026777.778   -11954049.87249  -9298401.46646  23026777.414    23026784.140
  23498805.026   -10198138.55149  -7350958.91546  23498804.536    23498809.608
  23387950.147   -10761430.17149  -8374261.75746  23387949.729    23387956.873
  23333213.495   -10974728.20449  -8250555.99445  23333212.972    23333218.448
  23665768.151    -7672423.43249  -5956614.36045  23665767.500    23665774.364
 03  4 11  1 44  0.0000000  0  8G31G14G15G25G11G 3G18G23
  22932590.075    -9355053.28849  -7274512.48046  22932589.488    22932595.672
  20369915.634   -25929040.61949 -20195007.40448  20369915.041    20369919.167
  22594007.261   -16186315.62949 -12600534.04846  22594006.465    22594013.459
  23008889.168   -12048054.94049  -9371652.10646  23008888.808    23008895.467
  23481206.952   -10290616.55549  -7423019.63446  23481206.509    23481211.551
  23402995.779   -10682364.90649  -8312652.49146  23402995.403    23403002.516
  23346294.987   -10905984.69149  -8196989.64145  23346294.446    23346299.950
  23676834.871    -7614267.55849  -5911298.15045  23676834.089    23676841.076
 03  4 11  1 44 30.0000000  0  8G31G14G15G25G11G 3G18G23
  22942495.923    -9302997.89349  -7233949.86546  22942495.331    22942501.485
  20375340.389   -25900533.25749 -20172793.87348  20375339.806    20375343.929
  22612399.929   -16089661.56849 -12525219.23246  22612399.152    22612406.159
  22991031.826   -12141895.65449  -9444774.67946  22991031.491    22991038.109
  23463646.093   -10382899.24749  -7494928.17546  23463645.637    23463650.767
  23418074.699   -10603124.71949  -8250906.95246  23418074.314    23418081.414
  23359394.526   -10837146.18549  -8143349.27245  23359393.967    23359399.425
  23687914.298    -7556044.77449  -5865929.73645  23687913.569    23687920.499
 03  4 11  1 45  0.0000000  0  8G31G14G15G25G11G 3G18G23
  22952477.833    -9250542.48649  -7193075.53646  22952477.230    22952483.429
  20380845.880   -25871601.81749 -20150249.88948  20380845.284    20380849.410
  22630847.046   -15992721.50749 -12449681.57746  22630846.271    22630853.302
  22973206.218   -12235569.74249  -9517767.39746  22973205.861    22973212.460
  23446122.728   -10474984.93249  -7566683.20846  23446122.248    23446127.391
  23433186.335   -10523712.79549  -8189027.56846  23433185.923    23433193.037
  23372512.056   -10768213.07549  -8089635.18245  23372511.497    23372516.902
  23699006.479    -7497755.02749  -5820509.18945  23699005.750    23699012.706
 03  4 11  1 45 30.0000000  0  8G31G14G15G25G11G 3G18G23
  22962535.513    -9197689.15049  -7151891.14446  22962534.898    22962541.133
  20386431.761   -25842247.76449 -20127376.59848  20386431.157    20386435.287
  22649348.307   -15895496.93249 -12373922.20746  22649347.543    22649354.578
  22955412.896   -12329073.90249  -9590627.70446  22955412.549    22955419.138
  23428637.435   -10566870.45349  -7638282.27646  23428636.992    23428642.040
  23448330.138   -10444131.62349  -8127016.31946  23448329.719    23448336.867
  23385647.676   -10699184.90849  -8035847.00845  23385647.183    23385652.504
  23710111.494    -7439397.73649  -5775035.98145  23710110.861    23710117.759
 03  4 11  1 46  0.0000000  0  8G31G14G15G25G11G 3G18G23
  22972668.389    -9144440.63949  -7110398.83346  22972667.783    22972673.976
  20392097.680   -25812473.10949 -20104175.56748  20392097.075    20392101.213
  22667903.352   -15797989.71249 -12297942.61046  22667902.548    22667909.607
  22937652.506   -12422405.10249  -9663353.23546  22937652.164    22937658.710
  23411190.588   -10658554.02449  -7709723.97146  23411190.180    23411195.224
  23463505.557   -10364384.44849  -8064875.68646  23463505.103    23463512.319
  23398801.403   -10630062.00349  -7981985.00745  23398800.838    23398806.196
  23721229.461    -7380972.63649  -5729509.94945  23721228.726    23721235.625
 03  4 11  1 46 30.0000000  0  8G31G14G15G25G11G 3G18G23
  22982875.869    -9090799.95949  -7068600.92546  22982875.257    22982881.497
  20397843.243   -25782279.88949 -20080648.38048  20397842.657    20397846.793
  22686511.828   -15700201.95649 -12221744.40646  22686510.995    22686518.081
  22919925.413   -12515561.39749  -9735942.48346  22919925.066    22919931.581
  23393782.625   -10750033.48649  -7781006.63146  23393782.192    23393787.143
  23478711.950   -10284474.52149  -8002608.27546  23478711.496    23478718.717
  23411973.077   -10560844.47649  -7928049.30545  23411972.498    23411977.928
  23732360.262    -7322479.60449  -5683930.98045  23732359.619    23732366.504
 03  4 11  1 47  0.0000000  0  8G31G14G15G25G11G 3G18G23
  22993157.629    -9036769.34149  -7026499.17346  22993156.999    22993163.228
  20403668.213   -25751669.48649 -20056796.11948  20403667.625    20403671.773
  22705173.396   -15602134.94649 -12145328.60646  22705172.586    22705179.673
  22902232.183   -12608539.45849  -9808392.84946  22902231.875    22902238.363
  23376413.914   -10841306.54049  -7852128.45746  23376413.446    23376418.454
  23493948.816   -10204404.52649  -7940216.10846  23493948.358    23493955.563
  23425162.808   -10491532.10849  -7874039.66545  23425162.209    23425167.565
  23743504.178    -7263918.06049  -5638298.62245  23743503.525    23743510.446
 03  4 11  1 47 30.0000000  0  8G31G14G15G25G11G 3G18G23
  23003513.035    -8982351.38249  -6984095.59446  23003512.380    23003518.647
  20409572.206   -25720643.66249 -20032620.14948  20409571.618    20409575.777
  22723887.738   -15503790.51549 -12068696.64046  22723886.920    22723894.014
  22884573.443   -12701336.61249  -9880702.25946  22884573.120    22884579.615
  23359084.996   -10932370.41149  -7923087.27046  23359084.573    23359089.531
  23509215.582   -10124177.25849  -7877701.40146  23509215.139    23509222.270
  23438370.609   -10422124.81749  -7819956.11345  23438370.023    23438375.305
  23754661.221    -7205287.61649  -5592612.57945  23754660.511    23754667.432
 03  4 11  1 48  0.0000000  0  8G31G14G15G25G11G 3G18G23
  23013941.612    -8927549.01249  -6941392.47446  23013940.940    23013947.241
  20415554.826   -25689204.73449 -20008122.28348  20415554.236    20415558.396
  22742654.538   -15405170.69049 -11991850.07446  22742653.688    22742660.791
  22866949.581   -12793950.23249  -9952868.64146  22866949.290    22866955.740
  23341796.308   -11023223.12049  -7993881.54946  23341795.861    23341800.787
  23524511.672   -10043796.05749  -7815066.74245  23524511.220    23524518.397
  23451596.390   -10352622.96749  -7765798.82745  23451595.878    23451601.110
  23765831.416    -7146588.08349  -5546872.70545  23765830.698    23765837.655
 03  4 11  1 48 30.0000000  0  8G31G14G15G25G11G 3G18G23
  23024442.861    -8872364.60849  -6898391.66346  23024442.180    23024448.504
  20421615.767   -25657354.25449 -19983303.72748  20421615.180    20421619.348
  22761473.388   -15306277.04549 -11914790.13446  22761472.580    22761479.680
  22849361.261   -12886377.32049 -10024889.68646  22849360.916    22849367.384
  23324548.223   -11113862.19249  -8064509.35546  23324547.792    23324552.675
  23539836.519    -9963263.54649  -7752314.17245  23539836.080    23539843.260
  23464840.230   -10283026.13149  -7711567.57145  23464839.699    23464845.069
  23777014.793    -7087819.00649  -5501078.63745  23777014.145    23777021.080
 03  4 11  1 49  0.0000000  0  8G31G14G15G25G11G 3G18G23
  23035016.271    -8816800.90949  -6855095.30346  23035015.620    23035021.913
  20427754.644   -25625094.12749 -19958165.96348  20427754.070    20427758.235
  22780343.978   -15207111.56749 -11837518.38346  22780343.137    22780350.322
  22831808.957   -12978614.95349 -10096763.11546  22831808.598    22831815.089
  23307341.258   -11204285.31849  -8134968.92346  23307340.794    23307345.673
  23555189.580    -9882582.84149  -7689446.14045  23555189.152    23555196.324
  23478102.160   -10213334.30349  -7657262.25445  23478101.689    23478106.996
  23788211.477    -7028980.18449  -5455230.19845  23788210.834    23788217.748
 03  4 11  1 49 30.0000000  0  8G31G14G15G25G11G 3G18G23
  23045661.360    -8760860.59849  -6811505.47046  23045660.681    23045666.997
  20433971.166   -25592426.06349 -19932710.32648  20433970.577    20433974.752
  22799265.927   -15107676.09949 -11760036.25046  22799265.167    22799272.290
  22814293.245   -13070660.39349 -10168486.75146  22814292.904    22814299.413
  23290175.837   -11294490.13049  -8205258.35246  23290175.367    23290180.207
  23570570.266    -9801757.07049  -7626465.06045  23570569.804    23570576.985
  23491382.187   -10143547.34749  -7602882.84745  23491381.705    23491386.978
  23799421.463    -6970071.28249  -5409327.19945  23799420.804    23799427.747
 03  4 11  1 50  0.0000000  0  8G31G14G15G25G11G 3G18G23
  23056377.640    -8704546.24749  -6767624.19646  23056376.983    23056383.280
  20440264.994   -25559351.84749 -19906938.21148  20440264.399    20440268.576
  22818238.989   -15007972.24449 -11682344.98746  22818238.222    22818245.324
  22796814.608   -13162510.98149 -10240058.59346  22796814.224    22796820.764
  23273052.424   -11384474.02249  -8275375.61946  23273051.971    23273056.772
  23585978.042    -9720788.82249  -7563372.96345  23585977.578    23585984.754
  23504680.317   -10073665.24149  -7548429.27945  23504679.838    23504685.134
  23810644.898    -6911091.78049  -5363369.16445  23810644.293    23810651.165
 03  4 11  1 50 30.0000000  0  8G31G14G15G25G11G 3G18G23
  23067164.634    -8647860.26249  -6723453.31446  23067164.015    23067170.256
  20446635.794   -25525872.92549 -19880850.73748  20446635.209    20446639.393
  22837262.874   -14908001.34749 -11604445.63146  22837262.093    22837269.159
  22779373.584   -13254163.88249 -10311476.37946  22779373.229    22779379.692
  23255971.583   -11474234.42149  -8345318.76446  23255971.107    23255975.903
  23601412.412    -9639680.73049  -7500171.90745  23601411.972    23601419.206
  23517996.630   -10003687.66449  -7493901.31245  23517996.140    23518001.487
  23821881.976    -6852040.86549  -5317355.46745  23821881.364    23821888.209
 03  4 11  1 51  0.0000000  0  8G31G14G15G25G11G 3G18G23
  23078021.631    -8590806.56449  -6678995.91046  23078020.989    23078027.247
  20453083.028   -25491992.51849 -19854450.41948  20453082.446    20453086.621
  22856336.919   -14807766.59049 -11526340.68146  22856336.138    22856343.231
  22761970.493   -13345617.38349 -10382738.79146  22761970.136    22761976.600
  23238933.390   -11563770.47549  -8415087.07046  23238932.892    23238937.747
  23616872.546    -9558437.43749  -7436865.50145  23616872.099    23616879.366
  23531330.873    -9933615.87649  -7439299.93745  23531330.368    23531335.774
  23833132.378    -6792919.59349  -5271286.97745  23833131.756    23833138.621
 03  4 11  1 51 30.0000000  0  8G31G14G15G25G11G 3G18G23
  23088948.286    -8533386.56549  -6634253.07446  23088947.635    23088953.950
  20459606.528   -25457711.26149 -19827737.74948  20459605.940    20459610.135
  22875461.138   -14707268.50349 -11448030.52846  22875460.328    22875467.413
  22744606.181   -13436867.23449 -10453842.52046  22744605.837    22744612.266
  23221938.545   -11653078.73149  -8484677.88446  23221938.057    23221942.889
  23632358.144    -9477060.34449  -7373454.83245  23632357.680    23632364.982
  23544683.248    -9863448.63649  -7384624.18745  23544682.795    23544688.201
  23844396.406    -6733726.38649  -5225162.41945  23844395.827    23844402.748
 03  4 11  1 52  0.0000000  0  8G31G14G15G25G11G 3G18G23
  23099944.069    -8475603.52849  -6589227.36346  23099943.402    23099949.725
  20466205.868   -25423031.54949 -19800714.59448  20466205.281    20466209.463
  22894635.004   -14606509.32849 -11369516.93746  22894634.195    22894641.287
  22727281.052   -13527911.16649 -10524785.78046  22727280.721    22727287.134
  23204987.534   -11742156.74349  -8554089.27946  23204987.062    23204991.817
  23647868.558    -9395552.78149  -7309942.48645  23647868.132    23647875.380
  23558053.770    -9793186.28949  -7329874.33445  23558053.260    23558058.769
  23855674.222    -6674461.31949  -5178981.84545  23855673.621    23855680.516
 03  4 11  1 52 30.0000000  0  8G31G14G15G25G11G 3G18G23
  23111008.490    -8417459.75849  -6543920.55246  23111007.822    23111014.176
  20472880.774   -25387954.69449 -19773381.97948  20472880.200    20472884.376
  22913858.246   -14505490.71749 -11290801.17846  22913857.426    22913864.567
  22709995.675   -13618746.20649 -10595566.26746  22709995.337    22710001.771
  23188080.827   -11831001.93849  -8623319.26546  23188080.346    23188085.128
  23663403.282    -9313917.46949  -7246330.60945  23663402.827    23663410.150
  23571442.399    -9722828.66849  -7275050.23445  23571441.881    23571447.405
  23866965.870    -6615123.47949  -5132744.61145  23866965.254    23866972.220
 03  4 11  1 53  0.0000000  0  8G31G14G15G25G11G 3G18G23
  23122140.950    -8358958.29849  -6498335.02246  23122140.336    23122146.656
  20479630.768   -25352483.14549 -19745741.81248  20479630.187    20479634.366
  22933130.413   -14404214.82449 -11211884.94546  22933129.635    22933136.749
  22692750.551   -13709369.62049 -10666181.86446  22692750.216    22692756.637
  23171218.803   -11919612.39849  -8692366.32046  23171218.309    23171223.124
  23678961.723    -9232157.43949  -7182621.55745  23678961.276    23678968.577
  23584849.105    -9652375.86649  -7220151.97145  23584848.519    23584854.169
  23878271.315    -6555712.97449  -5086450.74245  23878270.617    23878277.691
 03  4 11  1 53 30.0000000  0  8G31G14G15G25G11G 3G18G23
  23133340.908    -8300102.27649  -6452473.21746  23133340.272    23133346.608
  20486455.523   -25316618.92749 -19717795.66748  20486454.932    20486459.127
  22952451.184   -14302683.65549 -11132769.80546  22952450.379    22952457.532
  22675546.106   -13799779.45749 -10736631.02946  22675545.737    22675552.149
  23154401.794   -12007986.10149  -8761228.90746  23154401.351    23154406.137
  23694543.283    -9150276.01349  -7118817.89545  23694542.809    23694550.128
  23598273.884    -9581828.17649  -7165179.76645  23598273.345    23598278.898
  23889590.621    -6496229.71649  -5040100.15745  23889589.951    23889597.068
 03  4 11  1 54  0.0000000  0  8G31G14G15G25G11G 3G18G23
  23144607.929    -8240893.91249  -6406336.84646  23144607.282    23144613.645
  20493354.706   -25280363.42649 -19689544.62648  20493354.126    20493358.306
  22971820.257   -14200898.65049 -11053456.85446  22971819.441    22971826.695
  22658382.969   -13889972.16149 -10806910.99446  22658382.578    22658388.957
  23137630.369   -12096120.20349  -8829904.77446  23137629.952    23137634.757
  23710147.451    -9068275.78549  -7054921.68445  23710146.997    23710154.381
  23611716.909    -9511184.91849  -7110133.07245  23611716.379    23611721.888
  23900923.956    -6436672.72349  -4993692.10945  23900923.265    23900930.369
 03  4 11  1 54 30.0000000  0  8G31G14G15G25G11G 3G18G23
  23155941.408    -8181336.23549  -6359928.28046  23155940.746    23155947.117
  20500327.936   -25243718.72149 -19660990.31048  20500327.359    20500331.558
  22991237.253   -14098861.89649 -10973947.75546  22991236.448    22991243.653
  22641261.662   -13979945.08349 -10877019.71346  22641261.291    22641267.620
  23120905.048   -12184012.21149  -8898392.00746  23120904.601    23120909.432
  23725773.635    -8986159.80749  -6990935.27545  23725773.179    23725780.595
  23625177.976    -9440446.45149  -7055012.25045  23625177.369    23625183.078
  23912271.386    -6377041.78149  -4947226.46645  23912270.661    23912277.793
 03  4 11  1 55  0.0000000  0  8G31G14G15G25G11G 3G18G23
  23167340.852    -8121431.70649  -6313249.45146  23167340.214    23167346.552
  20507374.904   -25206686.62349 -19632134.12848  20507374.320    20507378.511
  23010701.842   -13996575.05249 -10894243.75846  23010701.023    23010708.238
  22624182.713   -14069695.37049 -10946954.93646  22624182.355    22624188.700
  23104226.247   -12271659.81749  -8966688.79546  23104225.778    23104230.609
  23741421.300    -8903930.79249  -6926860.76645  23741420.856    23741428.324
  23638657.293    -9369612.42749  -6999816.90145  23638656.788    23638662.424
  23923632.873    -6317336.41849  -4900702.83645  23923632.214    23923639.341
 03  4 11  1 55 30.0000000  0  8G31G14G15G25G11G 3G18G23
  23178805.666    -8061183.73449  -6266303.00646  23178805.057    23178811.433
  20514495.132   -25169269.56649 -19602977.97948  20514494.561    20514498.756
  23030213.485   -13894040.71149 -10814346.92546  23030212.716    23030219.900
  22607146.476   -14159220.88549 -11016715.02246  22607146.168    22607152.468
  23087594.304   -12359061.17849  -9034793.70946  23087593.812    23087598.656
  23757089.837    -8821592.31049  -6862700.96245  23757089.350    23757096.868
  23652154.614    -9298683.52449  -6944547.65945  23652154.064    23652159.699
  23935008.556    -6257556.86949  -4854121.37445  23935007.909    23935015.016
 03  4 11  1 56  0.0000000  0  8G31G14G15G25G11G 3G18G23
  23190335.408    -8000594.45849  -6219090.61146  23190334.786    23190341.171
  20521688.381   -25131468.79049 -19573522.82948  20521687.811    20521692.010
  23049772.058   -13791259.95049 -10734258.06646  23049771.295    23049778.519
  22590153.752   -14248518.16949 -11086297.27046  22590153.413    22590159.748
  23071009.782   -12446213.26049  -9102704.37046  23071009.313    23071014.122
  23772778.775    -8739146.76249  -6798457.74745  23772778.298    23772785.837
  23665670.163    -9227658.93649  -6889203.81045  23665669.549    23665675.203
  23946398.530    -6197702.21649  -4807481.40345  23946397.874    23946405.059
 03  4 11  1 56 30.0000000  0  8G31G14G15G25G11G 3G18G23
  23201929.553    -7939667.07249  -6171614.74446  23201928.889    23201935.371
  20528954.187   -25093286.73049 -19543770.57148  20528953.611    20528957.814
  23069377.116   -13688234.91849 -10653978.86946  23069376.313    23069383.555
  22573204.866   -14337584.89749 -11155699.84746  22573204.535    22573210.856
  23054473.041   -12533114.18449  -9170419.32846  23054472.541    23054477.407
  23788487.431    -8656597.29649  -6734133.53745  23788486.973    23788494.487
  23679203.877    -9156538.83149  -6833785.57445  23679203.318    23679208.936
  23957802.784    -6137772.26449  -4760782.76745  23957802.147    23957809.382
 03  4 11  1 57  0.0000000  0  8G31G14G15G25G11G 3G18G23
  23213587.509    -7878404.10349  -6123877.39046  23213586.828    23213593.329
  20536292.203   -25054725.16049 -19513722.59348  20536291.631    20536295.824
  23089028.278   -13584967.56449 -10573510.86146  23089027.479    23089034.804
  22556300.427   -14426418.16649 -11224920.51346  22556300.108    22556306.362
  23037984.609   -12619761.29649  -9237936.51846  23037984.125    23037989.029
  23804215.367    -8573946.59349  -6669730.44445  23804214.905    23804222.452
  23692755.763    -9085323.13749  -6778292.83445  23692755.186    23692760.892
  23969221.575    -6077766.62949  -4714025.12145  23969220.935    23969228.119
 03  4 11  1 57 30.0000000  0  8G31G14G15G25G11G 3G18G23
  23225308.771    -7816808.42949  -6075880.77446  23225308.094    23225314.648
  20543702.159   -25015785.60249 -19483380.07948  20543701.601    20543705.795
  23108725.191   -13481459.88249 -10492855.58046  23108724.362    23108731.706
  22539440.960   -14515015.06049 -11293957.00146  22539440.630    22539446.857
  23021544.937   -12706152.12649  -9305254.00646  23021544.446    23021549.340
  23819962.072    -8491197.28149  -6605250.52245  23819961.624    23819969.215
  23706325.877    -9014011.97649  -6722725.70745  23706325.352    23706330.911
  23980654.780    -6017684.70149  -4667208.08645  23980654.089    23980661.368
 03  4 11  1 58  0.0000000  0  8G31G14G15G25G11G 3G18G23
  23237092.831    -7754882.95949  -6027627.18046  23237092.186    23237098.743
  20551183.581   -24976470.44349 -19452744.89148  20551183.022    20551187.221
  23128467.466   -13377713.77449 -10412014.50346  23128466.646    23128473.925
  22522626.884   -14603373.28749 -11362807.50746  22522626.580    22522632.780
  23005154.464   -12792284.50049  -9372370.11946  23005153.993    23005158.816
  23835726.939    -8408352.66049  -6540696.33545  23835726.470    23835734.105
  23719914.178    -8942605.09849  -6667084.01245  23719913.456    23719919.128
  23992102.543    -5957526.42049  -4620331.49845  23992101.912    23992109.255
 03  4 11  1 58 30.0000000  0  8G31G14G15G25G11G 3G18G23
  23248939.033    -7692630.83649  -5979119.05446  23248938.415    23248944.958
  20558736.083   -24936781.79449 -19421818.67048  20558735.513    20558739.699
  23148254.689   -13273731.45149 -10330989.36746  23148253.858    23148261.179
  22505858.745   -14691490.31049 -11431470.06146  22505858.408    22505864.587
  22988813.537   -12878156.53349  -9439283.35746  22988813.095    22988817.871
  23851509.254    -8325416.26649  -6476070.61345  23851508.764    23851516.399
  23733520.551    -8871103.07249  -6611368.13245  23733519.965    23733525.584
  24003564.952    -5897291.41249  -4573395.15145  24003564.239    24003571.618
 03  4 11  1 59  0.0000000  0  8G31G14G15G25G11G 3G18G23
  23260846.942    -7630054.51349  -5930358.31846  23260846.311    23260852.899
  20566359.317   -24896721.39949 -19390602.77848  20566358.756    20566362.941
  23168086.593   -13169514.42349 -10249781.35146  23168085.738    23168093.118
  22489137.138   -14779362.68749 -11499941.99346  22489136.824    22489142.970
  22972522.692   -12963765.29249  -9505991.44546  22972522.284    22972527.032
  23867308.572    -8242390.41249  -6411375.18945  23867308.066    23867315.708
  23747145.202    -8799505.15649  -6555577.56745  23747144.603    23747150.249
  24015041.968    -5836979.19349  -4526398.63045  24015041.332    24015048.580
 03  4 11  1 59 30.0000000  0  8G31G14G15G25G11G 3G18G23
  23272816.002    -7567156.84649  -5881347.15646  23272815.335    23272821.944
  20574052.950   -24856291.18549 -19359098.71448  20574052.360    20574056.562
  23187962.750   -13065064.48849 -10168391.83246  23187961.928    23187969.305
  22472462.582   -14866987.72949 -11568221.18946  22472462.248    22472468.437
  22956282.480   -13049108.03949  -9572492.25146  22956282.016    22956286.801
  23883124.336    -8159278.21349  -6346612.50545  23883123.817    23883131.438
  23760788.095    -8727811.50249  -6499712.40045  23760787.490    23760793.042
  24026533.809    -5776589.29049  -4479341.56045  24026533.187    24026540.426
 03  4 11  2  0  0.0000000  0  8G31G14G15G25G11G 3G18G23
  23284845.556    -7503940.95549  -5832088.04946  23284844.917    23284851.574
  20581816.573   -24815493.09949 -19327307.99548  20581815.995    20581820.177
  23207882.790   -12960384.05749 -10086822.71746  23207882.018    23207889.367
  22455835.553   -14954363.20349 -11636305.92346  22455835.229    22455841.404
  22940093.293   -13134182.91349  -9638784.33346  22940092.825    22940097.570
  23898956.031    -8076082.48749  -6281784.71845  23898955.527    23898963.125
  23774449.034    -8656022.37349  -6443772.84445  23774448.481    23774454.058
  24038040.429    -5716121.53149  -4432223.82645  24038039.742    24038047.016
 03  4 11  2  0 30.0000000  0  8G31G14G15G25G11G 3G18G23
  23296935.233    -7440409.21849  -5782582.81746  23296934.627    23296941.268
  20589649.865   -24774328.90549 -19295231.99848  20589649.272    20589653.472
  23227846.416   -12855474.61449 -10005075.17646  23227845.607    23227853.054
  22439256.628   -15041485.75749 -11704193.57946  22439256.306    22439262.448
  22923955.490   -13218987.33849  -9704865.67246  22923955.037    22923959.786
  23914803.121    -7992805.67949  -6216893.77345  23914802.656    23914810.174
  23788128.366    -8584136.95149  -6387758.20645  23788127.952    23788133.395
  24049562.064    -5655575.06249  -4385044.76945  24049561.285    24049568.531
 03  4 11  2  1  0.0000000  0  8G31G14G15G25G11G 3G18G23
  23309084.392    -7376565.04949  -5732834.13546  23309083.767    23309090.391
  20597552.379   -24732800.89649 -19262872.50948  20597551.782    20597555.998
  23247853.168   -12750338.58549  -9923151.04346  23247852.306    23247859.729
  22422726.193   -15128353.60049 -11771882.76746  22422725.890    22422732.009
  22907869.593   -13303519.15249  -9770734.60046  22907869.172    22907873.843
  23930664.918    -7909451.44149  -6151942.47745  23930664.496    23930671.992
  23801825.933    -8512156.01449  -6331669.18945  23801825.360    23801830.874
  24061098.574    -5594950.26749  -4337804.70045  24061097.838    24061104.969
 03  4 11  2  1 30.0000000  0  8G31G14G15G25G11G 3G18G23
  23321292.434    -7312411.37549  -5682844.27946  23321291.796    23321298.440
  20605523.699   -24690911.27349 -19230231.24448  20605523.103    20605527.311
  23267902.646   -12644977.86949  -9841051.82245  23267901.836    23267909.196
  22406244.772   -15214963.86049 -11839371.23346  22406244.490    22406250.586
  22891836.001   -13387776.25349  -9836389.45246  22891835.553    22891840.241
  23946540.951    -7826022.82649  -6086933.21045  23946540.525    23946548.062
  23815541.602    -8440079.57249  -6275505.74445  23815541.014    23815546.570
  24072650.092    -5534246.72349  -4290503.22645  24072649.411    24072656.496
 03  4 11  2  2  0.0000000  0  8G31G14G15G25G11G 3G18G23
  23333558.976    -7247950.16049  -5632614.78246  23333558.333    23333564.956
  20613563.636   -24648661.13149 -19197309.05548  20613563.037    20613567.239
  23287994.723   -12539393.62249  -9758778.46646  23287993.918    23288001.445
  22389813.048   -15301312.92949 -11906656.17946  22389812.745    22389818.858
  22875855.272   -13471755.37949  -9901827.71646  22875854.845    22875859.502
  23962430.783    -7742521.49449  -6021867.30045  23962430.335    23962437.894
  23829275.693    -8367906.44749  -6219266.96245  23829275.236    23829280.679
  24084216.857    -5473462.99649  -4243139.30045  24084216.204    24084223.200
 03  4 11  2  2 30.0000000  0  8G31G14G15G25G11G 3G18G23
  23345883.308    -7183185.43749  -5582148.78746  23345882.672    23345889.287
  20621671.639   -24606053.24249 -19164108.10648  20621671.064    20621675.249
  23308128.764   -12433589.00749  -9676333.34946  23308127.969    23308135.456
  22373431.293   -15387399.36449 -11973736.47446  22373431.016    22373437.104
  22859927.774   -13555454.90549  -9967048.09946  22859927.332    22859931.968
  23978333.657    -7658951.46949  -5956747.86045  23978333.165    23978340.790
  23843027.982    -8295637.83149  -6162953.75745  23843027.566    23843032.874
  24095798.707    -5412599.98249  -4195713.57145  24095797.997    24095805.084
 03  4 11  2  3  0.0000000  0  8G31G14G15G25G11G 3G18G23
  23358265.026    -7118119.19549  -5531447.83246  23358264.390    23358270.972
  20629847.463   -24563089.07049 -19130629.53548  20629846.874    20629851.067
  23328304.550   -12327564.93649  -9593717.21045  23328303.802    23328311.181
  22357100.299   -15473219.12149 -12040608.97146  22357100.002    22357106.080
  22844054.032   -13638871.87349 -10032048.30746  22844053.570    22844058.201
  23994249.253    -7575314.78349  -5891576.46845  23994248.817    23994256.398
  23856798.617    -8223272.83749  -6106565.48645  23856798.072    23856803.604
  24107395.874    -5351656.30549  -4148225.01545  24107395.107    24107402.278
 03  4 11  2  3 30.0000000  0  8G31G14G15G25G11G 3G18G23
  23370703.449    -7052754.82849  -5480514.59446  23370702.839    23370709.391
  20638090.601   -24519770.96249 -19096875.16648  20638090.028    20638094.218
  23348521.536   -12221323.98049  -9510932.10445  23348520.886    23348528.243
  22340820.385   -15558770.46449 -12107272.30946  22340820.092    22340826.125
  22828234.419   -13722004.40149 -10096826.87346  22828233.963    22828238.545
  24010176.868    -7491614.77749  -5826355.75345  24010176.491    24010183.978
  23870587.502    -8150811.71149  -6050102.27545  23870586.976    23870592.463
  24119008.317    -5290632.11049  -4100673.69645  24119007.728    24119014.737
 03  4 11  2  4  0.0000000  0  8G31G14G15G25G11G 3G18G23
  23383198.134    -6987095.07649  -5429351.16146  23383197.519    23383204.036
  20646400.712   -24476100.97749 -19062846.61048  20646400.135    20646404.329
  23368779.431   -12114867.98149  -9427979.43845  23368778.781    23368786.200
  22324592.162   -15644050.14149 -12173723.96446  22324591.857    22324597.905
  22812469.457   -13804849.70249 -10161381.61946  22812469.016    22812473.564
  24026116.027    -7407854.26149  -5761087.87045  24026115.586    24026123.195
  23884394.683    -8078254.59549  -5993564.26245  23884394.138    23884399.689
  24130636.285    -5229526.77449  -4053059.12945  24130635.658    24130642.721
 03  4 11  2  4 30.0000000  0  8G31G14G15G25G11G 3G18G23
  23395748.375    -6921143.22649  -5377960.13746  23395747.770    23395754.275
  20654777.416   -24432081.10649 -19028545.41348  20654776.856    20654781.032
  23389077.841   -12008199.42349  -9344861.13145  23389077.158    23389084.518
  22308416.020   -15729056.24949 -12239962.44246  22308415.715    22308421.781
  22796759.533   -13887405.80449 -10225711.02546  22796759.092    22796763.639
  24042066.011    -7324036.66549  -5695775.52845  24042065.594    24042073.099
  23898220.114    -8005601.54749  -5936951.51545  23898219.547    23898225.145
  24142279.731    -5168340.33349  -4005381.39145  24142279.108    24142286.081
 03  4 11  2  5  0.0000000  0  8G31G14G15G25G11G 3G18G23
  23408353.747    -6854901.74649  -5326343.43846  23408353.094    23408359.619
  20663220.384   -24387713.10849 -18993972.94848  20663219.801    20663224.003
  23409416.395   -11901319.77649  -9261578.35245  23409415.689    23409423.122
  22292292.497   -15813785.61849 -12305985.28846  22292292.188    22292298.247
  22781105.154   -13969669.89849 -10289812.88546  22781104.730    22781109.296
  24058026.417    -7240164.41049  -5630420.58045  24058025.995    24058033.515
  23912063.892    -7932852.09649  -5880263.64245  23912063.274    23912068.889
  24153938.743    -5107071.99849  -3957639.84545  24153938.057    24153945.063
 03  4 11  2  5 30.0000000  0  8G31G14G15G25G11G 3G18G23
  23421013.606    -6788374.02149  -5274503.66246  23421012.990    23421019.468
  20671729.135   -24342999.22449 -18959130.96048  20671728.550    20671732.742
  23429794.777   -11794231.19149  -9178132.75145  23429794.021    23429801.395
  22276222.073   -15898236.14349 -12371790.84246  22276221.763    22276227.810
  22765506.667   -14051640.27449 -10353685.87446  22765506.247    22765510.819
  24073996.596    -7156240.67249  -5565025.51445  24073996.179    24074003.765
  23925925.899    -7860006.89049  -5823501.14545  23925925.257    23925930.903
  24165613.272    -5045721.88249  -3909834.56745  24165612.545    24165619.736
 03  4 11  2  6  0.0000000  0  8G31G14G15G25G11G 3G18G23
  23433727.407    -6721562.68949  -5222442.92346  23433726.789    23433733.302
  20680303.406   -24297941.14949 -18924020.77648  20680302.834    20680307.044
  23450212.506   -11686935.52649  -9094525.79045  23450211.726    23450219.179
  22260205.343   -15982404.45249 -12437376.48946  22260205.051    22260211.062
  22749964.640   -14133314.00549 -10417327.71446  22749964.228    22749968.764
  24089976.058    -7072268.08149  -5499592.38245  24089975.667    24089983.333
  23939806.206    -7787065.36949  -5766663.61445  23939805.546    23939811.286
  24177303.485    -4984289.30349  -3861965.04345  24177302.712    24177309.887
 03  4 11  2  6 30.0000000  0  8G31G14G15G25G11G 3G18G23
  23446494.691    -6654470.43049  -5170163.25946  23446494.069    23446500.553
  20688942.778   -24252540.86449 -18888643.93248  20688942.193    20688946.411
  23470669.251   -11579434.67949  -9010758.94445  23470668.484    23470676.023
  22244242.806   -16066288.00049 -12502740.24247  22244242.511    22244248.537
  22734479.537   -14214688.64649 -10480736.49446  22734479.128    22734483.667
  24105964.368    -6988249.08549  -5434123.09645  24105963.978    24105971.759
  23953704.928    -7714027.21449  -5709750.76945  23953704.235    23953709.984
  24189009.548    -4922773.56649  -3814030.70245  24189008.827    24189016.025
 03  4 11  2  7  0.0000000  0  8G31G14G15G25G11G 3G18G23
  23459314.763    -6587100.41549  -5117667.17546  23459314.125    23459320.670
  20697646.885   -24206800.43149 -18853002.03748  20697646.308    20697650.521
  23491164.608   -11471730.93849  -8926833.97445  23491163.765    23491171.283
  22228334.922   -16149884.32349 -12567880.18847  22228334.634    22228340.646
  22719051.750   -14295761.96449 -10543910.47646  22719051.339    22719055.897
  24121960.872    -6904186.78849  -5368620.05945  24121960.584    24121968.224
  23967621.980    -7640892.68849  -5652762.82545  23967621.360    23967627.028
  24200731.425    -4861174.62749  -3766031.54445  24200730.743    24200737.977
 03  4 11  2  7 30.0000000  0  8G31G14G15G25G11G 3G18G23
  23472187.103    -6519455.76149  -5064957.06146  23472186.493    23472193.051
  20706415.297   -24160722.03749 -18817096.79548  20706414.707    20706418.933
  23511698.190   -11363826.42349  -8842752.63245  23511697.280    23511705.021
  22212482.134   -16233191.02849 -12632794.45047  22212481.849    22212487.831
  22703681.745   -14376531.75949 -10606847.93946  22703681.318    22703685.902
  24137965.090    -6820084.33649  -5303085.74145  24137964.735    24137972.382
  23981557.327    -7567661.77649  -5595699.78445  23981556.714    23981562.403
  24212469.227    -4799492.10349  -3717967.23745  24212468.476    24212475.715
 03  4 11  2  8  0.0000000  0  8G31G14G15G25G11G 3G18G23
  23485111.259    -6451538.89749  -5012034.87746  23485110.637    23485117.161
  20715247.768   -24114307.23349 -18780929.41448  20715247.173    20715251.422
  23532269.746   -11255722.65649  -8758515.97245  23532268.810    23532276.641
  22196685.069   -16316204.90749 -12697480.54347  22196684.775    22196690.749
  22688369.995   -14456995.26549 -10669546.74146  22688369.559    22688374.171
  24153976.433    -6735944.13449  -5237522.00745  24153976.021    24153983.812
  23995511.077    -7494334.24549  -5538561.45545  23995510.434    23995516.170
  24224223.115    -4737725.23049  -3669837.20845  24224222.360    24224229.478
 03  4 11  2  8 30.0000000  0  8G31G14G15G25G11G 3G18G23
  23498086.519    -6383353.67349  -4958903.56346  23498085.893    23498092.404
  20724143.648   -24067558.93649 -18744502.16848  20724143.054    20724147.294
  23552878.615   -11147422.38249  -8674126.13245  23552877.732    23552885.291
  22180944.145   -16398923.92549 -12761936.86847  22180943.832    22180949.798
  22673116.861   -14537150.94749 -10732005.67846  22673116.428    22673121.050
  24169994.323    -6651769.69449  -5171931.58045  24169993.971    24170001.762
  24009483.164    -7420910.41349  -5481348.07945  24009482.572    24009488.266
  24235992.938    -4675874.40649  -3621641.75545  24235992.261    24235999.347
 03  4 11  2  9  0.0000000  0  8G31G14G15G25G11G 3G18G23
  23511112.317    -6314902.51349  -4905565.01546  23511111.746    23511118.202
  20733102.760   -24020478.55649 -18707816.15448  20733102.162    20733106.406
  23573524.563   -11038927.14549  -8589584.48445  23573523.789    23573531.525
  22165259.809   -16481345.32549 -12826161.28047  22165259.530    22165265.481
  22657922.846   -14616995.86749 -10794222.46246  22657922.427    22657927.004
  24186018.342    -6567563.38849  -5106316.31845  24186017.908    24186025.759
  24023473.544    -7347390.18249  -5424059.60045  24023472.976    24023478.638
  24247778.860    -4613938.86849  -3573380.29745  24247778.173    24247785.268
 03  4 11  2  9 30.0000000  0  8G31G14G15G25G11G 3G18G23
  23524188.239    -6246188.21049  -4852021.43546  23524187.673    23524194.129
  20742124.660   -23973068.09549 -18670872.93648  20742124.056    20742128.320
  23594207.214   -10930238.95849  -8504892.43645  23594206.471    23594214.212
  22149632.711   -16563466.16849 -12890151.49947  22149632.409    22149638.367
  22642788.454   -14696527.47249 -10856195.10846  22642788.024    22642792.636
  24202047.802    -6483328.19149  -5040678.55345  24202047.291    24202055.334
  24037482.379    -7273773.25749  -5366695.77945  24037481.797    24037487.466
  24259581.003    -4551918.10049  -3525052.44045  24259580.362    24259587.439
 03  4 11  2 10  0.0000000  0  8G31G14G15G25G11G 3G18G23
  23537313.652    -6177213.91449  -4798275.26546  23537313.077    23537319.552
  20751208.984   -23925329.49949 -18633674.03048  20751208.397    20751212.653
  23614926.271   -10821359.98749  -8420051.71545  23614925.489    23614933.146
  22134063.231   -16645284.08549 -12953905.66947  22134062.917    22134068.871
  22627714.104   -14775743.65549 -10917921.97246  22627713.680    22627718.278
  24218082.210    -6399066.88549  -4975020.45345  24218081.641    24218089.698
  24051509.623    -7200059.68749  -5309256.63045  24051509.046    24051514.741
  24271399.495    -4489811.69849  -3476657.84245  24271398.840    24271405.918
 03  4 11  2 10 30.0000000  0  8G31G14G15G25G11G 3G18G23
  23550487.877    -6107982.83849  -4744328.99846  23550487.307    23550493.790
  20760355.355   -23877265.06749 -18596221.22548  20760354.775    20760359.015
  23635681.135   -10712292.56049  -8335064.14345  23635680.419    23635688.102
  22118551.892   -16726796.57249 -13017421.84247  22118551.575    22118557.526
  22612700.198   -14854642.09949 -10979401.24546  22612699.793    22612704.375
  24234121.081    -6314782.38849  -4909344.26145  24234120.478    24234128.606
  24065555.185    -7126249.58649  -5251742.27045  24065554.673    24065560.312
  24283234.271    -4427619.58749  -3428196.46245  24283233.567    24283240.710
 03  4 11  2 11  0.0000000  0  8G31G14G15G25G11G 3G18G23
  23563710.479    -6038497.68349  -4690184.72946  23563709.853    23563716.395
  20769563.364   -23828876.56949 -18558515.90248  20769562.791    20769567.045
  23656471.458   -10603038.39749  -8249931.09045  23656470.806    23656478.518
  22103099.217   -16808000.72149 -13080697.76247  22103098.903    22103104.820
  22597747.188   -14933220.59249 -11040631.20146  22597746.796    22597751.363
  24250163.862    -6230477.12649  -4843651.89745  24250163.291    24250171.383
  24079619.181    -7052342.65449  -5194152.45245  24079618.627    24079624.258
  24295085.460    -4365341.13249  -3379667.81045  24295084.723    24295091.799
 03  4 11  2 11 30.0000000  0  8G31G14G15G25G11G 3G18G23
  23576980.940    -5968761.09849  -4635844.56546  23576980.336    23576986.897
  20778832.695   -23780165.76949 -18520559.43648  20778832.124    20778836.363
  23677297.048   -10493599.46849  -8164654.06845  23677296.298    23677304.120
  22087705.702   -16888893.97949 -13143731.42647  22087705.380    22087711.301
  22582855.697   -15011475.90249 -11101609.33346  22582855.275    22582859.825
  24266210.084    -6146153.89949  -4777945.54945  24266209.523    24266217.597
  24093701.654    -6978338.70549  -5136487.03545  24093701.068    24093706.800
  24306953.152    -4302975.70049  -3331071.36045  24306952.387    24306959.577
 03  4 11  2 12  0.0000000  0  8G31G14G15G25G11G 3G18G23
  23590298.440    -5898777.21449  -4581311.68746  23590297.807    23590304.394
  20788162.814   -23731135.77249 -18482354.24348  20788162.235    20788166.475
  23698157.306   -10383978.71849  -8079235.31745  23698156.468    23698164.314
  22072371.671   -16969474.69849 -13206521.54847  22072371.375    22072377.266
  22568025.840   -15089407.12249 -11162334.92646  22568025.401    22568029.950
  24282258.954    -6061816.65049  -4712228.26845  24282258.511    24282266.439
  24107802.424    -6904238.62549  -5078746.71645  24107801.795    24107807.589
  24318837.264    -4240524.08349  -3282407.77045  24318836.520    24318843.703
 03  4 11  2 12 30.0000000  0  8G31G14G15G25G11G 3G18G23
  23603662.693    -5828547.78749  -4526587.47645  23603662.025    23603668.677
  20797553.461   -23681787.50549 -18443901.04748  20797552.884    20797557.135
  23719051.914   -10274176.83349  -7993675.44445  23719051.121    23719058.910
  22057097.821   -17049739.10649 -13269065.19547  22057097.519    22057103.420
  22553258.336   -15167010.74949 -11222805.25446  22553257.905    22553262.463
  24298310.249    -5977466.97949  -4646501.28645  24298309.780    24298317.519
  24121921.691    -6830041.38049  -5020930.68545  24121921.072    24121926.850
  24330738.090    -4177984.68649  -3233675.76945  24330737.451    24330744.587
 03  4 11  2 13  0.0000000  0  8G31G14G15G25G11G 3G18G23
  23617073.009    -5758076.23549  -4471674.60845  23617072.351    23617079.007
  20807004.249   -23632123.20149 -18405201.58948  20807003.671    20807007.926
  23739980.438   -10164196.57549  -7907976.61945  23739979.554    23739987.491
  22041884.570   -17129685.12049 -13331360.74847  22041884.261    22041890.156
  22538553.523   -15244284.75349 -11283018.73446  22538553.114    22538557.642
  24314363.347    -5893107.83749  -4580766.93445  24314362.847    24314370.601
  24136059.431    -6755747.23749  -4963039.15345  24136058.944    24136064.527
  24342655.691    -4115357.43949  -3184875.32245  24342655.060    24342662.184
 03  4 11  2 13 30.0000000  0  8G31G14G15G25G11G 3G18G23
  23630528.749    -5687365.84449  -4416575.63245  23630528.146    23630534.815
  20816514.734   -23582145.30549 -18366257.77648  20816514.157    20816518.405
  23760942.618   -10054040.33249  -7822140.60545  23760941.674    23760949.652
  22026732.292   -17209310.73949 -13393406.63647  22026731.991    22026737.892
  22523911.883   -15321227.04049 -11342973.73146  22523911.461    22523915.972
  24330417.592    -5808742.56749  -4515027.81545  24330417.113    24330424.810
  24150215.493    -6681356.73149  -4905072.52045  24150214.914    24150220.581
  24354589.974    -4052642.45949  -3136006.50445  24354589.358    24354596.430
 03  4 11  2 14  0.0000000  0  8G31G14G15G25G11G 3G18G23
  23644029.469    -5616419.10049  -4361292.48645  23644028.859    23644035.496
  20826084.559   -23531855.44849 -18327070.87648  20826083.982    20826088.236
  23781937.919    -9943709.57849  -7736168.54945  23781937.089    23781944.724
  22011641.597   -17288612.68349 -13455200.31847  22011641.308    22011647.177
  22509333.928   -15397834.62549 -11402667.91946  22509333.493    22509338.003
  24346472.507    -5724373.53749  -4449285.77145  24346472.019    24346479.784
  24164390.016    -6606869.09849  -4847030.21845  24164389.481    24164395.212
  24366541.087    -3989838.81049  -3087068.59445  24366540.435    24366547.601
 03  4 11  2 14 30.0000000  0  8G31G14G15G25G11G 3G18G23
  23657574.465    -5545239.72649  -4305828.06145  23657573.802    23657580.519
  20835713.295   -23481256.07649 -18287642.79048  20835712.726    20835716.984
  23802965.775    -9833207.17949  -7650062.90545  23802964.999    23802972.925
  21996612.853   -17367588.99249 -13516740.25247  21996612.542    21996618.418
  22494819.902   -15474106.21149 -11462100.29846  22494819.481    22494823.985
  24362527.577    -5640003.89649  -4383543.24145  24362527.104    24362534.842
  24178582.909    -6532284.88549  -4788912.65745  24178582.456    24178588.145
  24378509.044    -3926946.76749  -3038061.80845  24378508.520    24378515.584
 03  4 11  2 15  0.0000000  0  8G31G14G15G25G11G 3G18G23
  23671163.306    -5473829.89049  -4250184.05445  23671162.635    23671169.386
  20845400.696   -23430348.43549 -18247974.50248  20845400.110    20845404.379
  23824026.071    -9722534.57749  -7563824.50045  23824025.260    23824033.005
  21981646.723   -17446236.42849 -13578023.92347  21981646.413    21981652.274
  22480370.436   -15550038.40349 -11521268.20946  22480370.024    22480374.535
  24378582.300    -5555635.87949  -4317801.98545  24378581.879    24378589.644
  24192794.331    -6457603.44049  -4730719.32545  24192793.897    24192799.574
  24390494.053    -3863965.17549  -2988985.24345  24390493.484    24390500.661
 03  4 11  2 15 30.0000000  0  8G31G14G15G25G11G 3G18G23
  23684795.368    -5402193.14249  -4194363.25545  23684794.668    23684801.463
  20855146.248   -23379135.18049 -18208068.06748  20855145.673    20855149.934
  23845118.439    -9611694.09349  -7477455.37845  23845117.549    23845125.516
  21966743.546   -17524552.84249 -13639049.65247  21966743.230    21966749.097
  22465985.882   -15625629.50949 -11580170.34146  22465985.492    22465989.952
  24394636.115    -5471272.60049  -4252064.42545  24394635.606    24394643.534
  24207024.286    -6382824.88649  -4672450.31045  24207023.737    24207029.504
  24402496.077    -3800894.25049  -2939839.07445  24402495.434    24402502.610
 03  4 11  2 16  0.0000000  0  8G31G14G15G25G11G 3G18G23
  23698470.061    -5330332.45849  -4138367.93645  23698469.391    23698476.131
  20864949.616   -23327618.21149 -18167924.97348  20864949.026    20864953.298
  23866242.253    -9500687.94149  -7390957.06145  23866241.465    23866249.193
  21951903.816   -17602535.90749 -13699815.63347  21951903.514    21951909.354
  22451666.764   -15700876.98249 -11638804.70646  22451666.385    22451670.813
  24410688.491    -5386916.77249  -4186332.66445  24410688.072    24410695.997
  24221272.597    -6307949.50449  -4614105.84445  24221272.132    24221277.723
  24414515.171    -3737733.61949  -2890622.99145  24414514.553    24414521.719
 03  4 11  2 16 30.0000000  0  8G31G14G15G25G11G 3G18G23
  23712186.705    -5258250.77549  -4082200.43245  23712186.125    23712192.768
  20874810.375   -23275799.45949 -18127546.72548  20874809.790    20874814.068
  23887397.194    -9389518.10249  -7304331.20545  23887396.409    23887404.057
  21937127.999   -17680183.12949 -13760319.90947  21937127.693    21937133.539
  22437413.357   -15775778.86049 -11697169.78246  22437412.972    22437417.456
  24426738.964    -5302571.19249  -4120608.89145  24426738.651    24426746.471
  24235539.353    -6232977.12149  -4555685.81045  24235538.866    24235544.405
  24426551.413    -3674482.81749  -2841336.64245  24426550.830    24426557.931
 03  4 11  2 17  0.0000000  0  8G31G14G15G25G11G 3G18G23
  23725944.920    -5185950.96049  -4025862.94245  23725944.321    23725951.009
  20884728.167   -23223681.07449 -18086934.99948  20884727.584    20884731.849
  23908582.890    -9278186.53449  -7217579.41145  23908582.083    23908589.871
  21922416.630   -17757491.75949 -13820560.35647  21922416.347    21922422.162
  22423226.293   -15850332.30449 -11755263.34446  22423225.904    22423230.399
  24442786.982    -5218238.59449  -4054895.22845  24442786.641    24442794.505
  24249824.591    -6157907.69149  -4497190.14445  24249824.017    24249829.562
  24438604.893    -3611141.41849  -2791979.71145  24438604.266    24438611.444
 03  4 11  2 17 30.0000000  0  8G31G14G15G25G11G 3G18G23
  23739744.106    -5113435.79549  -3969357.64545  23739743.567    23739750.218
  20894702.711   -23171264.49049 -18046090.90848  20894702.139    20894706.409
  23929798.984    -9166695.02349  -7130702.90645  23929798.135    23929805.794
  21907770.192   -17834459.03149 -13880534.80247  21907769.887    21907775.714
  22409106.030   -15924534.71949 -11813083.37946  22409105.609    22409110.072
  24458832.055    -5133921.34949  -3989193.53345  24458831.674    24458839.706
  24264128.344    -6082740.72549  -4438618.49745  24264127.784    24264133.508
  24450675.777    -3547708.58149  -2742551.52145  24450675.210    24450682.363
 03  4 11  2 18  0.0000000  0  8G31G14G15G25G11G 3G18G23
  23753583.548    -5040709.19349  -3912687.59445  23753582.987    23753589.626
  20904733.406   -23118552.78249 -18005016.85048  20904732.835    20904737.134
  23951044.973    -9055046.94349  -7043704.44645  23951044.088    23951051.952
  21893189.044   -17911083.22349 -13940241.91747  21893188.751    21893194.573
  22395052.714   -15998385.13749 -11870629.14246  22395052.308    22395056.761
  24474873.518    -5049623.16949  -3923506.68745  24474873.069    24474881.223
  24278450.482    -6007477.36349  -4379971.71545  24278449.909    24278455.653
  24462763.910    -3484185.12349  -2693052.73645  24462763.351    24462770.498
 03  4 11  2 18 30.0000000  0  8G31G14G15G25G11G 3G18G23
  23767462.936    -4967772.64449  -3855853.94945  23767462.358    23767469.092
  20914820.169   -23065546.45449 -17963713.21748  20914819.602    20914823.885
  23972320.596    -8943242.64849  -6956584.22245  23972319.797    23972327.489
  21878673.880   -17987360.78549 -13999678.93447  21878673.590    21878679.393
  22381067.167   -16071879.59849 -11927897.52546  22381066.770    22381071.183
  24490911.121    -4965345.36549  -3857835.71445  24490910.685    24490918.751
  24292791.226    -5932115.92049  -4321248.52745  24292790.601    24292796.433
  24474869.653    -3420569.02049  -2643481.72845  24474869.071    24474876.208
 03  4 11  2 19  0.0000000  0  8G31G14G15G25G11G 3G18G23
  23781381.421    -4894630.76649  -3798860.31545  23781380.793    23781387.566
  20924962.305   -23012249.19349 -17922182.88848  20924961.720    20924966.018
  23993625.240    -8831285.84649  -6869345.21045  23993624.469    23993632.165
  21864224.816   -18063290.79749 -14058845.12947  21864224.522    21864230.318
  22367149.522   -16145017.15449 -11984887.80846  22367149.125    22367153.533
  24506944.037    -4881092.01849  -3792183.82545  24506943.645    24506951.660
  24307150.408    -5856658.10749  -4262450.22445  24307149.840    24307155.618
  24486992.767    -3356861.58249  -2593839.56545  24486992.089    24486999.420
 03  4 11  2 19 30.0000000  0  8G31G14G15G25G11G 3G18G23
  23795338.558    -4821285.43949  -3741708.15145  23795337.930    23795344.706
  20935159.677   -22958661.64049 -17880426.35448  20935159.101    20935163.389
  24014958.866    -8719177.47649  -6781988.03945  24014958.130    24014965.647
  21849842.695   -18138869.31349 -14117737.43347  21849842.399    21849848.187
  22353300.510   -16217794.20849 -12041597.17846  22353300.103    22353304.524
  24522971.986    -4796864.74149  -3726552.22445  24522971.589    24522979.709
  24321528.206    -5781102.59649  -4203575.80845  24321527.497    24321533.299
  24499133.565    -3293061.12749  -2544124.91645  24499132.904    24499140.179
 03  4 11  2 20  0.0000000  0  8G31G14G15G25G11G 3G18G23
  23809333.662    -4747740.65749  -3684400.55645  23809333.091    23809339.858
  20945411.677   -22904786.88649 -17838446.03148  20945411.104    20945415.400
  24036320.609    -8606920.44049  -6694515.05645  24036320.011    24036327.480
  21835527.636   -18214095.15649 -14176354.92247  21835527.339    21835533.113
  22339520.275   -16290209.62749 -12098024.75946  22339519.872    22339524.287
  24538994.288    -4712667.16849  -3660943.78145  24538993.939    24539001.946
  24335924.281    -5705450.47749  -4144626.12445  24335923.531    24335929.449
  24511291.939    -3229168.34749  -2494338.36145  24511291.156    24511298.451
 03  4 11  2 20 30.0000000  0  8G31G14G15G25G11G 3G18G23
  23823366.355    -4673998.46849  -3626939.14645  23823365.757    23823372.576
  20955718.148   -22850626.10049 -17796242.82348  20955717.589    20955721.875
  24057710.473    -8494515.90449  -6606927.17445  24057709.764    24057717.408
  21821280.348   -18288964.96249 -14234694.98047  21821280.062    21821285.814
  22325809.477   -16362260.27349 -12154168.09646  22325809.094    22325813.519
  24555010.513    -4628501.24549  -3595359.97145  24555010.170    24555018.264
  24350339.003    -5629700.54049  -4085600.20945  24350338.303    24350344.048
  24523468.132    -3165181.94949  -2444478.83145  24523467.337    24523474.658
 03  4 11  2 21  0.0000000  0  8G31G14G15G25G11G 3G18G23
  23837435.781    -4600062.95749  -3569327.09345  23837435.196    23837442.025
  20966078.463   -22796182.24749 -17753819.04447  20966077.906    20966082.193
  24079127.825    -8381967.31149  -6519226.93745  24079127.157    24079134.612
  21807101.083   -18363477.32049 -14292756.51447  21807100.808    21807106.538
  22312168.287   -16433945.07649 -12210026.37146  22312167.868    22312172.318
  24571020.018    -4544370.63349  -3529803.73045  24571019.677    24571027.860
  24364772.127    -5553853.99349  -4026498.98745  24364771.549    24364777.175
  24535661.923    -3101102.86949  -2394547.07845  24535661.286    24535668.376
 03  4 11  2 21 30.0000000  0  8G31G14G15G25G11G 3G18G23
  23851541.697    -4525936.19649  -3511566.00045  23851541.122    23851547.873
  20976492.476   -22741456.36049 -17711175.49847  20976491.907    20976496.197
  24100572.295    -8269275.57849  -6431415.28145  24100571.631    24100579.272
  21792990.573   -18437628.54149 -14350536.63947  21792990.287    21792995.991
  22298597.377   -16505260.70749 -12265596.97146  22298596.963    22298601.400
  24587022.542    -4460277.19349  -3464276.39645  24587022.129    24587030.171
  24379223.825    -5477909.74149  -3967321.66145  24379223.365    24379228.925
  24547873.697    -3036929.63549  -2344541.95545  24547872.981    24547880.216
 03  4 11  2 22  0.0000000  0  8G31G14G15G25G11G 3G18G23
  23865683.258    -4451622.17049  -3453658.99445  23865682.672    23865689.424
  20986959.591   -22686451.31049 -17668314.42447  20986959.011    20986963.314
  24122043.511    -8156444.02849  -6343494.56145  24122042.738    24122050.301
  21778948.934   -18511417.65149 -14408034.59747  21778948.648    21778954.335
  22285096.958   -16576205.68449 -12320878.75746  22285096.579    22285100.992
  24603017.316    -4376224.30249  -3398780.68945  24603016.955    24603024.854
  24393694.006    -5401868.69849  -3908068.92345  24393693.458    24393699.141
  24560103.249    -2972662.83049  -2294463.94545  24560102.555    24560109.854
 03  4 11  2 22 30.0000000  0  8G31G14G15G25G11G 3G18G23
  23879860.087    -4377122.67749  -3395607.46245  23879859.487    23879866.301
  20997479.639   -22631168.04349 -17625236.55247  20997479.068    20997483.373
  24143541.020    -8043473.60049  -6255465.73345  24143540.255    24143548.117
  21764976.857   -18584841.22249 -14465247.72647  21764976.570    21764982.249
  22271667.810   -16646776.39849 -12375868.90546  22271667.396    22271671.808
  24619004.013    -4292213.70549  -3333317.92445  24619003.729    24619011.628
  24408182.745    -5325729.79549  -3848739.91345  24408182.296    24408187.894
  24572350.886    -2908300.92449  -2244311.82245  24572350.145    24572357.434
 03  4 11  2 23  0.0000000  0  8G31G14G15G25G11G 3G18G23
  23894071.409    -4302441.82249  -3337414.61645  23894070.809    23894077.620
  21008052.070   -22575609.52949 -17581944.20647  21008051.508    21008055.790
  24165064.494    -7930367.33149  -6167330.96845  24165063.575    24165071.448
  21751074.612   -18657897.78849 -14522174.87347  21751074.344    21751079.971
  22258310.025   -16716971.93349 -12430566.70947  22258309.613    22258314.017
  24634982.076    -4208249.00749  -3267890.90945  24634981.648    24634989.651
  24422689.863    -5249494.19749  -3789335.53345  24422689.584    24422694.868
  24584616.528    -2843844.75049  -2194086.22745  24584615.755    24584622.857
 03  4 11  2 23 30.0000000  0  8G31G14G15G25G11G 3G18G23
  23908316.745    -4227582.09749  -3279082.39645  23908316.157    23908322.907
  21018676.560   -22519777.40349 -17538438.65347  21018675.993    21018680.286
  24186613.411    -7817127.08449  -6079091.83445  24186612.736    24186620.553
  21737242.781   -18730584.32449 -14578813.68547  21737242.510    21737248.132
  22245024.199   -16786789.47049 -12484969.96347  22245023.791    22245028.210
  24650950.808    -4124332.47749  -3202501.45645  24650950.543    24650958.488
  24437215.556    -5173161.51249  -3729855.55245  24437215.198    24437220.495
  24596900.231    -2779293.43049  -2143786.52645  24596899.520    24596906.496
 03  4 11  2 24  0.0000000  0  8G31G14G15G25G11G 3G18G23
  23922595.547    -4152546.89749  -3220613.44345  23922594.902    23922601.728
  21029352.732   -22463673.83549 -17494721.59247  21029352.162    21029356.460
  24208187.311    -7703754.97949  -5990749.98345  24208186.542    24208194.548
  21723481.758   -18802898.81849 -14635162.59447  21723481.487    21723487.086
  22231810.631   -16856227.06249 -12539077.15747  22231810.228    22231814.653
  24666909.894    -4040467.29549  -3137151.99145  24666909.444    24666917.599
  24451759.622    -5096731.68249  -3670299.85745  24451759.209    24451764.690
  24609202.020    -2714646.89349  -2093412.62745  24609201.304    24609208.630
 03  4 11  2 24 30.0000000  0  8G31G14G15G25G11G 3G18G23
  23936907.122    -4077338.98349  -3162009.90445  23936906.524    23936913.327
  21040080.198   -22407300.58649 -17450794.38947  21040079.646    21040083.926
  24229786.167    -7590253.32149  -5902307.10045  24229785.409    24229793.177
  21709792.070   -18874838.50649 -14691219.44547  21709791.784    21709797.383
  22218669.853   -16925282.23149 -12592886.36147  22218669.455    22218673.882
  24682858.781    -3956655.47449  -3071844.13945  24682858.383    24682866.421
  24466322.190    -5020204.68549  -3610668.40445  24466321.738    24466327.179
  24621522.100    -2649904.57249  -2042964.04745  24621521.364    24621528.647
 03  4 11  2 25  0.0000000  0  8G31G14G15G25G11G 3G18G23
  23951251.066    -4001961.03249  -3103273.85145  23951250.515    23951257.323
  21050858.658   -22350659.35549 -17406658.36847  21050858.084    21050862.369
  24251409.024    -7476623.61349  -5813764.54445  24251408.329    24251416.270
  21696174.139   -18946400.99449 -14746982.37447  21696173.842    21696179.457
  22205602.330   -16993952.48649 -12646395.62947  22205601.932    22205606.369
  24698797.050    -3872899.53549  -3006579.80545  24698796.679    24698804.528
  24480903.361    -4943580.14849  -3550960.97945  24480902.794    24480908.440
  24633860.421    -2585066.01449  -1992440.49145  24633859.784    24633867.044
 03  4 11  2 25 30.0000000  0  8G31G14G15G25G11G 3G18G23
  23965626.755    -3926416.45149  -3044407.98445  23965626.133    23965632.948
  21061687.690   -22293752.48749 -17362315.35847  21061687.117    21061691.393
  24273056.136    -7362868.29149  -5725124.01045  24273055.294    24273063.199
  21682628.390   -19017584.20249 -14802449.76147  21682628.089    21682633.708
  22192608.358   -17062236.16349 -12699603.67047  22192607.947    22192612.373
  24714724.075    -3789202.31349  -2941361.21845  24714723.764    24714731.591
  24495503.088    -4866858.15149  -3491177.58645  24495502.627    24495508.114
  24646217.203    -2520131.09049  -1941841.87445  24646216.389    24646223.550
 03  4 11  2 26  0.0000000  0  8G31G14G15G25G11G 3G18G23
  23980033.524    -3850708.40349  -2985414.72745  23980032.968    23980039.701
  21072566.832   -22236582.15249 -17317767.05247  21072566.266    21072570.555
  24294726.416    -7248989.92449  -5636387.65245  24294725.651    24294733.517
  21669155.147   -19088386.26249 -14857620.15247  21669154.836    21669160.453
  22179688.425   -17130130.78449 -12752508.54847  22179688.022    22179692.442
  24730639.374    -3705566.91549  -2876190.84245  24730639.034    24730647.028
  24510121.277    -4790039.13849  -3431318.60545  24510120.756    24510126.378
  24658592.307    -2455099.61549  -1891167.96245  24658591.682    24658598.700
 03  4 11  2 26 30.0000000  0  8G31G14G15G25G11G 3G18G23
  23994470.900    -3774839.67049  -2926296.27245  23994470.324    23994477.027
  21083495.794   -22179150.10349 -17273014.81347  21083495.220    21083499.516
  24316419.894    -7134990.18649  -5547556.66145  24316419.163    24316426.875
  21655755.068   -19158804.08149 -14912491.13247  21655754.753    21655760.382
  22166842.962   -17197634.05449 -12805108.47947  22166842.524    22166846.972
  24746542.555    -3621995.40249  -2811070.21045  24746542.236    24746550.251
  24524757.963    -4713122.70149  -3371383.70545  24524757.564    24524763.063
  24670985.868    -2389970.88149  -1840418.28345  24670985.323    24670992.061
 03  4 11  2 27  0.0000000  0  8G31G14G15G25G11G 3G18G23
  24008938.264    -3698813.38849  -2867055.03845  24008937.678    24008944.374
  21094474.160   -22121458.38149 -17228060.23347  21094473.600    21094477.884
  24338135.975    -7020871.37749  -5458632.95045  24338135.139    24338143.030
  21642428.379   -19228836.06449 -14967061.45947  21642428.069    21642433.675
  22154072.400   -17264743.80749 -12857401.76547  22154071.965    22154076.386
  24762433.012    -3538490.56149  -2746001.55345  24762432.634    24762440.735
  24539413.185    -4636109.11949  -3311373.12245  24539412.648    24539418.188
  24683397.930    -2324744.96049  -1789592.91445  24683397.369    24683404.354
 03  4 11  2 27 30.0000000  0  8G31G14G15G25G11G 3G18G23
  24023435.012    -3622632.57149  -2807693.38945  24023434.393    24023441.208
  21105501.554   -22063509.04349 -17182904.91147  21105500.996    21105505.281
  24359874.375    -6906635.69549  -5369618.11945  24359873.679    24359881.435
  21629175.613   -19298479.67449 -15021329.16347  21629175.304    21629180.895
  22141377.135   -17331457.79849 -12909386.67447  22141376.694    22141381.128
  24778310.311    -3455055.00449  -2680986.84945  24778309.783    24778318.052
  24554086.835    -4558998.46349  -3251286.88645  24554086.230    24554091.918
  24695828.586    -2259421.49649  -1738691.48345  24695828.034    24695835.045
 03  4 11  2 28  0.0000000  0  8G31G14G15G25G11G 3G18G23
  24037960.671    -3546299.80349  -2748213.34945  24037960.047    24037966.974
  21116577.718   -22005303.44349 -17137549.90747  21116577.148    21116581.450
  24381634.485    -6792284.88649  -5280513.60245  24381633.646    24381641.651
  21615997.221   -19367732.34849 -15075292.24147  21615996.937    21616002.485
  22128757.645   -17397773.53249 -12961061.25747  22128757.210    22128761.634
  24794174.014    -3371690.95449  -2616027.88045  24794173.551    24794181.577
  24568779.071    -4481790.17649  -3191124.62145  24568778.378    24568784.454
  24708277.972    -2193999.66149  -1687713.45645  24708277.495    24708284.459
 03  4 11  2 28 30.0000000  0  8G31G14G15G25G11G 3G18G23
  24052514.530    -3469818.74949  -2688617.76945  24052513.951    24052520.812
  21127702.135   -21946844.29849 -17091997.32947  21127701.567    21127705.861
  24403416.205    -6677821.87949  -5191321.62945  24403415.338    24403423.410
  21602893.508   -19436592.61449 -15128949.54447  21602893.208    21602898.774
  22116214.275   -17463689.35449 -13012424.21047  22116213.844    22116218.255
  24810023.413    -3288401.50449  -2551127.05445  24810022.929    24810030.818
  24583489.752    -4404485.03649  -3130886.83245  24583489.215    24583494.874
  24720745.973    -2128479.84049  -1636659.03945  24720745.484    24720752.633
 03  4 11  2 29  0.0000000  0  7G31G14G15G25G11G18G23
  24067096.389    -3393190.70949  -2628907.64045  24067095.836    24067102.646
  21138874.728   -21888131.87849 -17046247.39747  21138874.152    21138878.460
  24425218.937    -6563246.92549  -5102042.44045  24425218.143    24425226.088
  21589865.266   -19505056.34249 -15182297.85747  21589864.958    21589870.508
  22103747.694   -17529201.49049 -13063472.60947  22103747.244    22103751.658
  24598219.213    -4327081.15049  -3070572.11645  24598218.747    24598224.341
  24733233.035    -2062859.81049  -1585526.51245  24733232.499    24733239.619
 03  4 11  2 29 30.0000000  0  6G31G14G15G25G11G23
  24081704.969    -3316422.24449  -2569088.10445  24081704.423    24081711.103
  21150094.531   -21829171.44949 -17000304.21247  21150093.975    21150098.264
  24447042.162    -6448565.71449  -5012680.43845  24447041.156    24447049.373
  21576912.235   -19573124.81849 -15235338.18247  21576911.925    21576917.469
  22091357.695   -17594311.28649 -13114207.49647  22091357.242    22091361.636
  24745738.500    -1997143.12949  -1534318.73245  24745737.932    24745745.065
 03  4 11  2 30  0.0000000  0  5G31G14G15G25G11
  24096339.491    -3239517.43149  -2509162.31145  24096338.882    24096345.673
  21161360.927   -21769966.23549 -16954170.28647  21161360.355    21161364.662
  24468884.688    -6333781.62249  -4923238.32245  24468883.953    24468891.973
  21564034.642   -19640796.76149 -15288069.51847  21564034.350    21564039.867
  22079044.473   -17659017.60149 -13164627.98147  22079044.036    22079048.414
 03  4 11  2 30 30.0000000  0  5G31G14G15G25G11
  24111000.089    -3162475.55149  -2449129.70445  24110999.472    24111006.264
  21172674.237   -21710514.38949 -16907844.17747  21172673.653    21172677.971
  24490747.324    -6218893.13049  -4833714.75045  24490746.382    24490754.271
  21551233.623   -19708066.37449 -15340487.34747  21551233.312    21551238.834
  22066809.176   -17723314.45949 -13214729.41547  22066808.746    22066813.142
 03  4 11  2 31  0.0000000  0  5G31G14G15G25G11
  24125686.419    -3085298.45649  -2388991.73545  24125685.855    24125692.662
  21184034.287   -21650816.99349 -16861326.73047  21184033.719    21184038.024
  24512629.528    -6103900.91349  -4744110.49245  24512628.510    24512636.931
  21538509.802   -19774930.41649 -15392589.15147  21538509.500    21538515.020
  22054652.415   -17787198.60949 -13264509.25147  22054651.992    22054656.338
 03  4 11  2 31 30.0000000  0  5G31G14G15G25G11
  24140397.604    -3007990.87949  -2328752.09145  24140397.091    24140403.814
  21195440.378   -21590877.52749 -16814620.65647  21195439.812    21195444.115
  24534530.928    -5988809.02649  -4654428.39345  24534529.890    24534537.977
  21525863.184   -19841388.65449 -15444374.74247  21525862.885    21525868.386
  22042574.238   -17850669.75149 -13313967.26847  22042573.814    22042578.137
 03  4 11  2 32  0.0000000  0  5G31G14G15G25G11
  24155133.225    -2930554.73149  -2268412.28845  24155132.749    24155139.462
  21206892.390   -21530696.89049 -16767726.66147  21206891.824    21206896.116
  24556450.749    -5873618.64049  -4564669.68845  24556449.963    24556458.026
  21513294.455   -19907437.60249 -15495841.41447  21513294.136    21513299.614
  22030575.285   -17913724.67449 -13363100.96347  22030574.850    22030579.159
 03  4 11  2 32 30.0000000  0  5G31G14G15G25G11
  24169892.493    -2852994.54049  -2207975.81345  24169891.932    24169898.663
  21218389.650   -21470278.24049 -16720647.19647  21218389.085    21218393.387
  24578388.916    -5758333.62449  -4474837.18345  24578388.035    24578396.052
  21500803.743   -19973076.59949 -15546988.63447  21500803.424    21500808.887
  22018655.620   -17976362.73349 -13411909.82547  22018655.222    22018659.503
 03  4 11  2 33  0.0000000  0  5G31G14G15G25G11
  24184674.850    -2775312.82449  -2147444.62745  24184674.319    24184680.988
  21229931.892   -21409623.40149 -16673383.68747  21229931.324    21229935.630
  24600344.402    -5642955.34849  -4384931.98344  24600343.646    24600351.334
  21488391.523   -20038303.11249 -15597814.44347  21488391.206    21488396.646
  22006815.811   -18038581.29549 -13460391.80047  22006815.409    22006819.696
 03  4 11  2 33 30.0000000  0  5G31G14G15G25G11
  24199479.829    -2697512.33449  -2086820.91845  24199479.259    24199485.931
  21241518.808   -21348733.82449 -16625937.26847  21241518.243    21241522.536
  24622317.742    -5527485.85349  -4294955.70645  24622316.954    24622324.585
  21476058.296   -20103114.47849 -15648316.76047  21476057.985    21476063.408
  21995056.305   -18100377.96349 -13508545.03347  21995055.890    21995060.186
 03  4 11  2 34  0.0000000  0  5G31G14G15G25G11
  24214306.730    -2619596.56249  -2026107.35645  24214306.154    24214312.848
  21253149.905   -21287611.96049 -16578309.85047  21253149.341    21253153.646
  24644307.448    -5411927.77749  -4204910.49545  24644306.872    24644314.768
  21463804.271   -20167509.51649 -15698494.67047  21463803.968    21463809.379
  21983377.321   -18161751.28149 -13556368.38647  21983376.945    21983381.187
 03  4 11  2 34 30.0000000  0  5G31G14G15G25G11
  24229155.056    -2541568.26749  -1965306.11945  24229154.485    24229161.120
  21264824.862   -21226259.60849 -16530502.82747  21264824.298    21264828.597
  24666314.044    -5296283.15549  -4114797.66845  24666313.566    24666321.031
  21451629.973   -20231485.60949 -15748346.12647  21451629.676    21451635.078
  21971779.385   -18222698.85649 -13603859.98447  21971778.974    21971783.229
 03  4 11  2 35  0.0000000  0  4G31G14G25G11
  24244023.883    -2463432.30349  -1904420.99145  24244023.282    24244029.900
  21276543.027   -21164680.35549 -16482518.99847  21276542.456    21276546.768
  21439535.415   -20295042.72649 -15797871.10747  21439535.109    21439540.526
  21960262.477   -18283220.54949 -13651019.73247  21960262.077    21960266.339
 03  4 11  2 35 30.0000000  0  4G31G14G25G11
  24258912.408    -2385192.28449  -1843454.78445  24258911.934    24258918.712
  21288303.823   -21102876.90449 -16434360.47147  21288303.254    21288307.568
  21427520.872   -20358179.35149 -15847068.43847  21427520.556    21427525.958
  21948826.908   -18343314.77049 -13697846.38547  21948826.514    21948830.757
 03  4 11  2 36  0.0000000  0  4G31G14G25G11
  24273821.140    -2306846.33149  -1782406.01045  24273820.634    24273827.469
  21300107.892   -21040846.15449 -16386024.82547  21300107.333    21300111.646
  21415587.653   -20420888.63249 -15895932.77247  21415587.357    21415592.754
  21937474.031   -18402974.56349 -13744334.52147  21937473.633    21937477.863
 03  4 11  2 36 30.0000000  0  4G31G14G25G11
  24288749.379    -2228398.18549  -1721277.60845  24288748.809    24288755.796
  21311954.642   -20978591.10849 -16337514.41147  21311954.091    21311958.380
  21403736.001   -20483169.36449 -15944463.17147  21403735.702    21403741.095
  21926203.992   -18462198.89449 -13790483.33447  21926203.605    21926207.842
 03  4 11  2 37  0.0000000  0  4G31G14G25G11
  24303696.163    -2149852.23549  -1660073.01045  24303695.462    24303702.561
  21323843.510   -20916114.71249 -16288831.51247  21323842.951    21323847.248
  21391965.942   -20545021.15849 -15992659.33447  21391965.660    21391971.038
  21915016.999   -18520986.92849 -13836292.17747  21915016.610    21915020.833
 03  4 11  2 37 30.0000000  0  4G31G14G25G11
  24318661.017    -2071211.48349  -1598794.54045  24318660.292    24318667.424
  21335774.138   -20853418.92849 -16239977.65647  21335773.571    21335777.877
  21380278.000   -20606441.70049 -16040519.45747  21380277.702    21380283.097
  21903913.369   -18579336.72349 -13881759.53847  21903912.957    21903917.212
 03  4 11  2 38  0.0000000  0  4G31G14G25G11
  24333643.195    -1992479.47849  -1537444.97645  24333642.620    24333649.656
  21347746.010   -20790506.28649 -16190954.82647  21347745.433    21347749.749
  21368672.390   -20667429.41549 -16088042.31047  21368672.096    21368677.462
  21892893.475   -18637246.59849 -13926884.10447  21892893.095    21892897.289
 03  4 11  2 38 30.0000000  0  4G31G14G25G11
  24348642.446    -1913658.47949  -1476026.05245  24348641.776    24348648.803
  21359758.931   -20727377.83249 -16141763.82547  21359758.387    21359762.684
  21357149.563   -20727982.08749 -16135226.17147  21357149.283    21357154.635
  21881957.723   -18694714.20849 -13971664.04447  21881957.336    21881961.560
 03  4 11  2 39  0.0000000  0  4G31G14G25G11
  24363657.772    -1834752.07649  -1414540.58245  24363657.300    24363664.205
  21371812.470   -20664036.16849 -16092406.68947  21371811.913    21371816.224
  21345709.855   -20788097.87349 -16182069.60047  21345709.573    21345714.918
  21871106.443   -18751738.11249 -14016098.24347  21871106.058    21871110.272
 03  4 11  2 39 30.0000000  0  4G31G14G25G11
  24378688.909    -1755763.59149  -1352991.13545  24378688.454    24378695.409
  21383906.147   -20600483.35549 -16042885.02247  21383905.590    21383909.906
  21334353.549   -20847775.53849 -16228571.63947  21334353.275    21334358.619
  21860339.881   -18808316.60849 -14060185.37247  21860339.492    21860343.742
 03  4 11  2 40  0.0000000  0  4G31G14G25G11
  24393735.044    -1676695.28549  -1291379.50745  24393734.568    24393741.544
  21396039.767   -20536720.87249 -15993199.97947  21396039.200    21396043.537
  21323081.128   -20907012.28449 -16274730.10447  21323080.848    21323086.195
  21849658.577   -18864447.20549 -14103923.48947  21849658.177    21849662.415
 03  4 11  2 40 30.0000000  0  4G31G14G25G11
  24408795.898    -1597550.57949  -1229708.33945  24408795.421    24408802.370
  21408212.893   -20472750.71549 -15943353.10247  21408212.323    21408216.644
  21311892.895   -20965806.71349 -16320543.90547  21311892.624    21311897.936
  21839062.804   -18920128.21949 -14147311.27747  21839062.432    21839066.673
 03  4 11  2 41  0.0000000  0  4G31G14G25G11
  24423870.647    -1518332.38749  -1167979.91545  24423870.146    24423877.065
  21420425.155   -20408574.91649 -15893345.98847  21420424.579    21420428.899
  21300789.212   -21024156.88849 -16366011.53647  21300788.931    21300794.235
  21828552.935   -18975357.94049 -14190347.41347  21828552.528    21828556.790
 03  4 11  2 41 30.0000000  0  4G31G14G25G11
  24438958.779    -1439043.47649  -1106196.38645  24438958.411    24438965.310
  21432676.230   -20344195.02749 -15843179.84547  21432675.647    21432679.987
  21289770.408   -21082060.99249 -16411131.58147  21289770.139    21289775.414
  21818129.418   -19030133.77249 -14233029.86847  21818129.004    21818133.247
 03  4 11  2 42  0.0000000  0  4G31G14G25G11
  24454059.879    -1359686.97249  -1044360.20645  24454059.475    24454066.415
  21444965.783   -20279613.09849 -15792856.26547  21444965.199    21444969.521
  21278836.834   -21139517.10849 -16455902.54547  21278836.578    21278841.841
  21807792.604   -19084454.12649 -14275357.40747  21807792.190    21807796.449
 03  4 11  2 42 30.0000000  0  4G31G14G25G11
  24469173.403    -1280265.57049   -982473.42745  24469172.874    24469179.912
  21457293.424   -20214830.81349 -15742376.56147  21457292.835    21457297.172
  21267988.938   -21196522.98349 -16500322.66747  21267988.658    21267993.917
  21797542.796   -19138317.19749 -14317328.61847  21797542.376    21797546.628
 03  4 11  2 43  0.0000000  0  3G14G25G11
  21469659.839   -20149844.95749 -15691738.24147  21469659.264    21469663.601
  21257227.942   -21253072.27249 -16544387.01447  21257227.668    21257232.905
  21787381.343   -19191715.94849 -14358938.02647  21787380.930    21787385.168
 03  4 11  2 43 30.0000000  0  4G31G14G25G11
                   -247470.49049   -215493.77243
  21482063.606   -20084662.61249 -15640946.80447  21482063.047    21482067.364
  21246553.224   -21309168.20449 -16588098.09047  21246552.948    21246558.180
  21777307.594   -19244653.75649 -14400188.25947  21777307.194    21777311.427
 03  4 11  2 44  0.0000000  0  4G31G14G25G11
                   -167873.07549   -153470.12945                  24514590.742
  21494503.405   -20019291.04649 -15590007.92447  21494502.855    21494507.170
  21235964.140   -21364813.98549 -16631458.40547  21235963.858    21235969.079
  21767320.941   -19297133.89849 -14441081.86947  21767320.548    21767324.748
 03  4 11  2 44 30.0000000  0  4G31G14G25G11
  24529737.763      -88225.28849    -91406.96445  24529740.364    24529747.719
  21506979.420   -19953729.10849 -15538920.70047  21506978.878    21506983.201
  21225461.551   -21420005.30649 -16674464.59147  21225461.279    21225466.485
  21757422.294   -19349151.61849 -14481615.14547  21757421.910    21757426.099
 03  4 11  2 45  0.0000000  0  4G31G14G25G11
  24544909.889       -8532.22249    -29308.51645  24544905.275    24544912.147
  21519490.914   -19887980.77749 -15487688.23647  21519490.367    21519494.701
  21215045.275   -21474743.00849 -16717117.31147  21215045.010    21215050.198
  21747611.532   -19400707.51649 -14521788.56547  21747611.142    21747615.344
 03  4 11  2 45 30.0000000  0  4G31G14G25G11
  24560081.842       71208.90649     32827.37645  24560079.321    24560086.464
  21532038.662   -19822041.96649 -15436307.34747  21532038.110    21532042.438
  21204716.786   -21529019.43349 -16759410.59447  21204716.510    21204721.711
  21737890.073   -19451794.13249 -14561596.31347  21737889.662    21737893.864
 03  4 11  2 46  0.0000000  0  4G31G14G25G11
  24575264.869      151001.32149     95003.22145  24575263.219    24575270.525
  21544623.440   -19755908.55949 -15384774.82847  21544622.888    21544627.211
  21194477.588   -21582826.60949 -16801338.22947  21194477.309    21194482.505
  21728259.459   -19502403.31949 -14601032.03547  21728259.059    21728263.261
 03  4 11  2 46 30.0000000  0  4G31G14G25G11
  24590456.395      230835.14849    157211.36145  24590455.131    24590462.335
  21557243.592   -19689589.28749 -15333097.47947  21557243.021    21557247.353
  21184326.723   -21636169.67449 -16842904.21747  21184326.446    21184331.628
  21718718.719   -19552540.21749 -14640099.73747  21718718.304    21718722.521
 03  4 11  2 47  0.0000000  0  4G31G14G25G11
  24605655.469      310707.80149    219449.75445  24605654.409    24605661.547
  21569898.840   -19623085.52649 -15281276.36747  21569898.280    21569902.603
  21174264.564   -21689046.43949 -16884106.85447  21174264.292    21174269.453
  21709268.256   -19602202.70049 -14678797.76747  21709267.847    21709272.052
 03  4 11  2 47 30.0000000  0  4G31G14G25G11
  24620861.375      390615.81449    281715.71545  24620860.483    24620867.537
  21582588.760   -19556399.52749 -15229313.26147  21582588.215    21582592.533
  21164291.396   -21741455.78049 -16924945.26947  21164291.126    21164296.273
  21699908.303   -19651389.55549 -14717125.17847  21699907.886    21699912.088
 03  4 11  2 48  0.0000000  0  4G31G14G25G11
  24636073.564      470556.84049    344007.36945  24636072.822    24636079.916
  21595313.043   -19489532.88249 -15177209.38947  21595312.496    21595316.824
  21154407.533   -21793395.72149 -16965417.91547  21154407.249    21154412.391
  21690639.271   -19700098.56849 -14755080.24747  21690638.873    21690643.048
 03  4 11  2 48 30.0000000  0  4G31G14G25G11
  24651291.352      550527.02249    406321.75345  24651290.657    24651297.611
  21608071.254   -19422487.99649 -15124966.62547  21608070.694    21608075.055
  21144613.141   -21844865.46649 -17005524.18047  21144612.849    21144617.995
  21681461.345   -19748329.00349 -14792662.39247  21681460.937    21681465.101
 03  4 11  2 49  0.0000000  0  5G31G14G25G11G20
  24666513.338      630519.81649    468653.74445  24666512.758    24666519.652
  21620862.319   -19355270.53649 -15072589.38947  21620861.759    21620866.097
  21134907.845   -21895867.04349 -17045265.63047  21134907.538    21134912.676
  21672374.091   -19796082.65349 -14829873.01847  21672373.688    21672377.851
  24719211.978    -4119486.02049  -2846247.08745  24719211.367    24719217.562
 03  4 11  2 49 30.0000000  0  5G31G14G25G11G20
  24681740.208      710537.82349    531005.40645  24681739.727    24681746.563
  21633686.992   -19287876.44649 -15020074.52347  21633686.420    21633690.775
  21125292.899   -21946393.65949 -17084636.98547  21125292.604    21125297.725
  21663378.952   -19843352.48149 -14866706.64147  21663378.565    21663382.722
  24702828.441    -4205581.93549  -2913334.74145  24702827.779    24702834.097
 03  4 11  2 50  0.0000000  0  5G31G14G25G11G20
  24696971.411      790578.23549    593374.54145  24696971.082    24696977.632
  21646544.929   -19220307.61249 -14967423.49047  21646544.349    21646548.723
  21115768.677   -21996443.69149 -17123636.97847  21115768.388    21115773.505
  21654476.137   -19890136.98049 -14903162.08247  21654475.729    21654479.920
  24686438.811    -4291709.65649  -2980447.18445  24686438.214    24686444.474
 03  4 11  2 50 30.0000000  0  5G31G14G25G11G20
  24712206.049      870637.24849    655758.11445  24712205.676    24712212.569
  21659435.589   -19152566.70349 -14914638.37147  21659435.015    21659439.358
  21106335.287   -22046016.25349 -17162264.91147  21106335.018    21106340.093
  21645665.940   -19936434.75149 -14939238.25347  21645665.528    21645669.742
  24670043.109    -4377869.42849  -3047584.59145  24670042.535    24670048.680
 03  4 11  2 51  0.0000000  0  5G31G14G25G11G20
  24727443.768      950711.87949    718153.87745  24727443.347    24727450.216
  21672358.686   -19084655.39849 -14861720.47747  21672358.118    21672362.456
  21096993.025   -22095110.08849 -17200519.81547  21096992.766    21096997.820
  21636948.632   -19982244.42949 -14974934.09847  21636948.232    21636952.432
  24653641.392    -4464060.77649  -3114746.60745  24653640.640    24653646.941
 03  4 11  2 51 30.0000000  0  5G31G14G25G11G20
  24742683.956     1030799.13149    780559.52345  24742683.647    24742690.373
  21685313.839   -19016575.69249 -14808671.35447  21685313.280    21685317.610
  21087742.145   -22143723.69849 -17238400.51547  21087741.880    21087746.946
  21628324.471   -20027564.68849 -15010248.57547  21628324.073    21628328.280
  24637233.709    -4550283.54449  -3181933.10645  24637232.928    24637239.170
 03  4 11  2 52  0.0000000  0  5G31G14G25G11G20
  24757925.726     1110895.74349    842972.39545  24757925.415    24757932.504
  21698300.641   -18948329.62149 -14755492.60447  21698300.080    21698304.410
  21078582.867   -22191855.95049 -17275906.13347  21078582.591    21078587.656
  21619793.692   -20072394.19049 -15045180.64147  21619793.269    21619797.505
  24620820.179    -4636537.21049  -3249143.69045  24620819.492    24620825.602
 03  4 11  2 52 30.0000000  0  5G31G14G25G11G20
  24773168.876     1190998.98249    905390.45845  24773168.572    24773175.858
  21711318.770   -18879918.83549 -14702185.50347  21711318.237    21711322.548
  21069515.479   -22239505.12949 -17313035.32847  21069515.208    21069520.258
  21611356.614   -20116731.22849 -15079728.97147  21611356.179    21611360.424
  24604400.870    -4722821.25249  -3316377.93945  24604400.038    24604406.149
 03  4 11  2 53  0.0000000  0  5G31G14G25G11G20
  24788412.810     1271106.18049    967811.63945  24788412.460    24788419.507
  21724367.983   -18811344.79349 -14648751.17947  21724367.433    21724371.766
  21060540.327   -22286669.79149 -17349786.97747  21060540.062    21060545.097
  21603013.616   -20160573.97949 -15113892.13947  21603013.195    21603017.422
  24587975.900    -4809135.00249  -3383635.36145  24587975.069    24587981.080
 03  4 11  2 53 30.0000000  0  5G31G14G25G11G20
  24803656.915     1351214.59449   1030233.73745  24803656.515    24803663.530
  21737447.912   -18742609.31749 -14595191.07247  21737447.358    21737451.690
  21051657.685   -22333348.27349 -17386159.78547  21051657.411    21051662.453
  21594765.003   -20203920.67549 -15147668.77147  21594764.596    21594768.815
  24571545.325    -4895477.88649  -3450915.46445  24571544.554    24571550.450
 03  4 11  2 54  0.0000000  0  5G31G14G25G11G20
  24818900.678     1431320.83249   1092654.09445  24818900.301    24818907.467
  21750558.168   -18673714.53249 -14541506.83347  21750557.612    21750561.948
  21042867.703   -22379539.61449 -17422153.00447  21042867.436    21042872.481
  21586610.941   -20246770.47049 -15181058.21047  21586610.541    21586614.740
  24555109.336    -4981849.58849  -3518218.05245  24555108.432    24555114.288
 03  4 11  2 54 30.0000000  0  5G31G14G25G11G20
  24834143.605     1511422.58649   1155071.03545  24834143.190    24834150.263
  21763698.506   -18604661.53649 -14487699.30147  21763697.965    21763702.272
  21034170.748   -22425242.30449 -17457765.45547  21034170.477    21034175.518
  21578551.833   -20289121.34049 -15214058.87647  21578551.430    21578555.641
  24538668.002    -5068249.09349  -3585542.28245  24538667.134    24538672.943
 03  4 11  2 55  0.0000000  0  5G31G14G25G11G20
  24849385.036     1591516.99949   1217482.22245  24849384.529    24849391.833
  21776868.617   -18535452.13949 -14433769.90647  21776868.068    21776872.409
  21025567.069   -22470454.79549 -17492995.93447  21025566.793    21025571.834
  21570588.016   -20330971.52449 -15246669.40047  21570587.623    21570591.816
  24522221.500    -5154675.75649  -3652887.69845  24522220.550    24522226.455
 03  4 11  2 55 30.0000000  0  5G31G14G25G11G20
  24864624.585     1671601.02749   1279885.31045  24864624.020    24864631.215
  21790068.115   -18466088.21649 -14379720.10247  21790067.550    21790071.913
  21017056.885   -22515175.85849 -17527843.48747  21017056.634    21017061.649
  21562719.642   -20372320.10249 -15278889.05647  21562719.240    21562723.417
  24505769.895    -5241129.26449  -3720254.01145  24505768.929    24505774.797
 03  4 11  2 56  0.0000000  0  5G31G14G25G11G20
  24879861.538     1751671.46749   1342277.82645  24879860.931    24879868.117
  21803296.658   -18396571.78049 -14325551.45347  21803296.082    21803300.450
  21008640.449   -22559404.44349 -17562307.28847  21008640.181    21008645.195
  21554946.969   -20413165.64749 -15310716.74147  21554946.581    21554950.737
  24489313.167    -5327609.59649  -3787641.21745  24489312.193    24489318.199
 03  4 11  2 56 30.0000000  0  5G31G14G25G11G20
  24895095.478     1831726.30849   1404658.17845  24895094.825    24895102.274
  21816554.064   -18326903.67649 -14271264.62547  21816553.514    21816557.844
  21000318.123   -22603138.49149 -17596385.73647  21000317.853    21000322.868
  21547270.486   -20453505.97449 -15342150.75447  21547270.085    21547274.222
  24472851.601    -5414115.26749  -3855048.17045  24472850.668    24472856.781
 03  4 11  2 57  0.0000000  0  5G31G14G25G11G20
  24910325.908     1911762.16849   1467023.74545  24910325.280    24910332.654
  21829839.923   -18257085.92249 -14216861.18247  21829839.357    21829843.712
  20992090.008   -22646377.30849 -17630078.29547  20992089.729    20992094.733
  21539690.277   -20493340.17449 -15373190.38047  21539689.853    21539693.997
  24456385.314    -5500645.76949  -3922474.50345  24456384.516    24456390.323
 03  4 11  2 57 30.0000000  0  5G31G14G25G11G20
  24925552.067     1991776.61849   1529372.61345  24925551.519    24925558.901
  21843153.991   -18187120.10049 -14162342.36347  21843153.439    21843157.784
  20983956.449   -22689119.40949 -17663383.79847  20983956.170    20983961.177
  21532206.749   -20532666.37549 -15403834.16447  21532206.334    21532210.448
  24439914.393    -5587200.74249  -3989919.87345  24439913.720    24439919.578
 03  4 11  2 58  0.0000000  0  4G14G25G11G20
  21856497.059   -18117001.87349 -14107704.78247  21856496.492    21856500.841
  20975918.810   -22731357.28549 -17696296.39948  20975918.524    20975923.534
  21524821.253   -20571477.25849 -15434076.40647  21524820.847    21524824.960
  24423440.172    -5673773.36649  -4057379.02845  24423439.365    24423445.334
 03  4 11  2 58 30.0000000  0  4G14G25G11G20
  21869867.174   -18046741.35749 -14052956.33647  21869866.596    21869870.951
  20967975.756   -22773098.23649 -17728821.78548  20967975.483    20967980.486
  21517532.470   -20609779.94649 -15463922.64647  21517532.083    21517536.175
  24406961.109    -5760371.45849  -4124858.02845  24406960.363    24406966.143
 03  4 11  2 59  0.0000000  0  4G14G25G11G20
  21883264.378   -17976338.63249 -13998097.07147  21883263.822    21883268.174
  20960127.769   -22814339.57749 -17760957.86748  20960127.486    20960132.486
  21510340.958   -20647571.64949 -15493370.71947  21510340.561    21510344.643
  24390477.530    -5846992.71949  -4192355.08745  24390476.844    24390482.538
 03  4 11  2 59 30.0000000  0  4G14G25G11G20
  21896688.257   -17905795.56849 -13943128.45147  21896687.699    21896692.060
  20952375.059   -22855080.18349 -17792703.76348  20952374.793    20952379.781
  21503246.921   -20684851.00849 -15522419.56847  21503246.522    21503250.607
  24373989.671    -5933636.91449  -4259870.01545  24373988.918    24373994.760
 03  4 11  3  0  0.0000000  0  4G14G25G11G20
  21910138.783   -17835112.62849 -13888050.83847  21910138.217    21910142.564
  20944718.013   -22895318.05049 -17824057.91648  20944717.744    20944722.745
  21496250.814   -20721615.68349 -15551067.35847  21496250.425    21496254.492
  24357497.772    -6020302.31549  -4327401.45845  24357496.797    24357502.966
 03  4 11  3  0 30.0000000  0  4G14G25G11G20
  21923615.582   -17764291.60349 -13832865.63647  21923615.017    21923619.382
  20937156.852   -22935052.09049 -17855019.47448  20937156.578    20937161.576
  21489352.904   -20757864.43849 -15579313.13447  21489352.521    21489356.610
  24341001.846    -6106988.28449  -4394948.93145  24341000.826    24341007.052
 03  4 11  3  1  0.0000000  0  4G14G25G11G20
  21937118.363   -17693333.99349 -13777573.98847  21937117.770    21937122.155
  20929691.794   -22974281.10149 -17885587.50748  20929691.526    20929696.513
  21482553.396   -20793596.04849 -15607155.94447  21482553.008    21482557.089
  24324502.291    -6193693.80049  -4462511.64445  24324501.537    24324507.404
 03  4 11  3  1 30.0000000  0  4G14G25G11G20
  21950646.849   -17622241.40849 -13722177.16847  21950646.254    21950650.640
  20922323.086   -23013003.89249 -17915761.08148  20922322.817    20922327.800
  21475852.572   -20828809.00649 -15634594.61147  21475852.167    21475856.268
  24307999.095    -6280418.46149  -4530089.27145  24307998.533    24308004.283
 03  4 11  3  2  0.0000000  0  4G14G25G11G20
  21964200.710   -17551015.28349 -13666676.28947  21964200.111    21964204.499
  20915050.898   -23051219.27749 -17945539.27248  20915050.632    20915055.610
  21469250.740   -20863501.85649 -15661627.99847  21469250.337    21469254.458
  24291492.429    -6367161.57349  -4597681.24145  24291491.810    24291497.608
 03  4 11  3  2 30.0000000  0  4G14G25G11G20
  21977779.745   -17479657.07049 -13611072.48947  21977779.140    21977783.526
  20907875.541   -23088925.94249 -17974921.06148  20907875.279    20907880.240
  21462748.133   -20897673.29949 -15688255.09047  21462747.739    21462751.842
  24274982.415    -6453922.01449  -4665286.73545  24274981.710    24274987.688
 03  4 11  3  3  0.0000000  0  4G14G25G11G20
  21991383.498   -17408168.69149 -13555367.26547  21991382.902    21991387.297
  20900797.139   -23126123.16849 -18003905.88548  20900796.849    20900801.815
  21456344.900   -20931322.36249 -15714475.13647  21456344.502    21456348.618
  24258469.178    -6540699.50549  -4732905.50745  24258468.542    24258474.530
 03  4 11  3  3 30.0000000  0  4G14G25G11G20
  22005011.864   -17336551.20349 -13499561.42847  22005011.278    22005015.678
  20893815.993   -23162809.28649 -18032492.44548  20893815.712    20893820.670
  21450041.410   -20964447.48549 -15740286.91547  21450041.006    21450045.135
  24241952.963    -6627492.56349  -4800536.41445  24241952.395    24241958.357
 03  4 11  3  4  0.0000000  0  4G14G25G11G20
  22018664.391   -17264806.60149 -13443656.54447  22018663.816    22018668.193
  20886932.098   -23198984.21449 -18060680.67448  20886931.828    20886936.769
  21443837.733   -20997047.82149 -15765689.77247  21443837.330    21443841.482
  24225433.767    -6714301.53549  -4868179.71045  24225433.112    24225439.085
 03  4 11  3  4 30.0000000  0  4G14G25G11G20
  22032340.917   -17192935.91149 -13387653.42147  22032340.348    22032344.721
  20880145.874   -23234645.97249 -18088469.02648  20880145.596    20880150.531
  21437734.319   -21029121.58549 -15790682.30847  21437733.916    21437738.080
  24208911.769    -6801124.78749  -4935834.13445  24208910.980    24208917.091
 03  4 11  3  5  0.0000000  0  4G14G25G11G20
  22046041.172   -17120940.56949 -13331553.15747  22046040.604    22046044.974
  20873457.503   -23269793.46049 -18115856.65348  20873457.236    20873462.153
  21431731.309   -21060667.48449 -15815263.52747  21431730.911    21431735.062
  24192387.276    -6887961.24149  -5003498.85845  24192386.559    24192392.592
 03  4 11  3  5 30.0000000  0  4G14G25G11G20
  22059764.735   -17048822.86949 -13275357.54847  22059764.173    22059768.538
  20866867.039   -23304426.51549 -18142843.42248  20866866.759    20866871.677
  21425828.870   -21091685.11449 -15839433.10347  21425828.458    21425832.637
  24175860.246    -6974811.04349  -5071173.96845  24175859.571    24175865.582
 03  4 11  3  6  0.0000000  0  4G14G25G11G20
  22073511.418   -16976583.42949 -13219067.08447  22073510.886    22073515.233
  20860374.710   -23338543.75049 -18169428.25548  20860374.443    20860379.350
  21420027.255   -21122172.75549 -15863189.70347  21420026.834    21420030.993
  24159330.990    -7061672.84349  -5138858.43145  24159330.274    24159336.276
 03  4 11  3  6 30.0000000  0  4G14G25G11G20
  22087280.940   -16904224.27249 -13162683.33247  22087280.384    22087284.742
  20853980.650   -23372144.66249 -18195610.76048  20853980.380    20853985.269
  21414326.627   -21152129.78449 -15886532.83947  21414326.220    21414330.356
  24142799.536    -7148546.16149  -5206551.89545  24142798.828    24142804.825
 03  4 11  3  7  0.0000000  0  4G14G25G11G20
  22101072.964   -16831746.81149 -13106207.38547  22101072.396    22101076.747
  20847685.103   -23405228.01249 -18221389.96848  20847684.818    20847689.709
  21408727.209   -21181554.89949 -15909461.49547  21408726.797    21408730.938
  24126266.052    -7235430.16649  -5274253.67545  24126265.284    24126271.233
 03  4 11  3  7 30.0000000  0  4G14G25G11G20
  22114887.096   -16759152.95649 -13049640.75147  22114886.543    22114890.913
  20841488.065   -23437793.41249 -18246765.58248  20841487.788    20841492.655
  21403229.201   -21210447.14249 -15931974.93047  21403228.783    21403232.922
  24109730.644    -7322324.34449  -5341963.38445  24109729.881    24109735.715
 03  4 11  3  8  0.0000000  0  4G14G25G11G20
  22128723.280   -16686443.33049 -12992983.89647  22128722.714    22128727.074
  20835389.927   -23469839.36049 -18271736.43048  20835389.650    20835394.518
  21397832.910   -21238804.89049 -15954071.87547  21397832.509    21397836.640
  24093193.597    -7409226.95949  -5409679.66245  24093192.800    24093198.652
 03  4 11  3  8 30.0000000  0  4G14G25G11G20
  22142581.194   -16613619.57949 -12936238.12847  22142580.650    22142584.989
  20829390.768   -23501364.98949 -18296301.83248  20829390.493    20829395.344
  21392538.494   -21266627.26349 -15975751.64647  21392538.114    21392542.224
  24076655.000    -7496137.67849  -5477402.26245  24076654.150    24076660.046
 03  4 11  3  9  0.0000000  0  4G14G25G11G20
  22156460.548   -16540683.16949 -12879404.56647  22156459.982    22156464.337
  20823490.821   -23532369.36649 -18320461.06548  20823490.548    20823495.398
  21387346.114   -21293913.41549 -15997013.58147  21387345.709    21387349.836
  24060115.048    -7583055.57849  -5545130.45645  24060114.260    24060120.156
 03  4 11  3  9 30.0000000  0  4G14G25G11G20
  22170361.014   -16467635.65249 -12822484.43747  22170360.439    22170364.778
  20817690.142   -23562852.01749 -18344213.75548  20817689.883    20817694.709
  21382255.949   -21320662.46949 -16017857.00047  21382255.562    21382259.642
  24043573.839    -7669980.01049  -5612863.73245  24043573.101    24043578.973
 03  4 11  3 10  0.0000000  0  4G14G25G11G20
  22184282.322   -16394478.77549 -12765479.06947  22184281.731    22184286.088
  20811988.895   -23592812.21749 -18367559.34048  20811988.620    20811993.450
  21377268.167   -21346873.33949 -16038281.05447  21377267.785    21377271.865
  24027031.534    -7756910.25349  -5680601.53345  24027030.753    24027036.651
 03  4 11  3 10 30.0000000  0  4G14G25G11G20
  22198224.157   -16321213.97649 -12708389.63547  22198223.560    22198227.945
  20806387.169   -23622249.38749 -18390497.37548  20806386.898    20806391.711
  21372383.045   -21372544.94949 -16058284.91047  21372382.667    21372386.749
  24010488.303    -7843845.38349  -5748343.17145  24010487.555    24010493.466
 03  4 11  3 11  0.0000000  0  4G14G25G11G20
  22212186.393   -16247842.00249 -12651216.67147  22212185.813    22212190.172
  20800885.247   -23651162.20549 -18413026.82248  20800884.977    20800889.767
  21367600.723   -21397676.20049 -16077867.70847  21367600.338    21367604.427
  23993944.382    -7930784.08849  -5816087.58545  23993943.649    23993949.532
 03  4 11  3 11 30.0000000  0  4G14G25G11G20
  22226168.659   -16174364.63149 -12593961.57647  22226168.074    22226172.437
  20795483.219   -23679550.00949 -18435147.16448  20795482.947    20795487.729
  21362921.316   -21422266.55649 -16097029.02147  21362920.928    21362925.003
  23977399.965    -8017725.64249  -5883834.21945  23977399.192    23977405.045
 03  4 11  3 12  0.0000000  0  4G14G25G11G20
  22240170.622   -16100783.97849 -12536626.01147  22240170.030    22240174.387
  20790181.038   -23707413.03649 -18456858.59548  20790180.767    20790185.547
  21358344.924   -21446315.67349 -16115768.59747  21358344.546    21358348.603
  23960854.980    -8104670.00549  -5951583.02745  23960854.186    23960859.987
 03  4 11  3 12 30.0000000  0  4G14G25G11G20
  22254192.107   -16027100.48349 -12479210.30447  22254191.534    22254195.889
  20784978.957   -23734749.93449 -18478160.05348  20784978.709    20784983.474
  21353871.883   -21469821.64849 -16134084.94347  21353871.502    21353875.585
  23944309.775    -8191615.40849  -6019332.65945  23944309.000    23944314.785
 03  4 11  3 13  0.0000000  0  4G14G25G11G20
  22268232.922   -15953315.59049 -12421715.59547  22268232.363    22268236.691
  20779877.141   -23761560.04549 -18499051.02448  20779876.881    20779881.681
  21349502.328   -21492783.84349 -16151977.56747  21349501.947    21349506.030
  23927764.534    -8278560.91849  -6087082.37545  23927763.654    23927769.503
 03  4 11  3 13 30.0000000  0  4G14G25G11G20
  22282292.768   -15879430.57849 -12364142.86546  22282292.200    22282296.536
  20774875.746   -23787842.47449 -18519530.81848  20774875.503    20774880.279
  21345236.469   -21515201.04149 -16169445.51247  21345236.081    21345240.169
  23911219.541    -8365505.38149  -6154831.26745  23911218.738    23911224.449
 03  4 11  3 14  0.0000000  0  4G14G25G11G20
  22296371.326   -15805447.42549 -12306493.66246  22296370.774    22296375.053
  20769974.788   -23813597.08949 -18539599.32548  20769974.526    20769979.297
  21341074.309   -21537073.28349 -16186488.82047  21341073.932    21341078.008
  23894674.743    -8452448.58649  -6222579.18345  23894673.922    23894679.676
 03  4 11  3 14 30.0000000  0  4G14G25G11G20
  22310468.267   -15731367.42849 -12248768.99846  22310467.715    22310472.023
  20765174.375   -23838823.28949 -18559256.07948  20765174.109    20765178.873
  21337016.024   -21558399.61249 -16203106.73847  21337015.641    21337019.732
  23878130.396    -8539389.61049  -6290325.41245  23878129.625    23878135.323
 03  4 11  3 15  0.0000000  0  4G14G25G11G20
  22324583.453   -15657191.71049 -12190969.73346  22324582.893    22324587.233
  20760474.720   -23863520.14449 -18578500.35948  20760474.453    20760479.222
  21333061.852   -21579178.89649 -16219298.38647  21333061.459    21333065.577
  23861586.725    -8626327.18449  -6358068.93945  23861585.948    23861591.575
 03  4 11  3 15 30.0000000  0  4G14G25G11G20
  22338716.556   -15582921.75049 -12133097.05546  22338716.009    22338720.355
  20755875.770   -23887687.61749 -18597332.13348  20755875.496    20755880.252
  21329211.856   -21599410.87249 -16235063.56147  21329211.454    21329215.582
  23845043.796    -8713260.78249  -6425809.38145  23845043.031    23845048.608
 03  4 11  3 16  0.0000000  0  4G14G25G11G20
  22352867.408   -15508558.49249 -12075151.66546  22352866.882    22352871.213
  20751377.827   -23911324.43649 -18615750.41048  20751377.560    20751382.318
  21325466.234   -21619094.13749 -16250401.17247  21325465.847    21325469.965
  23828501.878    -8800188.84349  -6493545.50845  23828501.063    23828506.745
 03  4 11  3 16 30.0000000  0  4G14G25G11G20
  22367035.772   -15434103.42049 -12017134.73146  22367035.204    22367039.539
  20746980.868   -23934430.39849 -18633755.03148  20746980.614    20746985.350
  21321825.177   -21638228.07049 -16265310.73147  21321824.778    21321828.911
  23811961.169    -8887110.47949  -6561276.60545  23811960.323    23811966.084
 03  4 11  3 17  0.0000000  0  5G14G25G11G20G 1
  22381220.507   -15359562.14449 -11959050.62346  22381219.954    22381224.281
  20742684.194   -23957009.50449 -18651349.11948  20742683.949    20742688.691
  21318287.912   -21656816.48449 -16279795.20747  21318287.517    21318291.653
  23795421.068    -8974029.14749  -6629005.39945  23795420.273    23795425.965
  24625610.376    -4878892.66049  -3454588.26945  24625609.906    24625617.392
 03  4 11  3 17 30.0000000  0  5G14G25G11G20G 1
  22395420.589   -15284940.23749 -11900903.69346  22395420.063    22395424.375
  20738487.083   -23979065.39649 -18668535.50248  20738486.824    20738491.550
  21314853.888   -21674862.52649 -16293857.05947  21314853.504    21314857.621
  23778880.945    -9060947.92449  -6696734.27245  23778880.213    23778885.873
  24610211.020    -4959816.36749  -3517645.66245  24610210.587    24610217.984
 03  4 11  3 18  0.0000000  0  5G14G25G11G20G 1
  22409638.435   -15210224.93049 -11842683.99246  22409637.890    22409642.233
  20734392.316   -24000583.39149 -18685302.75048  20734392.069    20734396.775
  21311525.724   -21692352.05849 -16307485.26647  21311525.348    21311529.475
  23762343.626    -9147851.87849  -6764451.61845  23762342.872    23762348.557
  24594841.127    -5040585.73449  -3580582.80445  24594840.586    24594847.881
 03  4 11  3 18 30.0000000  0  5G14G25G11G20G 1
  22423873.339   -15135419.95649 -11784394.41346  22423872.806    22423877.153
  20730399.456   -24021565.85849 -18701652.70048  20730399.203    20730403.915
  21308303.132   -21709286.97049 -16320681.30047  21308302.729    21308306.872
  23745808.863    -9234742.62549  -6832158.66045  23745808.009    23745813.796
  24579499.989    -5121203.26449  -3643401.58745  24579499.495    24579506.955
 03  4 11  3 19  0.0000000  0  5G14G25G11G20G 1
  22438124.767   -15060528.31049 -11726037.29746  22438124.210    22438128.558
  20726508.289   -24042014.12249 -18717586.38948  20726508.037    20726512.741
  21305185.928   -21725667.98449 -16333445.72747  21305185.537    21305189.664
  23729276.538    -9321620.50349  -6899855.68745  23729275.754    23729281.463
  24564187.777    -5201669.84249  -3706102.78045  24564187.367    24564194.782
 03  4 11  3 19 30.0000000  0  5G14G25G11G20G 1
  22452392.311   -14985551.88549 -11667614.10646  22452391.753    22452396.108
  20722718.740   -24061928.27149 -18733103.88148  20722718.481    20722723.185
  21302174.110   -21741495.24949 -16345778.65747  21302173.702    21302177.857
  23712746.714    -9408485.22149  -6967542.44045  23712745.848    23712751.627
  24548904.060    -5281985.87849  -3768686.62245  24548903.608    24548911.237
 03  4 11  3 20  0.0000000  0  5G14G25G11G20G 1
  22466675.722   -14910492.10749 -11609125.98246  22466675.164    22466679.499
  20719030.817   -24081308.27749 -18748205.16348  20719030.554    20719035.249
  21299267.678   -21756768.55549 -16357679.93347  21299267.284    21299271.423
  23696219.468    -9495336.14749  -7035218.45345  23696218.659    23696224.370
  24533649.033    -5362151.27249  -3831153.10045  24533648.458    24533656.242
 03  4 11  3 20 30.0000000  0  5G14G25G11G20G 1
  22480974.717   -14835350.32149 -11550573.94046  22480974.175    22480978.513
  20715444.599   -24100153.83949 -18762889.99348  20715444.336    20715449.041
  21296466.846   -21771487.14449 -16369148.96247  21296466.453    21296470.571
  23679695.116    -9582172.26149  -7102882.92645  23679694.259    23679700.018
  24518422.669    -5442165.72449  -3893501.94745  24518422.039    24518429.823
 03  4 11  3 21  0.0000000  0  5G14G25G11G20G 1
  22495288.994   -14760128.30449 -11491959.39246  22495288.446    22495292.794
  20711960.130   -24118464.89049 -18777158.32548  20711959.859    20711964.570
  21293771.540   -21785651.15349 -16380185.85147  21293771.149    21293775.255
  23663173.648    -9668992.92749  -7170535.35345  23663172.826    23663178.587
  24503225.124    -5522029.30549  -3955733.26445  24503224.571    24503232.130
 03  4 11  3 21 30.0000000  0  5G14G25G11G20G 1
  22509618.231   -14684827.76749 -11433283.66346  22509617.696    22509622.034
  20708577.240   -24136241.88749 -18791010.50448  20708577.000    20708581.684
  21291181.725   -21799260.71149 -16390790.69747  21291181.332    21291185.440
  23646655.282    -9755797.58149  -7238175.30045  23646654.502    23646660.221
  24488056.192    -5601742.16749  -4017847.10245  24488055.664    24488063.246
 03  4 11  3 22  0.0000000  0  5G14G25G11G20G 1
  22523962.373   -14609448.83149 -11374546.83246  22523961.836    22523966.172
  20705296.232   -24153483.50149 -18804445.51048  20705295.972    20705300.668
  21288697.716   -21812314.19749 -16400962.25047  21288697.322    21288701.409
  23630140.334    -9842584.15949  -7305801.18245  23630139.555    23630145.239
  24472916.159    -5681303.14449  -4079842.61445  24472915.414    24472923.162
 03  4 11  3 22 30.0000000  0  5G14G25G11G20G 1
  22538320.957   -14533993.92749 -11315750.80546  22538320.436    22538324.762
  20702116.954   -24170190.62049 -18817464.02548  20702116.693    20702121.391
  21286319.377   -21824812.40149 -16410701.10947  21286318.988    21286323.085
  23613628.786    -9929352.93649  -7373413.17945  23613627.956    23613633.622
  24457804.853    -5760713.17749  -4141720.48145  24457804.225    24457812.112
 03  4 11  3 23  0.0000000  0  5G14G25G11G20G 1
  22552693.949   -14458463.47849 -11256895.92246  22552693.435    22552697.788
  20699039.615   -24186362.18149 -18830065.22148  20699039.353    20699044.035
  21284046.973   -21836753.90549 -16420006.17647  21284046.581    21284050.686
  23597121.048   -10016101.54149  -7441009.46345  23597120.294    23597125.913
  24442722.592    -5839970.84449  -4203479.63545  24442721.876    24442729.824
 03  4 11  3 23 30.0000000  0  5G14G25G11G20G 1
  22567080.908   -14382859.42749 -11197983.68546  22567080.365    22567084.729
  20696064.002   -24201998.95249 -18842249.69948  20696063.753    20696068.423
  21281880.494   -21848138.88549 -16428877.59347  21281880.101    21281884.203
  23580617.204   -10102829.78449  -7508589.87845  23580616.379    23580622.027
  24427669.214    -5919076.65249  -4265120.46945  24427668.627    24427676.399
 03  4 11  3 24  0.0000000  0  5G14G25G11G20G 1
  22581481.845   -14307182.20849 -11139014.43146  22581481.316    22581485.639
  20693190.361   -24217099.91449 -18854016.66148  20693190.103    20693194.791
  21279820.046   -21858966.65049 -16437314.81547  21279819.657    21279823.743
  23564117.507   -10189536.04049  -7576153.16845  23564116.722    23564122.320
  24412645.017    -5998029.72949  -4326642.31545  24412644.368    24412652.042
 03  4 11  3 24 30.0000000  0  5G14G25G11G20G 1
  22595896.287   -14231433.82549 -11079989.74446  22595895.767    22595900.109
  20690418.571   -24231665.64349 -18865366.55848  20690418.311    20690422.997
  21277865.531   -21869237.61449 -16445318.16447  21277865.131    21277869.232
  23547622.121   -10276219.76349  -7643698.90245  23547621.341    23547626.891
  24397649.605    -6076830.55049  -4388045.47145  24397649.009    24397656.611
 03  4 11  3 25  0.0000000  0  5G14G25G11G20G 1
  22610324.202   -14155614.77549 -11020909.97046  22610323.659    22610328.010
  20687748.853   -24245695.07649 -18876298.56048  20687748.600    20687753.276
  21276017.169   -21878950.80349 -16452886.88447  21276016.770    21276020.870
  23531131.324   -10362879.46849  -7711225.91045  23531130.527    23531136.084
  24382683.455    -6155478.33749  -4449329.41345  24382682.802    24382690.422
 03  4 11  3 25 30.0000000  0  5G14G25G11G20G 1
  22624765.211   -14079726.61749 -10961776.35746  22624764.681    22624769.047
  20685181.067   -24259188.70349 -18886813.05048  20685180.797    20685185.476
  21274275.043   -21888105.70149 -16460020.57347  21274274.646    21274278.758
  23514645.246   -10449514.23849  -7778733.50145  23514644.490    23514650.046
  24367746.358    -6233972.98849  -4510494.02745  24367745.831    24367753.305
 03  4 11  3 26  0.0000000  0  5G14G25G11G20G 1
  22639219.321   -14003769.88449 -10902589.29346  22639218.745    22639223.164
  20682715.402   -24272145.92549 -18896909.56448  20682715.134    20682719.790
  21272639.190   -21896702.12849 -16466719.09147  21272638.799    21272642.899
  23498164.191   -10536122.46349  -7846220.39445  23498163.450    23498168.980
  24352838.575    -6312313.89649  -4571538.84545  24352838.041    24352845.546
 03  4 11  3 26 30.0000000  0  5G14G25G11G20G 1
  22653686.158   -13927746.10649 -10843350.00346  22653685.600    22653690.009
  20680351.661   -24284567.38449 -18906588.59848  20680351.391    20680356.050
  21271109.597   -21904740.15149 -16472982.48147  21271109.208    21271113.323
  23481688.440   -10622703.05549  -7913685.77145  23481687.696    23481693.233
  24337959.956    -6390501.04649  -4632463.83145  24337959.430    24337966.983
 03  4 11  3 27  0.0000000  0  5G14G25G11G20G 1
  22668165.591   -13851656.34649 -10784059.29846  22668164.996    22668169.448
  20678089.931   -24296452.71349 -18915849.87448  20678089.666    20678094.317
  21269686.368   -21912219.25149 -16478810.35647  21269685.983    21269690.100
  23465218.148   -10709254.91249  -7981128.73645  23465217.398    23465222.949
  24323110.752    -6468534.04549  -4693268.72345  24323110.282    24323117.744
 03  4 11  3 27 30.0000000  0  5G14G25G11G20G 1
  22682657.231   -13775502.06649 -10724718.29646  22682656.653    22682661.141
  20675930.203   -24307802.10649 -18924693.53248  20675929.942    20675934.585
  21268369.495   -21919139.58849 -16484202.81947  21268369.114    21268373.207
  23448753.464   -10795777.21349  -8048548.67546  23448752.707    23448758.259
  24308290.805    -6546412.99449  -4753953.56245  24308290.340    24308297.705
 03  4 11  3 28  0.0000000  0  5G14G25G11G20G 1
  22697161.004   -13699284.22549 -10665327.78346  22697160.413    22697164.920
  20673872.455   -24318615.42949 -18933119.47948  20673872.196    20673876.843
  21267159.013   -21925500.67149 -16489159.50947  21267158.622    21267162.731
  23432294.642   -10882268.82649  -8115944.69345  23432293.900    23432299.444
  24293500.286    -6624137.65649  -4814518.18245  24293499.830    24293507.116
 03  4 11  3 28 30.0000000  0  5G14G25G11G20G 1
  22711676.680   -13623003.69049 -10605888.41546  22711676.143    22711680.603
  20671916.841   -24328892.24249 -18941127.36448  20671916.580    20671921.213
  21266055.031   -21931302.18749 -16493680.17047  21266054.637    21266058.736
  23415841.962   -10968728.04649  -8183315.47045  23415841.230    23415846.796
  24278739.163    -6701707.45149  -4874962.12645  24278738.689    24278746.036
 03  4 11  3 29  0.0000000  0  5G14G25G11G20G 1
  22726204.115   -13546661.63549 -10546401.11046  22726203.557    22726208.020
  20670063.213   -24338632.97949 -18948717.52448  20670062.953    20670067.581
  21265057.510   -21936544.13149 -16497764.80247  21265057.117    21265061.231
  23399395.637   -11055153.91249  -8250660.25645  23399394.866    23399400.440
  24264007.575    -6779122.36949  -4935285.38545  24264007.117    24264014.408
 03  4 11  3 29 30.0000000  0  5G14G25G11G20G 1
  22740742.931   -13470259.57449 -10486867.05346  22740742.401    22740746.833
  20668311.567   -24347837.93949 -18955890.20148  20668311.306    20668315.934
  21264166.464   -21941226.65049 -16501413.51447  21264166.084    21264170.174
  23382955.855   -11141545.47549  -8317978.30546  23382955.076    23382960.656
  24249305.445    -6856382.40149  -4995487.96345  24249305.006    24249312.284
 03  4 11  3 30  0.0000000  0  5G14G25G11G20G 1
  22755293.122   -13393797.79749 -10427286.45746  22755292.609    22755297.026
  20666661.924   -24356506.81749 -18962645.14948  20666661.658    20666666.288
  21263382.032   -21945348.91949 -16504625.67447  21263381.637    21263385.731
  23366522.889   -11227900.91549  -8385268.22246  23366522.124    23366527.606
  24234632.949    -6933486.66149  -5055569.14445  24234632.483    24234639.782
 03  4 11  3 30 30.0000000  0  5G14G25G11G20G 1
  22769854.323   -13317278.32249 -10367660.89646  22769853.759    22769858.199
  20665114.089   -24364640.48449 -18968983.04848  20665113.819    20665118.466
  21262704.028   -21948911.80749 -16507401.95147  21262703.637    21262707.732
  23350096.947   -11314219.64749  -8452529.50746  23350096.175    23350101.637
  24219990.033    -7010435.63949  -5115529.33545  24219989.550    24219996.879
 03  4 11  3 31  0.0000000  0  5G14G25G11G20G 1
  22784426.359   -13240701.82049 -10307990.91446  22784425.800    22784430.255
  20663668.228   -24372238.45649 -18974903.52548  20663667.970    20663672.606
  21262132.540   -21951915.01749 -16509742.11947  21262132.152    21262136.230
  23333678.264   -11400500.24549  -8519761.09946  23333677.471    23333682.898
  24205376.712    -7087228.95249  -5175368.22545  24205376.207    24205383.544
 03  4 11  3 31 30.0000000  0  5G14G25G11G20G 1
  22799009.065   -13164069.16749 -10248277.17246  22799008.485    22799012.969
  20662324.288   -24379300.81849 -18980406.64348  20662324.031    20662328.666
  21261667.579   -21954358.29549 -16511645.97247  21261667.194    21261671.288
  23317267.080   -11486741.52749  -8586962.04146  23317266.253    23317271.690
  24190793.073    -7163866.38949  -5235085.64045  24190792.604    24190799.902
 03  4 11  3 32  0.0000000  0  5G14G25G11G20G 1
  22813602.233   -13087381.65749 -10188520.68246  22813601.652    22813606.114
  20661082.193   -24385827.98349 -18985492.72548  20661081.951    20661086.562
  21261309.202   -21956241.70949 -16513113.56947  21261308.812    21261312.897
  23300863.578   -11572942.21249  -8654131.34546  23300862.739    23300868.178
  24176239.092    -7240347.76449  -5294681.45045  24176238.499    24176245.871
 03  4 11  3 32 30.0000000  0  5G14G25G11G20G 1
  22828205.619   -13010640.15549 -10128722.12046  22828205.072    22828209.519
  20659941.861   -24391820.28449 -18990162.02948  20659941.610    20659946.231
  21261057.321   -21957565.30149 -16514144.94047  21261056.947    21261061.027
  23284468.088   -11659100.86449  -8721267.91546  23284467.249    23284472.662
  24161714.868    -7316672.89449  -5354155.52245  24161714.343    24161721.699
 03  4 11  3 33  0.0000000  0  5G14G25G11G20G 1
  22842819.114   -12933845.80149 -10068882.37546  22842818.576    22842823.007
  20658903.366   -24397277.55949 -18994414.43348  20658903.129    20658907.723
  21260911.998   -21958328.99649 -16514740.02647  21260911.617    21260915.711
  23268080.812   -11745216.30549  -8788370.80946  23268079.993    23268085.367
  24147220.393    -7392841.65249  -5413507.75945  24147219.937    24147227.128
 03  4 11  3 33 30.0000000  0  5G14G25G11G20G 1
  22857442.535   -12856999.16649 -10009001.90046  22857441.962    22857446.425
  20657966.674   -24402199.87049 -18998249.98548  20657966.417    20657971.032
  21260873.253   -21958532.55849 -16514898.64647  21260872.864    21260876.976
  23251702.054   -11831287.04149  -8855438.86446  23251701.262    23251706.577
  24132755.731    -7468853.68849  -5472737.83745  24132755.212    24132762.506
 03  4 11  3 34  0.0000000  0  5G14G25G11G20G 1
  22872075.578   -12780101.88449  -9949081.95146  22872075.072    22872079.489
  20657131.601   -24406588.03949 -19001669.31948  20657131.356    20657135.957
  21260941.004   -21958176.50049 -16514621.19647  21260940.627    21260944.735
  23235331.968   -11917312.19749  -8922471.40046  23235331.186    23235336.473
  24118320.822    -7544709.21449  -5531845.97445  24118320.255    24118327.548
 03  4 11  3 34 30.0000000  0  5G14G25G11G20G 1
  22886718.200   -12703154.77749  -9889123.18246  22886717.615    22886722.048
  20656398.223   -24410441.99949 -19004672.39248  20656397.973    20656402.570
  21261115.248   -21957260.78949 -16513907.65247  21261114.867    21261119.004
  23218970.893   -12003290.08949  -8989467.12546  23218970.062    23218975.387
  24103915.889    -7620407.58349  -5590831.67345  24103915.317    24103922.647
 03  4 11  3 35  0.0000000  0  5G14G25G11G20G 1
  22901369.966   -12626158.95149  -9829126.44846  22901369.442    22901373.864
  20655766.366   -24413762.32549 -19007259.64248  20655766.121    20655770.695
  21261395.925   -21955785.87849 -16512758.36847  21261395.532    21261399.687
  23202618.947   -12089219.78449  -9056425.27646  23202618.162    23202623.522
  24089540.765    -7695948.97749  -5649695.05045  24089540.258    24089547.550
 03  4 11  3 35 30.0000000  0  5G14G25G11G20G 1
  22916030.981   -12549114.92049  -9769092.15546  22916030.502    22916034.900
  20655236.104   -24416548.89449 -19009430.98148  20655235.848    20655240.430
  21261783.110   -21953751.24049 -16511172.92947  21261782.724    21261786.856
  23186276.539   -12175099.49449  -9123344.49446  23186275.735    23186281.136
  24075195.665    -7771332.81649  -5708435.65645  24075195.129    24075202.442
 03  4 11  3 36  0.0000000  0  5G14G25G11G20G 1
  22930700.965   -12472023.91549  -9709021.25246  22930700.426    22930704.797
  20654807.238   -24418802.48049 -19011187.00648  20654806.995    20654811.554
  21262276.714   -21951157.35249 -16509151.71147  21262276.322    21262280.466
  23169943.856   -12260928.15749  -9190223.93546  23169943.092    23169948.477
  24060880.480    -7846559.33549  -5767053.67745  24060879.889    24060887.100
 03  4 11  3 36 30.0000000  0  5G14G25G11G20G 1
  22945379.534   -12394887.39249  -9648914.89346  22945379.044    22945383.377
  20654479.724   -24420523.64449 -19012528.16148  20654479.462    20654484.027
  21262876.525   -21948005.18549 -16506695.47547  21262876.137    21262880.282
  23153621.042   -12346705.01949  -9257063.00546  23153620.263    23153625.648
  24046595.224    -7921628.78949  -5825549.31245  24046594.668    24046601.858
 03  4 11  3 37  0.0000000  0  5G14G25G11G20G 1
  22960066.719   -12317705.80049  -9588773.38846  22960066.246    22960070.593
  20654253.528   -24421712.17149 -19013454.27048  20654253.278    20654257.835
  21263582.706   -21944294.13449 -16503803.74247  21263582.308    21263586.465
  23137308.441   -12432428.14449  -9323860.21746  23137307.645    23137313.032
  24032339.990    -7996540.31049  -5883921.86745  24032339.417    24032346.560
 03  4 11  3 37 30.0000000  0  5G14G25G11G20G 1
  22974762.174   -12240480.64849  -9528597.96846  22974761.673    22974766.044
  20654128.470   -24422369.20349 -19013966.23048  20654128.235    20654132.766
  21264395.071   -21940025.07349 -16500477.19947  21264394.676    21264398.815
  23121006.224   -12518096.51349  -9390614.75246  23121005.481    23121010.813
  24018114.750    -8071294.34549  -5942171.71845  24018114.165    24018121.243
 03  4 11  3 38  0.0000000  0  5G14G25G11G20G 1
  22989465.878   -12163212.74349  -9468389.20646  22989465.294    22989469.679
  20654104.555   -24422494.93349 -19014064.18548  20654104.301    20654108.845
  21265313.517   -21935198.47649 -16496716.20747  21265313.140    21265317.296
  23104714.710   -12603708.79249  -9457325.57646  23104713.989    23104719.325
  24003919.421    -8145891.00449  -6000298.95845  24003919.002    24003925.812
 03  4 11  3 38 30.0000000  0  5G14G25G11G20G 1
  23004177.593   -12085902.39149  -9408147.38346  23004176.969    23004181.354
  20654181.712   -24422089.44949 -19013748.21348  20654181.458    20654186.017
  21266338.194   -21929813.87549 -16492520.41347  21266337.811    21266341.966
  23088434.261   -12689262.99649  -9523991.15746  23088433.510    23088438.911
  23989754.262    -8220329.34549  -6058302.80945  23989753.710    23989760.755
 03  4 11  3 39  0.0000000  0  5G14G25G11G20G 1
  23018897.026   -12008551.26649  -9347873.79146  23018896.439    23018900.793
  20654359.720   -24421153.82849 -19013019.14348  20654359.464    20654364.007
  21267468.867   -21923872.10049 -16487890.45447  21267468.468    21267472.633
  23072164.992   -12774758.55849  -9590611.03146  23072164.243    23072169.597
  23975619.055    -8294610.02749  -6116183.83045  23975618.525    23975625.630
 03  4 11  3 39 30.0000000  0  5G14G25G11G20G 1
  23033624.149   -11931159.43749  -9287568.47846  23033623.634    23033627.980
  20654638.694   -24419687.81049 -19011876.77648  20654638.431    20654642.979
  21268705.658   -21917372.71649 -16482825.99747  21268705.262    21268709.450
  23055907.331   -12860192.99349  -9657183.28846  23055906.539    23055911.917
  23961514.086    -8368731.97549  -6173941.15045  23961513.550    23961520.663
 03  4 11  3 40  0.0000000  0  5G14G25G11G20G 1
  23048358.718   -11853728.50249  -9227232.68846  23048358.204    23048362.592
  20655018.405   -24417692.32649 -19010321.83848  20655018.139    20655022.702
  21270048.370   -21910316.66149 -16477327.76747  21270047.982    21270052.173
  23039661.435   -12945565.66049  -9723707.40146  23039660.625    23039666.016
  23947439.179    -8442695.82549  -6231575.25545  23947438.683    23947445.760
 03  4 11  3 40 30.0000000  0  5G14G25G11G20G 1
  23063100.612   -11776259.28649  -9166867.08546  23063100.128    23063104.493
  20655498.803   -24415167.78149 -19008354.64548  20655498.556    20655503.102
  21271496.910   -21902704.45849 -16471396.17647  21271496.519    21271500.694
  23023427.579   -13030875.02849  -9790182.19946  23023426.753    23023432.145
  23933394.420    -8516501.35749  -6289086.02645  23933393.915    23933401.014
 03  4 11  3 41  0.0000000  0  5G14G25G11G20G 1
  23077849.671   -11698752.57149  -9106472.24446  23077849.167    23077853.571
  20656079.712   -24412115.03349 -19005975.86148  20656079.464    20656084.010
  21273051.220   -21894536.40049 -16465031.45147  21273050.843    21273055.009
  23007206.014   -13116119.74649  -9856606.62146  23007205.203    23007210.598
  23919379.781    -8590148.61249  -6346473.45745  23919379.308    23919386.284
 03  4 11  3 41 30.0000000  0  5G14G25G11G20G 1
  23092605.737   -11621209.12449  -9046048.77446  23092605.201    23092609.633
  20656761.059   -24408534.34749 -19003185.69948  20656760.812    20656765.358
  21274711.286   -21885812.82749 -16458233.86147  21274710.894    21274715.063
  22990997.092   -13201298.23049  -9922979.42246  22990996.304    22991001.655
  23905395.317    -8663637.37349  -6403737.38845  23905394.849    23905401.842
 03  4 11  3 42  0.0000000  0  5G14G25G11G20G 1
  23107368.592   -11543629.90849  -8985597.45546  23107368.072    23107372.536
  20657542.792   -24404426.30349 -18999984.60548  20657542.541    20657547.085
  21276476.918   -21876534.31249 -16451003.84447  21276476.522    21276480.678
  22974800.940   -13286409.40349  -9989299.78446  22974800.157    22974805.485
  23891440.961    -8736967.78849  -6460877.91745  23891440.440    23891447.542
 03  4 11  3 42 30.0000000  0  5G14G25G11G20G 1
  23122138.055   -11466015.98249  -8925119.07746  23122137.487    23122141.949
  20658424.695   -24399791.82449 -18996373.30448  20658424.440    20658428.993
  21278348.069   -21866701.31349 -16443341.76747  21278347.676    21278351.832
  22958617.961   -13371451.48749 -10055566.30946  22958617.140    22958622.483
  23877516.762    -8810139.82649  -6517895.04045  23877516.300    23877523.236
 03  4 11  3 43  0.0000000  0  5G14G25G11G20G 1
  23136914.106   -11388367.56849  -8864613.83646  23136913.558    23136917.993
  20659406.759   -24394630.93549 -18992351.81448  20659406.501    20659411.065
  21280324.716   -21856313.92149 -16435247.69847  21280324.328    21280328.481
  22942448.476   -13456422.63949 -10121777.55646  22942447.684    22942452.948
  23863622.875    -8883152.62049  -6574788.07245  23863622.328    23863629.333
 03  4 11  3 43 30.0000000  0  5G14G25G11G20G 1
  23151696.411   -11310686.28349  -8804082.96646  23151695.805    23151700.207
  20660488.714   -24388945.09149 -18987921.26448  20660488.461    20660493.008
  21282406.616   -21845373.47249 -16426722.67247  21282406.237    21282410.368
  22926292.583   -13541322.35249 -10187933.13246  22926291.799    22926297.044
  23849759.071    -8956007.16249  -6631557.78545  23849758.536    23849765.528
 03  4 11  3 44  0.0000000  0  5G14G25G11G20G 1
  23166484.883   -11232972.37749  -8743526.68246  23166484.307    23166488.715
  20661670.549   -24382734.48349 -18983081.81248  20661670.283    20661674.829
  21284593.784   -21833879.96349 -16417766.68947  21284593.393    21284597.512
  22910150.724   -13626148.15549 -10254031.13046  22910149.943    22910155.205
  23835925.537    -9028702.61849  -6688203.56045  23835924.963    23835932.077
 03  4 11  3 44 30.0000000  0  5G14G25G11G20G 1
  23181279.320   -11155227.12849  -8682945.97546  23181278.735    23181283.137
  20662952.052   -24376000.03549 -18977834.16848  20662951.796    20662956.336
  21286885.987   -21821834.29149 -16408380.44847  21286885.606    21286889.724
  22894023.093   -13710899.35649 -10320070.98746  22894022.308    22894027.504
  23822122.241    -9101239.32349  -6744725.60345  23822121.629    23822128.733
 03  4 11  3 45  0.0000000  0  5G14G25G11G20G 1
  23196079.540   -11077451.21949  -8622341.37746  23196078.958    23196083.468
  20664333.135   -24368742.41849 -18972178.86248  20664332.880    20664337.407
  21289283.203   -21809236.89249 -16398564.28647  21289282.816    21289286.924
  22877910.025   -13795573.96049 -10386051.16346  22877909.223    22877914.412
  23808349.169    -9173617.16649  -6801123.87345  23808348.543    23808355.684
 03  4 11  3 45 30.0000000  0  5G14G25G11G20G 1
  23210885.520   -10999645.20049  -8561713.33546  23210884.999    23210889.492
  20665813.664   -24360962.03449 -18966116.20648  20665813.405    20665817.936
  21291785.285   -21796088.30549 -16388318.62747  21291784.884    21291788.992
  22861811.800   -13880170.66849 -10451970.63246  22861810.988    22861816.165
  23794606.343    -9245835.96749  -6857398.18645  23794605.707    23794612.855
 03  4 11  3 46  0.0000000  0  5G14G25G11G20G 1
  23225696.968   -10921810.19449  -8501062.68746  23225696.475    23225701.002
  20667393.526   -24352659.68549 -18959646.82148  20667393.271    20667397.784
  21294392.115   -21782389.32149 -16377644.08847  21294391.709    21294395.831
  22845728.669   -13964687.76949 -10517828.07646  22845727.872    22845733.038
  23780893.753    -9317895.76649  -6913548.61645  23780893.180    23780900.231
 03  4 11  3 46 30.0000000  0  5G14G25G11G20G 1
  23240513.828   -10843947.19449  -8440390.23846  23240513.318    23240517.775
  20669072.533   -24343836.35649 -18952771.47548  20669072.299    20669076.797
  21297103.580   -21768140.54349 -16366541.14447  21297103.162    21297107.277
  22829660.992   -14049124.00349 -10583622.50746  22829660.215    22829665.311
  23767211.455    -9389796.58049  -6969575.16745  23767210.892    23767217.842
 03  4 11  3 47  0.0000000  0  5G14G25G11G20G 1
  23255335.983   -10766056.42849  -8379696.14346  23255335.406    23255339.901
  20670850.520   -24334492.87049 -18945490.81848  20670850.278    20670854.775
  21299919.523   -21753342.67149 -16355010.34047  21299919.113    21299923.231
  22813608.955   -14133477.81849 -10649352.71046  22813608.178    22813613.285
  23753559.446    -9461538.25749  -7025477.71145  23753558.854    23753565.867
 03  4 11  3 47 30.0000000  0  5G14G25G11G20G 1
  23270163.190   -10688139.09249  -8318981.33946  23270162.582    23270167.092
  20672727.291   -24324630.36349 -18937805.72948  20672727.029    20672731.522
  21302839.740   -21737996.75449 -16343052.48347  21302839.341    21302843.453
  22797572.892   -14217747.77849 -10715017.56746  22797572.129    22797577.208
  23739937.589    -9533121.23449  -7081256.59245  23739937.044    23739943.985
 03  4 11  3 48  0.0000000  0  5G14G25G11G20G 1
  23284995.293   -10610195.92749  -8258246.41146  23284994.654    23284999.221
  20674702.720   -24314249.36849 -18929716.62248  20674702.461    20674706.951
  21305864.155   -21722103.38349 -16330668.03647  21305863.737    21305867.875
  22781553.051   -14301932.31249 -10780615.86546  22781552.290    22781557.367
  23726346.019    -9604545.16549  -7136911.53245  23726345.533    23726352.387
 03  4 11  3 48 30.0000000  0  5G14G25G11G20G 1
  23299832.156   -10532227.51149  -8197491.82746  23299831.602    23299836.137
  20676776.671   -24303350.58649 -18921224.04648  20676776.416    20676780.892
  21308992.611   -21705663.17249 -16317857.48847  21308992.222    21308996.338
  22765549.744   -14386029.97049 -10846146.47146  22765548.969    22765554.063
  23712784.713    -9675810.06349  -7192442.56145  23712784.161    23712791.063
 03  4 11  3 49  0.0000000  0  5G14G25G11G20G 1
  23314673.635   -10454234.72249  -8136718.23146  23314673.137    23314677.658
  20678948.929   -24291935.20749 -18912328.92448  20678948.672    20678953.136
  21312224.929   -21688677.18049 -16304621.64647  21312224.554    21312228.679
  22749563.360   -14470038.80849 -10911607.85046  22749562.546    22749567.675
  23699253.670    -9746915.82849  -7247849.59445  23699253.119    23699260.046
 03  4 11  3 49 30.0000000  0  5G14G25G11G20G 1
  23329519.598   -10376218.79549  -8075926.61246  23329519.050    23329523.568
  20681219.339   -24280004.16649 -18903031.98948  20681219.080    20681223.530
  21315560.956   -21671146.21849 -16290961.14547  21315560.574    21315564.696
  22733594.032   -14553957.95649 -10976999.35546  22733593.241    22733598.377
  23685752.813    -9817863.08349  -7303133.08945  23685752.255    23685759.170
 03  4 11  3 50  0.0000000  0  5G14G25G11G20G 1
  23344369.974   -10298179.56649  -8015116.82546  23344369.489    23344374.021
  20683587.804   -24267557.73449 -18893333.45448  20683587.550    20683591.987
  21319000.629   -21653070.62349 -16276876.26547  21319000.243    21319004.376
  22717642.189   -14637785.11349 -11042319.16746  22717641.434    22717646.568
  23672282.252    -9888651.03149  -7358292.47945  23672281.720    23672288.635
 03  4 11  3 50 30.0000000  0  5G14G25G11G20G 1
  23359224.493   -10220118.64149  -7954290.14346  23359224.036    23359228.525
  20686053.956   -24254597.85249 -18883234.82448  20686053.713    20686058.134
  21322543.628   -21634452.01949 -16262368.25547  21322543.251    21322547.380
  22701708.052   -14721519.28149 -11107566.52446  22701707.275    22701712.437
  23658841.885    -9959280.48849  -7413328.35745  23658841.315    23658848.196
 03  4 11  3 51  0.0000000  0  5G14G25G11G20G 1
  23374083.192   -10142035.60849  -7893446.23946  23374082.690    23374087.233
  20688617.882   -24241124.24349 -18872735.88848  20688617.628    20688622.073
  21326189.988   -21615290.17549 -16247436.94647  21326189.616    21326193.733
  22685792.174   -14805157.60349 -11172739.20346  22685791.394    22685796.544
  23645431.839   -10029750.40049  -7468239.91745  23645431.309    23645438.131
 03  4 11  3 51 30.0000000  0  5G14G25G11G20G 1
  23388945.796   -10063932.23749  -7832586.47046  23388945.290    23388949.802
  20691279.156   -24227139.08349 -18861838.34148  20691278.916    20691283.348
  21329939.384   -21595587.01249 -16232083.83047  21329939.010    21329943.155
  22669894.627   -14888699.73249 -11237836.92146  22669893.859    22669899.016
  23632051.983   -10100061.70649  -7523027.87945  23632051.461    23632058.315
 03  4 11  3 52  0.0000000  0  5G14G25G11G20G 1
  23403812.205    -9985808.69349  -7771710.98046  23403811.689    23403816.212
  20694037.676   -24212642.82549 -18850542.53548  20694037.436    20694041.866
  21333791.667   -21575343.06549 -16216309.32347  21333791.264    21333795.434
  22654015.745   -14972143.72549 -11302858.17546  22654014.962    22654020.115
  23618702.433   -10170213.93249  -7577691.89845  23618701.883    23618708.708
 03  4 11  3 52 30.0000000  0  5G14G25G11G20G 1
  23418682.256    -9907666.35949  -7710820.85646  23418681.674    23418686.258
  20696893.198   -24197636.79249 -18838849.50248  20696892.959    20696897.391
  21337746.585   -21554559.82949 -16200114.59747  21337746.186    21337750.360
  22638155.751   -15055488.37149 -11367802.01146  22638154.972    22638160.085
  23605383.042   -10240207.60949  -7632232.34945  23605382.465    23605389.304
 03  4 11  3 53  0.0000000  0  5G14G25G11G20G 1
  23433555.724    -9829505.53449  -7649916.33446  23433555.168    23433559.746
  20699845.661   -24182121.42449 -18826759.58748  20699845.425    20699849.850
  21341804.008   -21533237.81349 -16183500.03747  21341803.637    21341807.817
  22622315.032   -15138731.74049 -11432666.93946  22622314.248    22622319.370
  23592093.866   -10310042.45349  -7686649.04845  23592093.284    23592100.080
 03  4 11  3 53 30.0000000  0  5G14G25G11G20G 1
  23448432.755    -9751326.37549  -7588997.51546  23448432.139    23448436.769
  20702894.908   -24166097.42949 -18814273.33548  20702894.664    20702899.095
  21345963.882   -21511377.58049 -16166466.08247  21345963.497    21345967.685
  22606494.026   -15221871.46449 -11497451.09746  22606493.260    22606498.364
  23578835.013   -10379718.10849  -7740941.70945  23578834.423    23578841.241
 03  4 11  3 54  0.0000000  0  5G14G25G11G20G 1
  23463313.143    -9673129.29449  -7528064.72846  23463312.586    23463317.199
  20706040.770   -24149565.84549 -18801391.56448  20706040.527    20706044.957
  21350226.071   -21488979.65149 -16149013.14147  21350225.676    21350229.864
  22590693.148   -15304905.61749 -11562152.99146  22590692.359    22590697.472
  23565606.474   -10449234.18649  -7795110.01645  23565605.861    23565612.679
 03  4 11  3 54 30.0000000  0  5G14G25G11G20G 1
  23478196.672    -9594915.75049  -7467119.11845  23478196.153    23478200.710
  20709282.808   -24132528.67749 -18788115.83048  20709282.552    20709286.975
  21354590.125   -21466046.33849 -16131143.01747  21354589.725    21354593.919
  22574912.431   -15387833.59049 -11626772.14446  22574911.664    22574916.745
  23552408.110   -10518591.71749  -7849154.77145  23552407.567    23552414.335
 03  4 11  3 55  0.0000000  0  5G14G25G11G20G 1
  23493083.306    -9516686.11849  -7406160.97845  23493082.797    23493087.359
  20712621.027   -24114986.22549 -18774446.36848  20712620.781    20712625.188
  21359055.971   -21442578.16249 -16112856.12647  21359055.573    21359059.770
  22559152.282   -15470653.48049 -11691307.07846  22559151.524    22559156.599
  23539239.941   -10587790.51649  -7903075.85245  23539239.384    23539246.205
 03  4 11  3 55 30.0000000  0  5G14G25G11G20G 1
  23507972.741    -9438441.74149  -7345191.33345  23507972.219    23507976.766
  20716054.925   -24096940.77949 -18760384.96448  20716054.684    20716059.085
  21363623.220   -21418577.02949 -16094153.94447  21363622.832    21363627.007
  22543412.954   -15553363.99049 -11755756.78046  22543412.171    22543417.231
  23526101.874   -10656831.21749  -7956873.72145  23526101.270    23526108.080
 03  4 11  3 56  0.0000000  0  5G14G25G11G20G 1
  23522864.882    -9360183.02849  -7284210.53245  23522864.360    23522868.845
  20719584.422   -24078393.04549 -18745932.16948  20719584.190    20719588.576
  21368291.769   -21394043.74949 -16075037.09547  21368291.380    21368295.565
  22527694.783   -15635963.39749 -11820119.91446  22527694.002    22527699.030
  23512993.948   -10725713.57449  -8010548.23145  23512993.323    23513000.160
 03  4 11  3 56 30.0000000  0  5G14G25G11G20G 1
  23537759.710    -9281910.19849  -7223218.72145  23537759.198    23537763.688
  20723209.415   -24059343.50249 -18731088.35348  20723209.181    20723213.567
  21373061.436   -21368978.90249 -16055506.04247  21373061.038    21373065.240
  22511998.134   -15718449.68149 -11884394.89846  22511997.339    22512002.379
  23499916.216   -10794437.15549  -8064099.00945  23499915.647    23499922.372
 03  4 11  3 57  0.0000000  0  5G14G25G11G20G 1
  23552657.016    -9203624.21149  -7162216.66845  23552656.565    23552661.020
  20726929.590   -24039793.91649 -18715854.89348  20726929.345    20726933.727
  21377931.963   -21343384.02949 -16035561.97447  21377931.596    21377935.757
  22496323.294   -15800821.30049 -11948580.53246  22496322.500    22496327.546
  23486868.602   -10863002.53849  -8117526.50746  23486868.040    23486874.762
 03  4 11  3 57 30.0000000  0  5G14G25G11G20G 1
  23567556.800    -9125325.67849  -7101204.82045  23567556.290    23567560.757
  20730744.725   -24019745.17649 -18700232.48248  20730744.494    20730748.858
  21382903.174   -21317260.15949 -16015205.70547  21382902.774    21382906.942
  22480670.614   -15883076.46549 -12012675.43446  22480669.836    22480674.859
  23473851.095   -10931409.84549  -8170830.83546  23473850.571    23473857.233
 03  4 11  3 58  0.0000000  0  5G14G25G11G20G 1
  23582458.878    -9047014.76149  -7040183.33245  23582458.303    23582462.831
  20734654.583   -23999198.52149 -18684222.08648  20734654.338    20734658.726
  21387974.842   -21290608.37149 -15994438.07347  21387974.463    21387978.612
  22465040.511   -15965213.12549 -12076677.99146  22465039.737    22465044.748
  23460863.729   -10999658.63549  -8224011.64646  23460863.182    23460869.860
 03  4 11  3 58 30.0000000  0  5G14G25G11G20G 1
  23597363.170    -8968692.37549  -6979152.90545  23597362.526    23597367.091
  20738659.002   -23978155.25949 -18667824.72748  20738658.755    20738663.129
  21393146.697   -21263430.12449 -15973260.22047  21393146.323    21393150.456
  22449433.131   -16047230.16249 -12140587.33346  22449432.351    22449437.348
  23447906.466   -11067749.26649  -8277069.20446  23447905.932    23447912.535
 03  4 11  3 59  0.0000000  0  5G14G25G11G20G 1
  23612269.441    -8890359.07049  -6918113.98545  23612268.857    23612273.382
  20742757.633   -23956616.69349 -18651041.41448  20742757.378    20742761.757
  21398418.501   -21235726.60749 -15951673.07647  21398418.133    21398422.246
  22433848.958   -16129125.36349 -12204401.74346  22433848.180    22433853.180
  23434979.345   -11135681.62249  -8330003.44046  23434978.821    23434985.385
 03  4 11  3 59 30.0000000  0  5G14G25G11G20G 1
  23627177.843    -8812015.04549  -6857066.69645  23627177.315    23627181.762
  20746950.382   -23934583.66849 -18633872.80848  20746950.125    20746954.496
  21403790.103   -21207498.80249 -15929677.38747  21403789.735    21403793.824
  22418288.298   -16210896.90549 -12268119.79346  22418287.533    22418292.512
  23422082.265   -11203455.78249  -8382814.39846  23422081.750    23422088.294
 03  4 11  4  0  0.0000000  0  5G14G25G11G20G 1
  23642087.989    -8733661.84149  -6796012.26545  23642087.394    23642091.928
  20751236.853   -23912057.98849 -18616320.31948  20751236.598    20751240.965
  21409261.009   -21178748.97249 -15907274.92247  21409260.657    21409264.725
  22402751.441   -16292543.61249 -12331740.56846  22402750.679    22402755.645
  23409215.158   -11271072.43049  -8435502.63146  23409214.688    23409221.206
 03  4 11  4  0 30.0000000  0  5G14G25G11G20G 1
  23656999.921    -8655299.19449  -6734950.46245  23656999.320    23657003.806
  20755616.910   -23889040.52649 -18598384.61848  20755616.646    20755621.010
  21414831.295   -21149476.84049 -15884465.46747  21414830.931    21414834.994
  22387238.783   -16374062.98649 -12395262.11946  22387238.048    22387242.974
  23396378.156   -11338531.07849  -8488067.75546  23396377.705    23396384.159
 03  4 11  4  1  0.0000000  0  5G14G25G11G20G 1
  23671913.520    -8576927.32849  -6673881.48445  23671913.016    23671917.496
  20760090.402   -23865532.21249 -18580066.43748  20760090.149    20760094.500
  21420500.675   -21119683.99049 -15861250.26147  21420500.326    21420504.380
  22371750.718   -16455453.17149 -12458683.00546  22371749.970    22371754.875
  23383571.288   -11405831.33249  -8540509.43846  23383570.931    23383577.256
 03  4 11  4  1 30.0000000  0  5G14G25G11G20G 1
  23686828.582    -8498548.08349  -6612806.76245  23686828.060    23686832.611
  20764656.796   -23841535.49049 -18561367.68048  20764656.557    20764660.911
  21426268.634   -21089373.23149 -15837631.49447  21426268.283    21426272.344
  22356287.330   -16536713.63049 -12522002.81246  22356286.575    22356291.531
  23370794.266   -11472974.74949  -8592828.93246  23370793.866    23370800.184
 03  4 11  4  2  0.0000000  0  5G14G25G11G20G 1
  23701745.191    -8420161.04849  -6551725.95945  23701744.663    23701749.153
  20769316.092   -23817050.64449 -18542288.56548  20769315.842    20769320.214
  21432135.102   -21058544.68249 -15813609.24947  21432134.742    21432138.796
  22340849.198   -16617841.38649 -12585219.20546  22340848.423    22340853.374
  23358047.261   -11539960.48449  -8645025.53446  23358046.911    23358053.162
 03  4 11  4  2 30.0000000  0  5G14G25G11G20G 1
  23716662.994    -8341767.52649  -6490640.10445  23716662.497    23716667.049
  20774067.775   -23792080.18349 -18522831.05348  20774067.532    20774071.900
  21438099.660   -21027200.65749 -15789185.33847  21438099.303    21438103.369
  22325436.472   -16698835.67949 -12648331.60546  22325435.722    22325440.671
  23345330.120   -11606789.27249  -8697099.86446  23345329.745    23345335.986
 03  4 11  4  3  0.0000000  0  5G14G25G11G20G 1
  23731581.931    -8263367.91149  -6429549.50945  23731581.418    23731585.995
  20778911.825   -23766624.54249 -18502995.47648  20778911.579    20778915.935
  21444162.139   -20995342.11849 -15764360.50447  21444161.776    21444165.860
  22310049.576   -16779694.24949 -12711338.24746  22310048.814    22310053.749
  23332642.946   -11673460.85649  -8749051.68446  23332642.498    23332648.791
 03  4 11  4  3 30.0000000  0  5G14G25G11G20G 1
  23746502.103    -8184962.06649  -6368454.04645  23746501.649    23746506.136
  20783847.869   -23740685.27649 -18482783.04848  20783847.622    20783851.986
  21450322.339   -20962970.08149 -15739135.54247  21450321.971    21450326.050
  22294688.906   -16860414.93749 -12774237.42846  22294688.119    22294693.077
  23319985.638   -11739975.21349  -8800881.00046  23319985.151    23319991.475
 03  4 11  4  4  0.0000000  0  5G14G25G11G20G 1
  23761423.390    -8106550.30049  -6307353.98945  23761422.870    23761427.416
  20788875.774   -23714263.37449 -18462194.54148  20788875.531    20788879.909
  21456580.011   -20930085.82849 -15713511.45147  21456579.629    21456583.724
  22279354.896   -16940995.67949 -12837027.56746  22279354.094    22279359.059
  23307358.312   -11806332.01249  -8852587.53346  23307357.822    23307364.137
 03  4 11  4  4 30.0000000  0  5G14G25G11G20G 1
  23776345.441    -8028134.20449  -6246250.55145  23776344.969    23776349.490
  20793995.084   -23687361.25449 -18441231.83448  20793994.837    20793999.205
  21462934.622   -20896692.02649 -15687490.31447  21462934.260    21462938.350
  22264047.615   -17021435.68249 -12899708.04346  22264046.811    22264051.787
  23294760.671   -11872532.58349  -8904172.32346  23294760.184    23294766.548
 03  4 11  4  5  0.0000000  0  5G14G25G11G20G 1
  23791268.392    -7949713.56849  -6185143.56845  23791267.898    23791272.494
  20799205.673   -23659979.35949 -18419895.28148  20799205.420    20799209.792
  21469386.155   -20862788.98949 -15661072.37147  21469385.784    21469389.882
  22248767.692   -17101732.12549 -12962276.67146  22248766.879    22248771.846
  23282192.973   -11938576.11649  -8955634.76546  23282192.443    23282198.832
 03  4 11  4  5 30.0000000  0  6G14G16G25G11G20G 1
  23806191.909    -7871289.79849  -6124034.16445  23806191.378    23806196.055
  24684347.984    -4286004.96749  -3181706.87245  24684347.461    24684353.254
  20804507.083   -23632120.19049 -18398186.82748  20804506.820    20804511.188
  21475934.087   -20828379.30749 -15634259.63447  21475933.720    21475937.814
  22233515.229   -17181884.34349 -13024732.91247  22233514.418    22233519.371
  23269654.987   -12004463.74849  -9006975.71246  23269654.423    23269660.802
 03  4 11  4  6  0.0000000  0  6G14G16G25G11G20G 1
  23821116.122    -7792862.62049  -6062922.08845  23821115.594    23821120.288
  24667496.209    -4374562.90149  -3250713.13845  24667495.728    24667500.906
  20809899.237   -23603784.21249 -18376106.83448  20809898.987    20809903.348
  21482578.290   -20793463.92349 -15607052.84847  21482577.921    21482582.014
  22218290.653   -17261889.77049 -13087074.75447  22218289.868    22218294.797
  23257146.716   -12070194.78649  -9058194.65046  23257146.134    23257152.509
 03  4 11  4  6 30.0000000  0  6G14G16G25G11G20G 1
  23836041.011    -7714431.86949  -6001807.22345  23836040.542    23836045.168
  24650632.198    -4463182.18249  -3319767.03545  24650631.673    24650637.374
  20815381.896   -23574972.59349 -18353656.20848  20815381.631    20815385.987
  21489318.558   -20758043.50649 -15579452.52947  21489318.195    21489322.310
  22203094.562   -17341745.52849 -13149299.97047  22203093.768    22203098.695
  23244668.379   -12135768.65249  -9109291.10946  23244667.802    23244674.137
 03  4 11  4  7  0.0000000  0  6G14G16G25G11G20G 1
  23850966.487    -7635998.21949  -5940690.09445  23850966.000    23850970.525
  24633757.312    -4551860.22649  -3388866.72845  24633756.715    24633762.638
  20820954.718   -23545687.16449 -18330836.38648  20820954.453    20820958.812
  21496154.574   -20722120.02949 -15551460.22347  21496154.222    21496158.316
  22187927.221   -17421450.33549 -13211407.56747  22187926.418    22187931.355
  23232219.891   -12201185.77649  -9160265.43446  23232219.300    23232225.613
 03  4 11  4  7 30.0000000  0  6G14G16G25G11G20G 1
  23865892.237    -7557562.87449  -5879571.65545  23865891.668    23865896.271
  24616871.873    -4640595.02149  -3458010.77145  24616871.174    24616876.869
  20826617.316   -23515930.06249 -18307649.02448  20826617.043    20826621.397
  21503085.886   -20685695.78049 -15523077.69247  21503085.524    21503089.620
  22172788.809   -17501003.03549 -13273396.63847  22172788.028    22172792.909
  23219801.005   -12266447.13749  -9211118.40246  23219800.427    23219806.686
 03  4 11  4  8  0.0000000  0  6G14G16G25G11G20G 1
  23880818.267    -7479125.71649  -5818451.80045  23880817.813    23880822.435
  24599975.687    -4729383.19849  -3527196.31644  24599974.913    24599980.536
  20832369.483   -23485702.12649 -18284094.77748  20832369.211    20832373.572
  21510112.288   -20648771.73349 -15494305.70647  21510111.910    21510116.029
  22157679.814   -17580401.10449 -13335265.22447  22157679.008    22157683.911
  23207411.913   -12331552.14049  -9261849.53546  23207411.304    23207417.575
 03  4 11  4  8 30.0000000  0  6G14G16G25G11G20G 1
  23895744.676    -7400687.27549  -5757330.93245  23895744.260    23895748.793
  24583070.250    -4818221.94949  -3596421.26445  24583069.714    24583075.235
  20838210.956   -23455004.89849 -18260174.84948  20838210.687    20838215.040
  21517233.502   -20611349.49949 -15465145.52947  21517233.130    21517237.247
  22142600.616   -17659642.65149 -13397011.84347  22142599.827    22142604.721
  23195052.467   -12396501.06649  -9312459.03246  23195051.900    23195058.162
 03  4 11  4  9  0.0000000  0  6G14G16G25G11G20G 1
  23910671.079    -7322248.63949  -5696209.91045  23910670.647    23910675.186
  24566155.744    -4907109.04049  -3665683.88545  24566155.236    24566160.736
  20844141.335   -23423840.45649 -18235890.86148  20844141.071    20844145.430
  21524449.042   -20573431.53549 -15435599.06847  21524448.684    21524452.805
  22127551.430   -17738726.43849 -13458635.54047  22127550.655    22127555.535
  23182722.605   -12461294.66649  -9362947.49746  23182722.056    23182728.300
 03  4 11  4  9 30.0000000  0  6G14G16G25G11G20G 1
  23925597.597    -7243809.37949  -5635088.43345  23925597.134    23925601.660
  24549232.112    -4996041.29249  -3734981.66244  24549231.610    24549237.075
  20850160.491   -23392209.61549 -18211243.44248  20850160.244    20850164.591
  21531758.769   -20535018.69849 -15405666.98847  21531758.424    21531762.541
  22112532.777   -17817649.79249 -13520134.22647  22112532.003    22112536.866
  23170422.396   -12525932.43449  -9413314.55046  23170421.850    23170428.103
 03  4 11  4 10  0.0000000  0  6G14G16G25G11G20G 1
  23940523.948    -7165370.74849  -5573967.43645  23940523.480    23940528.000
  24532300.970    -5085016.31249  -3804312.87345  24532300.222    24532305.544
  20856267.882   -23360114.86949 -18186234.54148  20856267.636    20856271.991
  21539162.198   -20496113.36349 -15375351.14647  21539161.849    21539165.961
  22097544.889   -17896411.63849 -13581507.06047  22097544.108    22097548.963
  23158151.662   -12590415.27849  -9463560.88846  23158151.106    23158157.390
 03  4 11  4 10 30.0000000  0  6G14G16G25G11G20G 1
  23955450.270    -7086932.53049  -5512846.73945  23955449.806    23955454.326
  24515361.895    -5174030.70749  -3873674.61245  24515361.170    24515366.942
  20862463.428   -23327557.14649 -18160864.88148  20862463.187    20862467.523
  21546659.130   -20456716.80749 -15344652.53247  21546658.759    21546662.895
  22082588.207   -17975009.38549 -13642752.02447  22082587.423    22082592.278
  23145910.531   -12654742.78449  -9513686.19446  23145909.970    23145916.262
 03  4 11  4 11  0.0000000  0  6G14G16G25G11G20G 1
  23970376.349    -7008495.22649  -5451726.75645  23970375.954    23970380.389
  24498415.935    -5263081.82549  -3943064.99945  24498415.409    24498420.767
  20868746.760   -23294538.03049 -18135135.69148  20868746.517    20868750.836
  21554249.217   -20416830.66049 -15313572.41347  21554248.864    21554253.001
  22067663.115   -18053441.10349 -13703867.61847  22067662.345    22067667.156
  23133698.899   -12718915.02549  -9563690.49146  23133698.324    23133704.648
 03  4 11  4 11 30.0000000  0  6G14G16G25G11G20G 1
  23985302.067    -6930060.13649  -5390608.51145  23985301.562    23985306.138
  24481463.561    -5352167.79649  -4012482.69945  24481462.996    24481468.072
  20875117.467   -23261059.64949 -18109048.63548  20875117.227    20875121.543
  21561931.965   -20376457.41649 -15282112.73847  21561931.605    21561935.747
  22052769.806   -18131705.77049 -13764853.03347  22052769.056    22052773.840
  23121516.661   -12782932.94849  -9613574.54746  23121516.137    23121522.405
 03  4 11  4 12  0.0000000  0  6G14G16G25G11G20G 1
  24000227.475    -6851626.63149  -5329491.51245  24000226.949    24000231.472
  24464504.868    -5441284.67449  -4081924.25945  24464504.246    24464509.924
  20881575.392   -23227122.88249 -18082604.39148  20881575.146    20881579.475
  21569707.316   -20335597.74249 -15250274.02847  21569706.953    21569711.110
  22037908.851   -18209800.41149 -13825705.95947  22037908.074    22037912.866
  23109363.934   -12846795.86949  -9663337.82246  23109363.401    23109369.628
 03  4 11  4 12 30.0000000  0  6G14G16G25G11G20G 1
  24015152.564    -6773194.71849  -5268375.75045  24015151.996    24015156.596
  24447541.449    -5530429.16449  -4151387.49745  24447540.889    24447546.400
  20888120.292   -23192729.14449 -18055804.07148  20888120.065    20888124.370
  21577574.834   -20294253.69149 -15218057.88647  21577574.476    21577578.636
  22023080.666   -18287722.90549 -13886424.76247  22023079.899    22023084.669
  23097240.696   -12910503.71349  -9712980.25846  23097240.144    23097246.364
 03  4 11  4 13  0.0000000  0  6G14G16G25G11G20G 1
  24030076.958    -6694766.20349  -5207262.63145  24030076.354    24030081.090
  24430572.667    -5619599.90249  -4220871.17645  24430572.148    24430577.444
  20894751.586   -23157881.37149 -18028649.95348  20894751.355    20894755.668
  21585533.981   -20252428.03349 -15185466.47147  21585533.606    21585537.791
  22008285.404   -18365472.45349 -13947008.79247  22008284.642    22008289.411
  23085146.730   -12974057.79249  -9762502.87146  23085146.176    23085152.416
